[[{"header":{"parameterUnit":"m.s-1","parameterCategory":1,"la1":31.0,"la2":29.5877,"lo1":-88.7671,"lo2":-86.6584,"dy":0.0162,"dx":0.0185,"nx":115,"ny":88,"refTime":"2023-07-29T12:00:00:Z","depth":0,"parameterNumber":2,"parameterNumberName":"U-component_of_WINDS"},"data":[0.0,0.0,0.0,0.0,0.0,0.0,0.0,0.0,0.0,0.0,0.0,0.0,0.0,0.0,0.0,0.0,0.0,0.0,0.0,0.0,0.0,0.0,0.0,0.0,0.0,0.0,0.0,0.0,0.0,0.0,0.0,0.0,0.0,0.0,0.0,0.0,0.0,0.0,0.0,0.0,0.0,0.0,0.0,0.0,0.0,0.0,0.0,0.0,0.0,0.0,0.0,0.0,0.0,0.0,0.0,0.0,0.0,0.0,0.0,0.0,0.0,0.0,0.0,0.0,0.0,0.0,0.0,0.0,0.0,0.0,0.0,0.0,0.0,0.0,0.0,0.0,0.0,0.0,0.0,0.0,0.0,0.0,0.0,0.0,0.0,0.0,0.0,0.0,0.0,0.0,0.0,0.0,0.0,0.0,0.0,0.0,0.0,0.0,0.0,0.0,0.0,0.0,0.0,0.0,0.0,0.0,0.0,0.0,0.0,0.0,0.0,0.0,0.0,0.0,0.0,0.0,0.0,0.0,0.0,0.0,0.0,0.0,0.0,0.0,0.0,0.0,0.0,0.0,0.0,0.0,0.0,0.0,0.0,0.0,0.0,0.0,0.0,0.0,0.0,0.0,0.0,0.0,0.0,0.0,0.0,0.0,0.0,0.0,0.0,0.0,0.0,0.0,0.0,0.0,0.0,0.0,0.0,0.0,0.0,0.0,0.0,0.0,0.0,0.0,0.0,0.0,0.0,0.0,0.0,0.0,0.0,0.0,0.0,0.0,0.0,0.0,0.0,0.0,0.0,0.0,0.0,0.0,0.0,0.0,0.0,0.0,0.0,0.0,0.0,0.0,0.0,0.0,0.0,0.0,0.0,0.0,0.0,0.0,0.0,0.0,0.0,0.0,0.0,0.0,0.0,0.0,0.0,0.0,0.0,0.0,0.0,0.0,0.0,0.0,0.0,0.0,0.0,0.0,0.0,0.0,0.0,0.0,0.0,0.0,0.0,0.0,0.0,0.0,0.0,0.0,0.0,0.0,0.0,0.0,0.0,0.0,0.0,0.0,0.0,0.0,0.0,0.0,0.0,0.0,0.0,0.0,0.0,0.0,0.0,0.0,0.0,0.0,0.0,0.0,0.0,0.0,0.0,0.0,0.0,0.0,0.0,0.0,0.0,0.0,0.0,0.0,0.0,0.0,0.0,0.0,0.0,0.0,0.0,0.0,0.0,0.0,0.0,0.0,0.0,0.0,0.0,0.0,0.0,0.0,0.0,0.0,0.0,0.0,0.0,0.0,0.0,0.0,0.0,0.0,0.0,0.0,0.0,0.0,0.0,0.0,0.0,0.0,0.0,0.0,0.0,0.0,0.0,0.0,0.0,0.0,0.0,0.0,0.0,0.0,0.0,0.0,0.0,0.0,0.0,0.0,0.0,0.0,0.0,0.0,0.0,0.0,0.0,0.0,0.0,0.0,0.0,0.0,0.0,0.0,0.0,0.0,0.0,0.0,0.0,0.0,0.0,0.0,0.0,0.0,0.0,0.0,0.0,0.0,0.0,0.0,0.0,0.0,0.0,0.0,0.0,0.0,0.0,0.0,0.0,0.0,0.0,0.0,0.0,0.0,0.0,0.0,0.0,0.0,0.0,0.0,0.0,0.0,0.0,0.0,0.0,0.0,0.0,0.0,0.0,0.0,0.0,0.0,0.0,0.0,0.0,0.0,0.0,0.0,0.0,0.0,0.0,0.0,0.0,0.0,0.0,0.0,0.0,0.0,0.0,0.0,0.0,0.0,0.0,0.0,0.0,0.0,0.0,0.0,0.0,0.0,0.0,0.0,0.0,0.0,0.0,0.0,0.0,0.0,0.0,0.0,0.0,0.0,0.0,0.0,0.0,0.0,0.0,0.0,0.0,0.0,0.0,0.0,0.0,0.0,0.0,0.0,0.0,0.0,0.0,0.0,0.0,0.0,0.0,0.0,0.0,0.0,0.0,0.0,0.0,0.0,0.0,0.0,0.0,0.0,0.0,0.0,0.0,0.0,0.0,0.0,0.0,0.0,0.0,0.0,0.0,0.0,0.0,0.0,0.0,0.0,0.0,0.0,0.0,0.0,0.0,0.0,0.0,0.0,0.0,0.0,0.0,0.0,0.0,0.0,0.0,0.0,0.0,0.0,0.0,0.0,0.0,0.0,0.0,0.0,0.0,0.0,0.0,0.0,0.0,0.0,0.0,0.0,0.0,0.0,0.0,0.0,0.0,0.0,0.0,0.0,0.0,0.0,0.0,0.0,0.0,0.0,0.0,0.0,0.0,0.0,0.0,0.0,0.0,0.0,0.0,0.0,0.0,0.0,0.0,0.0,0.0,0.0,0.0,0.0,0.0,0.0,0.0,0.0,0.0,0.0,0.0,0.0,0.0,0.0,0.0,0.0,0.0,0.0,0.0,0.0,0.0,0.0,0.0,0.0,0.0,0.0,0.0,0.0,0.0,0.0,0.0,0.0,0.0,0.0,0.0,0.0,0.0,0.0,0.0,0.0,0.0,0.0,0.0,0.0,0.0,0.0,0.0,0.0,0.0,0.0,0.0,0.0,0.0,0.0,0.0,0.0,0.0,0.0,0.0,0.0,0.0,0.0,0.0,0.0,0.0,0.0,0.0,0.0,0.0,0.0,0.0,0.0,0.0,0.0,0.0,0.0,0.0,0.0,0.0,0.0,0.0,0.0,0.0,0.0,0.0,0.0,0.0,0.0,0.0,0.0,0.0,0.0,0.0,0.0,0.0,0.0,0.0,0.0,0.0,0.0,0.0,0.0,0.0,0.0,0.0,0.0,0.0,0.0,0.0,0.0,0.0,0.0,0.0,0.0,0.0,0.0,0.0,0.0,0.0,0.0,0.0,0.0,0.0,0.0,0.0,0.0,0.0,0.0,0.0,0.0,0.0,0.0,0.0,0.0,0.0,0.0,0.0,0.0,0.0,0.0,0.0,0.0,0.0,0.0,0.0,0.0,0.0,0.0,0.0,0.0,0.0,0.0,0.0,0.0,0.0,0.0,0.0,0.0,0.0,0.0,0.0,0.0,0.0,0.0,0.0,0.0,0.0,0.0,0.0,0.0,0.0,0.0,0.0,0.0,0.0,0.0,0.0,0.0,0.0,0.0,0.0,0.0,0.0,0.0,0.0,0.0,0.0,0.0,0.0,0.0,0.0,0.0,0.0,0.0,0.0,0.0,0.0,0.0,0.0,0.0,0.0,0.0,0.0,0.0,0.0,0.0,0.0,0.0,0.0,0.0,0.0,0.0,0.0,0.0,0.0,0.0,0.0,0.0,0.0,0.0,0.0,0.0,0.0,0.0,0.0,0.0,0.0,0.0,0.0,0.0,0.0,0.0,0.0,0.0,0.0,0.0,0.0,0.0,0.0,0.0,0.0,0.0,0.0,0.0,0.0,0.0,0.0,0.0,0.0,0.0,0.0,0.0,0.0,0.0,0.0,0.0,0.0,0.0,0.0,0.0,0.0,0.0,0.0,0.0,0.0,0.0,0.0,0.0,0.0,0.0,0.0,0.0,0.0,0.0,0.0,0.0,0.0,0.0,0.0,0.0,0.0,0.0,0.0,0.0,0.0,0.0,0.0,0.0,0.0,0.0,0.0,0.0,0.0,0.0,0.0,0.0,0.0,0.0,0.0,0.0,0.0,0.0,0.0,0.0,0.0,0.0,0.0,0.0,0.0,0.0,0.0,0.0,0.0,0.0,0.0,0.0,0.0,0.0,0.0,0.0,0.0,0.0,0.0,0.0,0.0,0.0,0.0,0.0,0.0,0.0,0.0,0.0,0.0,0.0,0.0,0.0,0.0,0.0,0.0,0.0,0.0,0.0,0.0,0.0,0.0,0.0,0.0,0.0,0.0,0.0,0.0,0.0,0.0,0.0,0.0,0.0,0.0,0.0,0.0,0.0,0.0,0.0,0.0,0.0,0.0,0.0,0.0,0.0,0.0,0.0,0.0,0.0,0.0,0.0,0.0,0.0,0.0,0.0,0.0,0.0,0.0,0.0,0.0,0.0,0.0,0.0,0.0,0.0,0.0,0.0,0.0,0.0,0.0,0.0,0.0,0.0,0.0,0.0,0.0,0.0,0.0,0.0,0.0,0.0,0.0,0.0,0.0,0.0,0.0,0.0,0.0,0.0,0.0,0.0,0.0,0.0,0.0,0.0,0.0,0.0,0.0,0.0,0.0,0.0,0.0,0.0,0.0,0.0,0.0,0.0,0.0,0.0,0.0,0.0,0.0,0.0,-2.1007,0.0,0.0,0.0,0.0,0.0,0.0,0.0,0.0,0.0,0.0,0.0,0.0,0.0,0.0,0.0,0.0,0.0,0.0,0.0,0.0,0.0,0.0,0.0,0.0,0.0,0.0,0.0,0.0,0.0,0.0,0.0,0.0,0.0,0.0,0.0,0.0,0.0,0.0,0.0,0.0,0.0,0.0,0.0,0.0,0.0,0.0,0.0,0.0,0.0,0.0,0.0,0.0,0.0,0.0,0.0,0.0,0.0,0.0,0.0,0.0,0.0,0.0,0.0,0.0,0.0,0.0,0.0,0.0,0.0,0.0,0.0,0.0,0.0,0.0,0.0,0.0,0.0,0.0,0.0,0.0,0.0,0.0,0.0,0.0,0.0,0.0,0.0,0.0,0.0,0.0,0.0,0.0,0.0,0.0,0.0,0.0,0.0,0.0,0.0,0.0,0.0,0.0,0.0,0.0,0.0,0.0,0.0,0.0,0.0,0.0,-2.1497,-2.124,-2.1086,-2.0764,-2.0277,0.0,0.0,0.0,0.0,0.0,0.0,0.0,0.0,0.0,0.0,0.0,0.0,0.0,0.0,0.0,0.0,0.0,0.0,0.0,0.0,0.0,0.0,0.0,0.0,0.0,0.0,0.0,0.0,0.0,0.0,0.0,0.0,0.0,0.0,0.0,0.0,0.0,0.0,0.0,0.0,0.0,0.0,0.0,0.0,0.0,0.0,0.0,0.0,0.0,0.0,0.0,0.0,0.0,0.0,0.0,0.0,0.0,0.0,0.0,0.0,0.0,0.0,0.0,0.0,0.0,0.0,0.0,0.0,0.0,0.0,0.0,0.0,0.0,0.0,0.0,0.0,0.0,0.0,0.0,0.0,0.0,0.0,0.0,0.0,0.0,0.0,0.0,0.0,0.0,0.0,0.0,0.0,0.0,0.0,0.0,0.0,0.0,0.0,0.0,0.0,0.0,0.0,0.0,0.0,0.0,0.0,0.0,0.0,0.0,0.0,0.0,0.0,-2.1095,-2.0674,-1.9645,0.0,0.0,0.0,0.0,0.0,0.0,0.0,0.0,0.0,0.0,0.0,0.0,0.0,0.0,0.0,0.0,0.0,0.0,0.0,0.0,0.0,0.0,0.0,0.0,0.0,0.0,0.0,0.0,0.0,0.0,0.0,0.0,0.0,0.0,0.0,0.0,0.0,0.0,0.0,0.0,0.0,0.0,0.0,0.0,0.0,0.0,0.0,0.0,0.0,0.0,0.0,0.0,0.0,0.0,0.0,0.0,0.0,0.0,0.0,0.0,0.0,0.0,0.0,0.0,0.0,0.0,0.0,0.0,0.0,0.0,0.0,0.0,0.0,0.0,0.0,0.0,0.0,0.0,0.0,0.0,0.0,0.0,0.0,0.0,0.0,0.0,0.0,0.0,0.0,0.0,0.0,0.0,0.0,0.0,0.0,0.0,0.0,0.0,0.0,0.0,0.0,0.0,0.0,0.0,0.0,0.0,0.0,0.0,0.0,0.0,-2.1085,-2.272,-2.1976,0.0,-2.0063,0.0,0.0,0.0,0.0,0.0,0.0,0.0,0.0,0.0,0.0,0.0,0.0,0.0,0.0,0.0,0.0,0.0,0.0,0.0,0.0,0.0,0.0,0.0,0.0,0.0,0.0,0.0,0.0,0.0,0.0,0.0,0.0,0.0,0.0,0.0,0.0,0.0,0.0,0.0,0.0,0.0,0.0,0.0,0.0,0.0,0.0,0.0,0.0,0.0,0.0,0.0,0.0,0.0,0.0,0.0,0.0,0.0,0.0,0.0,0.0,0.0,0.0,0.0,0.0,0.0,0.0,0.0,0.0,0.0,0.0,0.0,0.0,0.0,0.0,0.0,0.0,0.0,0.0,0.0,0.0,0.0,0.0,0.0,0.0,0.0,0.0,0.0,0.0,0.0,0.0,0.0,0.0,0.0,0.0,0.0,0.0,0.0,0.0,0.0,0.0,0.0,0.0,0.0,0.0,0.0,0.0,0.0,0.0,0.0,0.0,-2.063,-2.2524,-2.1982,-2.0866,0.0,0.0,0.0,0.0,0.0,0.0,0.0,0.0,0.0,0.0,0.0,0.0,0.0,0.0,0.0,0.0,0.0,0.0,0.0,0.0,0.0,0.0,0.0,0.0,0.0,0.0,0.0,0.0,0.0,0.0,0.0,0.0,0.0,0.0,0.0,0.0,0.0,0.0,0.0,0.0,0.0,0.0,0.0,0.0,0.0,0.0,0.0,0.0,0.0,0.0,0.0,0.0,0.0,0.0,0.0,0.0,0.0,0.0,0.0,0.0,0.0,0.0,0.0,0.0,0.0,0.0,0.0,0.0,0.0,0.0,0.0,0.0,0.0,0.0,0.0,0.0,0.0,0.0,0.0,0.0,0.0,0.0,0.0,0.0,0.0,0.0,0.0,0.0,0.0,0.0,0.0,0.0,0.0,0.0,0.0,0.0,0.0,0.0,0.0,0.0,0.0,0.0,0.0,0.0,0.0,0.0,0.0,0.0,0.0,0.0,-2.055,-2.079,-2.2154,-2.1123,-1.9914,-1.8742,0.0,0.0,0.0,0.0,0.0,0.0,0.0,0.0,0.0,0.0,0.0,0.0,0.0,0.0,0.0,0.0,0.0,0.0,0.0,0.0,0.0,0.0,0.0,0.0,0.0,0.0,0.0,0.0,0.0,0.0,0.0,0.0,0.0,0.0,0.0,0.0,0.0,0.0,0.0,0.0,0.0,0.0,0.0,0.0,0.0,0.0,0.0,0.0,0.0,0.0,0.0,0.0,0.0,0.0,0.0,0.0,0.0,0.0,0.0,0.0,0.0,0.0,0.0,0.0,0.0,0.0,0.0,0.0,0.0,0.0,0.0,0.0,0.0,0.0,0.0,0.0,0.0,0.0,0.0,0.0,0.0,0.0,0.0,0.0,0.0,0.0,0.0,0.0,0.0,0.0,0.0,0.0,0.0,0.0,0.0,0.0,0.0,0.0,0.0,0.0,0.0,0.0,0.0,0.0,0.0,0.0,0.0,0.0,-2.4353,-2.2692,-2.1899,-2.2165,-1.9159,-1.804,0.0,0.0,0.0,0.0,0.0,0.0,0.0,0.0,0.0,0.0,0.0,0.0,0.0,0.0,0.0,0.0,0.0,0.0,0.0,0.0,0.0,0.0,0.0,0.0,0.0,0.0,0.0,0.0,0.0,0.0,0.0,0.0,0.0,0.0,0.0,0.0,0.0,0.0,0.0,0.0,0.0,0.0,0.0,0.0,0.0,0.0,0.0,0.0,0.0,0.0,0.0,0.0,0.0,0.0,0.0,0.0,0.0,0.0,0.0,0.0,0.0,0.0,0.0,0.0,0.0,0.0,0.0,0.0,0.0,0.0,0.0,0.0,0.0,0.0,0.0,0.0,0.0,0.0,0.0,0.0,0.0,0.0,0.0,0.0,0.0,0.0,0.0,0.0,0.0,0.0,0.0,0.0,0.0,0.0,0.0,0.0,0.0,0.0,0.0,0.0,0.0,0.0,0.0,0.0,0.0,0.0,0.0,0.0,0.0,-2.1008,-2.0965,-2.0632,-2.0123,-1.9263,-1.8693,0.0,0.0,0.0,0.0,0.0,0.0,0.0,0.0,0.0,0.0,0.0,0.0,0.0,0.0,0.0,0.0,0.0,0.0,0.0,0.0,0.0,0.0,0.0,0.0,0.0,0.0,0.0,0.0,0.0,0.0,0.0,0.0,0.0,0.0,0.0,0.0,0.0,0.0,0.0,0.0,0.0,0.0,0.0,0.0,0.0,0.0,0.0,0.0,0.0,0.0,0.0,0.0,0.0,0.0,0.0,0.0,0.0,0.0,0.0,0.0,0.0,0.0,0.0,0.0,0.0,0.0,0.0,0.0,0.0,0.0,0.0,0.0,0.0,0.0,0.0,0.0,0.0,0.0,0.0,0.0,0.0,0.0,0.0,0.0,0.0,0.0,0.0,0.0,0.0,0.0,0.0,0.0,0.0,0.0,0.0,0.0,0.0,0.0,0.0,0.0,0.0,0.0,0.0,0.0,0.0,0.0,0.0,0.0,0.0,-1.9767,0.0,-2.0697,0.0,-1.9353,-1.868,0.0,0.0,0.0,0.0,0.0,0.0,0.0,0.0,0.0,0.0,0.0,0.0,0.0,0.0,0.0,0.0,0.0,0.0,0.0,0.0,0.0,0.0,0.0,0.0,0.0,0.0,0.0,0.0,0.0,0.0,0.0,0.0,0.0,0.0,0.0,0.0,0.0,0.0,0.0,0.0,0.0,0.0,0.0,0.0,0.0,0.0,0.0,0.0,0.0,0.0,0.0,0.0,0.0,0.0,0.0,0.0,0.0,0.0,0.0,0.0,0.0,0.0,0.0,0.0,0.0,0.0,0.0,0.0,0.0,0.0,0.0,0.0,0.0,0.0,0.0,0.0,0.0,0.0,0.0,0.0,0.0,0.0,0.0,0.0,0.0,0.0,0.0,0.0,0.0,0.0,0.0,0.0,0.0,0.0,0.0,0.0,0.0,0.0,0.0,0.0,0.0,0.0,0.0,0.0,0.0,0.0,0.0,0.0,-1.9251,-2.1322,-2.2275,-2.2169,-2.128,-1.9176,-1.7811,0.0,0.0,0.0,0.0,0.0,0.0,0.0,0.0,0.0,0.0,0.0,0.0,0.0,0.0,0.0,0.0,0.0,0.0,0.0,0.0,0.0,0.0,0.0,0.0,0.0,0.0,0.0,0.0,0.0,0.0,0.0,0.0,0.0,0.0,0.0,0.0,0.0,0.0,0.0,0.0,0.0,0.0,0.0,0.0,0.0,0.0,0.0,0.0,0.0,0.0,0.0,0.0,0.0,0.0,0.0,0.0,0.0,0.0,0.0,0.0,0.0,0.0,0.0,0.0,0.0,0.0,0.0,0.0,0.0,0.0,0.0,0.0,0.0,0.0,0.0,0.0,0.0,0.0,0.0,0.0,0.0,0.0,0.0,0.0,0.0,0.0,0.0,0.0,0.0,0.0,0.0,0.0,0.0,0.0,0.0,0.0,0.0,0.0,0.0,0.0,0.0,0.0,0.0,0.0,0.0,0.0,0.0,0.0,0.0,-1.7786,-1.8885,-2.0021,-2.0939,-1.8662,-1.8001,0.0,0.0,0.0,0.0,0.0,0.0,0.0,0.0,0.0,0.0,0.0,0.0,0.0,0.0,0.0,0.0,0.0,0.0,0.0,0.0,0.0,0.0,0.0,0.0,0.0,0.0,0.0,0.0,0.0,0.0,0.0,0.0,0.0,0.0,0.0,0.0,0.0,0.0,0.0,0.0,0.0,0.0,0.0,0.0,0.0,0.0,0.0,0.0,0.0,0.0,0.0,0.0,0.0,0.0,0.0,0.0,0.0,0.0,0.0,0.0,0.0,0.0,0.0,0.0,0.0,0.0,0.0,0.0,0.0,0.0,0.0,0.0,0.0,0.0,0.0,0.0,0.0,0.0,0.0,0.0,0.0,0.0,0.0,0.0,0.0,0.0,0.0,0.0,0.0,0.0,0.0,0.0,0.0,0.0,0.0,0.0,0.0,0.0,0.0,0.0,0.0,0.0,0.0,0.0,0.0,0.0,0.0,0.0,0.0,-1.7567,-1.9141,-2.0468,-2.1262,-1.9308,-1.8613,-1.9304,0.0,0.0,0.0,0.0,0.0,0.0,0.0,0.0,0.0,0.0,0.0,0.0,0.0,0.0,0.0,0.0,0.0,0.0,0.0,0.0,0.0,0.0,0.0,0.0,0.0,0.0,0.0,0.0,0.0,0.0,0.0,0.0,0.0,0.0,0.0,0.0,0.0,0.0,0.0,0.0,0.0,0.0,0.0,0.0,0.0,0.0,0.0,0.0,0.0,0.0,0.0,0.0,0.0,0.0,0.0,0.0,0.0,0.0,0.0,0.0,0.0,0.0,0.0,0.0,0.0,0.0,0.0,0.0,0.0,0.0,0.0,0.0,0.0,0.0,0.0,0.0,0.0,0.0,0.0,0.0,0.0,0.0,0.0,0.0,0.0,0.0,0.0,0.0,0.0,0.0,0.0,0.0,0.0,0.0,0.0,0.0,0.0,0.0,0.0,0.0,0.0,0.0,0.0,0.0,0.0,0.0,0.0,0.0,-1.9872,-2.248,-2.3181,-2.1871,-2.0911,-1.9585,0.0,0.0,0.0,0.0,0.0,0.0,0.0,0.0,0.0,0.0,0.0,0.0,0.0,0.0,0.0,0.0,0.0,0.0,0.0,0.0,0.0,0.0,0.0,0.0,0.0,0.0,0.0,0.0,0.0,0.0,0.0,0.0,0.0,0.0,0.0,0.0,0.0,0.0,0.0,0.0,0.0,0.0,0.0,0.0,0.0,0.0,0.0,0.0,0.0,0.0,0.0,0.0,0.0,0.0,0.0,0.0,0.0,0.0,0.0,0.0,0.0,0.0,0.0,0.0,0.0,0.0,0.0,0.0,0.0,0.0,0.0,0.0,0.0,0.0,0.0,0.0,0.0,0.0,0.0,0.0,0.0,0.0,0.0,0.0,0.0,0.0,0.0,0.0,0.0,0.0,0.0,0.0,0.0,0.0,0.0,0.0,0.0,0.0,0.0,0.0,0.0,0.0,0.0,0.0,0.0,0.0,0.0,0.0,0.0,-2.1912,-2.396,-2.4587,-2.3472,-2.154,-2.0466,0.0,0.0,0.0,0.0,0.0,0.0,0.0,0.0,0.0,0.0,0.0,0.0,0.0,0.0,0.0,0.0,0.0,0.0,0.0,0.0,0.0,0.0,0.0,0.0,0.0,0.0,0.0,0.0,0.0,0.0,0.0,0.0,0.0,0.0,0.0,0.0,0.0,0.0,0.0,0.0,0.0,0.0,0.0,0.0,0.0,0.0,0.0,0.0,0.0,0.0,0.0,0.0,0.0,0.0,0.0,0.0,0.0,0.0,0.0,0.0,0.0,0.0,0.0,0.0,0.0,0.0,0.0,0.0,0.0,0.0,0.0,0.0,0.0,0.0,0.0,0.0,0.0,0.0,0.0,0.0,0.0,0.0,0.0,0.0,0.0,0.0,0.0,0.0,0.0,0.0,0.0,0.0,0.0,0.0,0.0,0.0,0.0,0.0,0.0,0.0,0.0,0.0,0.0,0.0,0.0,0.0,0.0,0.0,-2.2088,-2.3055,-2.548,-2.6203,-2.5162,-2.3298,-2.1695,0.0,0.0,0.0,0.0,0.0,0.0,0.0,0.0,0.0,0.0,0.0,0.0,0.0,0.0,0.0,0.0,0.0,0.0,0.0,0.0,0.0,0.0,0.0,0.0,0.0,0.0,0.0,0.0,0.0,0.0,0.0,0.0,0.0,0.0,0.0,0.0,0.0,0.0,0.0,0.0,0.0,0.0,0.0,0.0,0.0,0.0,0.0,0.0,0.0,0.0,0.0,0.0,0.0,0.0,0.0,0.0,0.0,0.0,0.0,0.0,0.0,0.0,0.0,0.0,0.0,0.0,0.0,0.0,0.0,0.0,0.0,0.0,0.0,0.0,0.0,0.0,0.0,0.0,0.0,0.0,0.0,0.0,0.0,0.0,0.0,0.0,0.0,0.0,0.0,0.0,0.0,0.0,0.0,0.0,0.0,0.0,0.0,0.0,0.0,0.0,0.0,0.0,0.0,0.0,0.0,0.0,0.0,0.0,-2.2948,-2.3734,-2.6685,-2.7685,-2.6585,-2.5302,-2.2938,0.0,0.0,0.0,0.0,0.0,0.0,0.0,0.0,0.0,0.0,0.0,0.0,0.0,0.0,0.0,0.0,0.0,0.0,0.0,0.0,0.0,0.0,0.0,0.0,0.0,0.0,0.0,0.0,0.0,0.0,0.0,0.0,0.0,0.0,0.0,0.0,0.0,0.0,0.0,0.0,0.0,0.0,0.0,0.0,0.0,0.0,0.0,0.0,0.0,0.0,0.0,0.0,0.0,0.0,0.0,0.0,0.0,0.0,0.0,0.0,0.0,0.0,0.0,0.0,0.0,0.0,0.0,0.0,0.0,0.0,0.0,0.0,0.0,0.0,0.0,0.0,0.0,0.0,0.0,0.0,0.0,0.0,0.0,0.0,0.0,0.0,0.0,0.0,0.0,0.0,0.0,0.0,0.0,0.0,0.0,0.0,0.0,0.0,0.0,0.0,0.0,0.0,0.0,0.0,0.0,0.0,0.0,0.0,-2.2994,-2.4058,-2.6585,-2.7576,-2.681,-2.4681,-2.2548,0.0,0.0,0.0,0.0,0.0,0.0,0.0,0.0,0.0,0.0,0.0,0.0,0.0,0.0,0.0,0.0,0.0,0.0,0.0,0.0,0.0,0.0,0.0,0.0,0.0,0.0,0.0,0.0,0.0,0.0,0.0,0.0,0.0,0.0,0.0,0.0,0.0,0.0,0.0,0.0,0.0,0.0,0.0,0.0,0.0,0.0,0.0,0.0,-1.5656,0.0,0.0,0.0,0.0,0.0,0.0,0.0,0.0,0.0,0.0,0.0,0.0,0.0,0.0,0.0,0.0,0.0,0.0,0.0,0.0,0.0,0.0,0.0,0.0,0.0,0.0,0.0,0.0,0.0,0.0,0.0,0.0,0.0,0.0,0.0,0.0,0.0,0.0,0.0,0.0,0.0,0.0,0.0,0.0,0.0,0.0,0.0,0.0,0.0,0.0,0.0,0.0,0.0,0.0,0.0,0.0,0.0,0.0,0.0,-2.2592,-2.4836,-2.6479,-2.7154,-2.6765,-2.4315,-2.2325,0.0,0.0,0.0,0.0,0.0,0.0,0.0,0.0,0.0,0.0,0.0,0.0,0.0,0.0,0.0,0.0,0.0,0.0,0.0,0.0,0.0,0.0,0.0,0.0,0.0,0.0,0.0,0.0,0.0,0.0,0.0,0.0,0.0,0.0,0.0,0.0,0.0,0.0,0.0,0.0,0.0,0.0,0.0,0.0,0.0,0.0,0.0,0.0,0.0,0.0,0.0,0.0,0.0,0.0,0.0,0.0,0.0,0.0,0.0,0.0,0.0,0.0,0.0,0.0,0.0,0.0,0.0,0.0,0.0,0.0,0.0,0.0,0.0,0.0,0.0,0.0,0.0,0.0,0.0,0.0,0.0,0.0,0.0,0.0,0.0,0.0,0.0,0.0,0.0,0.0,0.0,0.0,0.0,0.0,0.0,0.0,0.0,0.0,0.0,0.0,0.0,0.0,0.0,0.0,0.0,0.0,0.0,-2.0312,-2.2147,-2.5409,-2.6155,-2.6458,-2.642,-2.3914,-2.2065,-2.099,0.0,0.0,0.0,0.0,0.0,0.0,0.0,0.0,0.0,0.0,0.0,0.0,0.0,0.0,0.0,0.0,0.0,0.0,0.0,0.0,0.0,0.0,0.0,0.0,0.0,0.0,0.0,0.0,0.0,0.0,0.0,0.0,0.0,0.0,0.0,0.0,0.0,0.0,-1.0601,-1.109,0.0,0.0,0.0,0.0,0.0,0.0,0.0,0.0,-1.5636,0.0,0.0,0.0,0.0,0.0,0.0,0.0,0.0,0.0,0.0,0.0,0.0,0.0,0.0,0.0,0.0,0.0,0.0,0.0,0.0,0.0,0.0,0.0,0.0,0.0,0.0,0.0,0.0,0.0,0.0,0.0,0.0,0.0,0.0,0.0,0.0,0.0,0.0,0.0,0.0,0.0,0.0,0.0,0.0,0.0,0.0,0.0,0.0,0.0,0.0,0.0,0.0,0.0,0.0,0.0,0.0,-1.9685,-2.0213,-2.1825,-2.456,-2.5184,-2.5511,-2.5451,-2.2965,-2.115,-2.0292,0.0,0.0,0.0,0.0,0.0,0.0,0.0,0.0,0.0,0.0,0.0,0.0,0.0,0.0,0.0,0.0,0.0,0.0,0.0,0.0,0.0,0.0,0.0,0.0,0.0,0.0,0.0,0.0,0.0,0.0,0.0,0.0,0.0,0.0,0.0,0.0,0.0,0.0,0.0,-1.1312,-1.1639,0.0,0.0,0.0,0.0,0.0,0.0,0.0,0.0,-1.5953,0.0,0.0,0.0,0.0,0.0,0.0,0.0,0.0,0.0,0.0,0.0,0.0,0.0,0.0,0.0,0.0,0.0,0.0,0.0,0.0,0.0,0.0,0.0,0.0,0.0,0.0,0.0,0.0,0.0,0.0,0.0,0.0,0.0,0.0,0.0,0.0,0.0,0.0,0.0,0.0,0.0,0.0,0.0,0.0,0.0,0.0,0.0,0.0,0.0,0.0,0.0,0.0,0.0,0.0,0.0,-1.9262,-1.9737,-2.1416,-2.4342,-2.459,-2.459,-2.4296,-2.2062,-2.0335,0.0,0.0,0.0,0.0,0.0,0.0,0.0,0.0,0.0,0.0,0.0,0.0,0.0,0.0,0.0,0.0,0.0,0.0,0.0,0.0,0.0,0.0,0.0,0.0,0.0,0.0,0.0,0.0,0.0,0.0,0.0,0.0,0.0,0.0,0.0,0.0,0.0,0.0,0.0,0.0,-1.168,-1.1872,-1.2192,0.0,0.0,0.0,0.0,0.0,0.0,-1.598,-1.5917,0.0,0.0,0.0,0.0,0.0,0.0,0.0,0.0,0.0,0.0,0.0,0.0,0.0,0.0,0.0,0.0,0.0,0.0,0.0,0.0,0.0,0.0,0.0,0.0,0.0,0.0,0.0,0.0,0.0,0.0,0.0,0.0,0.0,0.0,0.0,0.0,0.0,0.0,0.0,0.0,0.0,0.0,0.0,0.0,0.0,0.0,0.0,0.0,0.0,0.0,0.0,0.0,0.0,0.0,0.0,-1.8771,-1.9221,-2.0879,-2.3789,-2.3789,-2.3527,-2.3026,-2.1236,-1.9546,0.0,0.0,0.0,0.0,0.0,0.0,0.0,0.0,0.0,0.0,0.0,0.0,0.0,0.0,0.0,0.0,0.0,0.0,0.0,0.0,0.0,0.0,0.0,0.0,0.0,0.0,0.0,0.0,0.0,0.0,0.0,0.0,0.0,0.0,0.0,0.0,0.0,0.0,0.0,0.0,0.0,-1.2254,-1.2598,-1.3117,0.0,0.0,0.0,0.0,-1.6357,-1.6444,0.0,0.0,0.0,0.0,0.0,0.0,0.0,0.0,0.0,0.0,0.0,0.0,0.0,0.0,0.0,0.0,0.0,0.0,0.0,0.0,0.0,0.0,0.0,0.0,0.0,0.0,0.0,0.0,0.0,0.0,0.0,0.0,0.0,0.0,0.0,0.0,0.0,0.0,0.0,0.0,0.0,0.0,0.0,0.0,0.0,0.0,0.0,0.0,0.0,0.0,0.0,0.0,0.0,0.0,0.0,0.0,-1.806,-1.8988,-2.0216,-2.1871,-2.2353,-2.2303,-2.1809,-2.0325,-1.9021,0.0,0.0,0.0,0.0,0.0,0.0,0.0,0.0,0.0,0.0,0.0,0.0,0.0,0.0,0.0,0.0,0.0,0.0,0.0,0.0,0.0,0.0,0.0,0.0,0.0,0.0,0.0,0.0,0.0,0.0,0.0,0.0,0.0,0.0,0.0,0.0,0.0,0.0,0.0,0.0,0.0,-1.261,-1.2926,-1.3287,-1.3906,0.0,0.0,0.0,-1.6143,-1.7637,0.0,0.0,0.0,0.0,0.0,0.0,0.0,0.0,0.0,0.0,0.0,0.0,0.0,0.0,0.0,0.0,0.0,0.0,0.0,0.0,0.0,0.0,0.0,0.0,0.0,0.0,0.0,0.0,0.0,0.0,0.0,0.0,0.0,0.0,0.0,0.0,0.0,0.0,0.0,0.0,0.0,0.0,0.0,0.0,0.0,0.0,0.0,0.0,0.0,0.0,0.0,0.0,0.0,0.0,0.0,-1.5951,-1.7158,-1.8643,-1.9856,-2.0751,-2.1505,-2.1538,-2.0784,-1.9615,-1.8425,0.0,0.0,0.0,0.0,0.0,0.0,0.0,0.0,0.0,0.0,0.0,0.0,0.0,0.0,0.0,0.0,0.0,0.0,0.0,0.0,0.0,0.0,0.0,0.0,0.0,0.0,0.0,0.0,0.0,0.0,0.0,0.0,0.0,0.0,0.0,0.0,0.0,0.0,0.0,0.0,0.0,0.0,-1.2776,-1.3099,0.0,0.0,0.0,-1.5901,-1.6678,0.0,0.0,0.0,0.0,0.0,0.0,0.0,0.0,0.0,0.0,0.0,0.0,0.0,0.0,0.0,0.0,0.0,0.0,0.0,0.0,0.0,0.0,0.0,0.0,0.0,0.0,0.0,0.0,0.0,0.0,0.0,0.0,0.0,0.0,0.0,0.0,0.0,0.0,0.0,0.0,0.0,0.0,0.0,0.0,0.0,0.0,0.0,0.0,0.0,0.0,0.0,0.0,0.0,0.0,0.0,0.0,0.0,-1.6535,-1.8316,-1.9473,-1.99,-2.0675,-2.0697,-1.9911,-1.9026,0.0,0.0,0.0,0.0,0.0,0.0,0.0,0.0,0.0,0.0,0.0,0.0,0.0,0.0,0.0,0.0,0.0,0.0,0.0,0.0,0.0,0.0,0.0,0.0,0.0,0.0,0.0,-1.0522,0.0,0.0,0.0,0.0,0.0,0.0,0.0,0.0,0.0,0.0,0.0,0.0,0.0,0.0,-1.3292,-1.2995,-1.326,-1.3704,0.0,0.0,-1.556,-1.6667,-1.7053,-1.7195,0.0,0.0,0.0,0.0,0.0,0.0,0.0,0.0,0.0,0.0,0.0,0.0,0.0,0.0,0.0,0.0,0.0,0.0,0.0,0.0,0.0,0.0,0.0,0.0,0.0,0.0,0.0,0.0,0.0,0.0,0.0,0.0,0.0,0.0,0.0,0.0,0.0,0.0,0.0,0.0,0.0,0.0,0.0,0.0,0.0,0.0,0.0,0.0,0.0,0.0,0.0,0.0,0.0,0.0,0.0,-1.6557,-1.7988,-1.8971,-1.9441,-1.9528,-1.9528,-1.9462,-1.8545,-1.7562,0.0,0.0,0.0,0.0,0.0,0.0,0.0,0.0,0.0,0.0,0.0,0.0,0.0,0.0,0.0,0.0,0.0,0.0,0.0,0.0,0.0,0.0,0.0,0.0,0.0,0.0,0.0,0.0,0.0,0.0,0.0,0.0,0.0,0.0,0.0,0.0,0.0,0.0,0.0,0.0,0.0,-1.3986,-1.3966,-1.4308,-1.4755,0.0,0.0,-1.5486,-1.5551,-1.6951,-1.7295,-1.5245,0.0,0.0,0.0,0.0,0.0,0.0,0.0,0.0,0.0,0.0,0.0,0.0,0.0,0.0,0.0,0.0,0.0,0.0,0.0,0.0,0.0,0.0,0.0,0.0,0.0,0.0,0.0,0.0,0.0,0.0,0.0,0.0,0.0,0.0,0.0,0.0,0.0,0.0,0.0,0.0,0.0,0.0,0.0,0.0,0.0,0.0,0.0,0.0,0.0,0.0,0.0,0.0,0.0,-1.581,-1.6057,-1.7518,-1.8359,-1.8545,-1.8818,-1.884,-1.8556,-1.8196,-1.7409,0.0,0.0,0.0,0.0,0.0,0.0,0.0,0.0,0.0,0.0,0.0,0.0,0.0,0.0,0.0,0.0,0.0,0.0,0.0,0.0,0.0,0.0,0.0,0.0,0.0,0.0,0.0,0.0,-1.0522,-1.0689,-1.105,0.0,0.0,0.0,0.0,0.0,0.0,0.0,0.0,0.0,0.0,-1.414,-1.4367,-1.4749,0.0,0.0,-1.6114,-1.6487,-1.6696,-1.713,-1.7081,-1.6182,-1.5327,0.0,0.0,0.0,0.0,0.0,0.0,0.0,0.0,0.0,0.0,0.0,0.0,0.0,0.0,0.0,0.0,0.0,0.0,0.0,0.0,0.0,0.0,0.0,0.0,0.0,0.0,0.0,0.0,0.0,0.0,0.0,0.0,0.0,0.0,0.0,0.0,0.0,0.0,0.0,0.0,0.0,0.0,0.0,0.0,0.0,0.0,0.0,0.0,0.0,0.0,0.0,0.0,-1.5734,-1.5796,-1.7125,-1.7857,-1.801,-1.8174,-1.8185,-1.801,-1.7868,-1.7169,0.0,0.0,0.0,0.0,0.0,0.0,0.0,0.0,0.0,0.0,0.0,0.0,0.0,0.0,0.0,0.0,0.0,0.0,0.0,0.0,0.0,0.0,0.0,0.0,0.0,0.0,0.0,0.0,-1.0522,-1.0701,-1.1281,0.0,0.0,0.0,0.0,0.0,0.0,0.0,0.0,0.0,0.0,-1.4204,-1.445,-1.4775,-1.508,-1.5341,-1.5745,-1.6067,-1.6403,-1.6197,-1.5953,-1.5642,0.0,0.0,0.0,0.0,0.0,0.0,0.0,0.0,0.0,0.0,0.0,0.0,0.0,0.0,0.0,0.0,0.0,0.0,0.0,0.0,0.0,0.0,0.0,0.0,0.0,0.0,0.0,0.0,0.0,0.0,0.0,0.0,0.0,0.0,0.0,0.0,0.0,0.0,0.0,0.0,0.0,0.0,0.0,0.0,0.0,0.0,0.0,0.0,0.0,0.0,0.0,0.0,0.0,-1.5672,-1.5807,-1.6819,-1.7529,-1.7966,-1.7551,-1.754,-1.7966,-1.7551,-1.6841,-1.5818,0.0,0.0,0.0,0.0,0.0,0.0,0.0,0.0,0.0,0.0,0.0,0.0,0.0,0.0,0.0,0.0,0.0,0.0,0.0,0.0,0.0,0.0,0.0,0.0,0.0,0.0,-1.0522,-1.0522,-1.0673,0.0,0.0,0.0,0.0,0.0,0.0,0.0,0.0,0.0,0.0,-1.368,-1.4117,-1.4132,-1.4418,-1.4649,-1.4649,-1.4138,-1.3757,-1.3782,-1.4015,-1.3827,0.0,0.0,0.0,0.0,0.0,0.0,0.0,0.0,0.0,0.0,0.0,0.0,0.0,0.0,0.0,0.0,0.0,0.0,0.0,0.0,0.0,0.0,0.0,0.0,0.0,0.0,0.0,0.0,0.0,0.0,0.0,0.0,0.0,0.0,0.0,0.0,0.0,0.0,0.0,0.0,-1.7278,-1.7278,0.0,0.0,0.0,0.0,0.0,0.0,0.0,0.0,0.0,0.0,0.0,0.0,-1.5812,-1.6295,-1.695,-1.7355,-1.7508,-1.7355,-1.7355,-1.7518,-1.7366,-1.6819,-1.5818,0.0,0.0,0.0,0.0,0.0,0.0,0.0,0.0,0.0,0.0,0.0,0.0,0.0,0.0,0.0,0.0,0.0,0.0,0.0,0.0,0.0,0.0,0.0,0.0,0.0,-1.0522,0.0,0.0,0.0,0.0,0.0,0.0,0.0,0.0,0.0,0.0,0.0,-1.2957,-1.3076,-1.368,-1.4117,-1.4117,-1.4614,-1.4909,0.0,0.0,0.0,0.0,0.0,0.0,0.0,0.0,0.0,0.0,0.0,0.0,0.0,0.0,-1.3566,-1.3147,-1.298,-1.3028,-1.3354,0.0,0.0,0.0,0.0,0.0,0.0,0.0,0.0,0.0,0.0,0.0,0.0,0.0,0.0,0.0,0.0,-1.7355,0.0,0.0,0.0,0.0,0.0,0.0,0.0,0.0,-1.7278,-1.7278,-1.7278,-1.7278,-1.7103,0.0,-1.7125,-1.695,0.0,0.0,0.0,0.0,0.0,0.0,0.0,0.0,-1.6103,-1.6525,-1.7016,-1.7278,-1.7278,-1.7278,-1.7278,-1.7278,-1.6993,-1.6418,-1.559,-1.4379,-1.3591,0.0,0.0,0.0,0.0,0.0,0.0,0.0,0.0,0.0,0.0,0.0,0.0,0.0,0.0,0.0,0.0,0.0,0.0,0.0,0.0,0.0,0.0,0.0,-1.0522,0.0,0.0,0.0,0.0,0.0,0.0,0.0,0.0,0.0,-1.2703,-1.2838,-1.3092,-1.3568,-1.3807,-1.4021,-1.426,0.0,0.0,0.0,0.0,0.0,0.0,0.0,-1.3794,-1.3983,-1.3868,-1.3745,-1.3627,-1.3795,-1.3843,-1.368,0.0,0.0,-1.334,-1.3308,-1.337,-1.3703,-1.3672,-1.3521,-1.3306,-1.3163,-1.2989,0.0,0.0,0.0,0.0,0.0,0.0,0.0,0.0,-1.8185,-1.7999,0.0,0.0,0.0,0.0,0.0,0.0,0.0,0.0,0.0,0.0,-1.7289,-1.7289,-1.7333,-1.73,-1.7289,-1.73,-1.7289,-1.7267,-1.7234,-1.6776,0.0,0.0,0.0,0.0,0.0,0.0,-1.6525,-1.6568,-1.7027,-1.7278,-1.7278,-1.7278,-1.7278,-1.7267,-1.6415,-1.5678,-1.5216,-1.4081,-1.3198,-1.2773,-1.2351,0.0,0.0,0.0,0.0,0.0,0.0,0.0,0.0,0.0,0.0,0.0,0.0,0.0,0.0,0.0,0.0,0.0,0.0,0.0,0.0,-1.0522,0.0,0.0,0.0,0.0,0.0,0.0,0.0,0.0,0.0,0.0,-1.3092,-1.2838,-1.3092,-1.4426,0.0,0.0,0.0,0.0,-1.3727,-1.4045,-1.3815,-1.3719,-1.4029,-1.4077,-1.3966,-1.3656,0.0,0.0,-1.3705,-1.3661,-1.3632,-1.36,-1.3632,-1.3637,-1.363,-1.3582,-1.3711,-1.4045,-1.3878,-1.364,-1.3561,-1.333,-1.302,-2.1836,0.0,0.0,0.0,0.0,-1.8906,-1.8698,-1.8654,-1.8206,-1.801,-1.7977,-1.7486,0.0,0.0,0.0,0.0,0.0,0.0,-1.7475,-1.777,-1.7442,-1.7628,-1.825,-1.7595,-1.7453,-1.7781,-1.7442,-1.7278,-1.7278,-1.7136,-1.6809,-1.6339,0.0,0.0,0.0,0.0,-1.6645,-1.7049,-1.7202,-1.7278,-1.7278,-1.7278,-1.7278,-1.7278,-1.7025,-1.6481,-1.5668,-1.506,-1.4231,-1.3217,-1.2753,0.0,0.0,0.0,0.0,0.0,0.0,0.0,0.0,0.0,0.0,0.0,0.0,0.0,0.0,0.0,0.0,0.0,0.0,0.0,-1.0522,-1.0522,-1.0566,0.0,0.0,0.0,0.0,0.0,0.0,0.0,0.0,0.0,-1.3703,-1.3513,-1.3529,0.0,0.0,-1.4037,-1.4236,-1.4093,-1.3902,-1.3759,0.0,0.0,0.0,-1.3735,-1.3783,-1.3934,-1.4253,-1.4482,-1.4729,-1.4474,-1.426,-1.4013,-1.4164,-1.4228,-1.397,-1.3954,-1.4077,-1.4387,-1.4403,-1.4164,-1.3696,-1.3497,-1.3332,-2.3936,-2.2745,-2.1066,-2.0605,-2.0885,-2.009,-1.975,-1.9644,-1.8731,-1.8336,-1.8245,-1.7599,-1.7278,-1.7278,-1.7278,0.0,0.0,0.0,-1.7431,-1.7704,-1.742,-1.7584,-1.8065,-1.754,-1.7431,-1.7693,-1.742,-1.7278,-1.7278,-1.7278,-1.7125,-1.683,0.0,0.0,-1.6819,-1.6776,-1.6917,-1.7267,-1.7278,-1.7278,-1.7278,-1.7278,-1.7211,-1.7043,-1.6864,-1.6294,-1.5385,-1.4933,-1.4221,-1.3124,-1.2828,-1.2437,0.0,0.0,0.0,0.0,0.0,0.0,0.0,0.0,0.0,0.0,0.0,-1.0522,-1.0522,0.0,0.0,0.0,-1.0522,-1.0577,-1.0713,-1.0601,0.0,0.0,0.0,0.0,0.0,0.0,0.0,-1.3068,-1.302,-1.3259,-1.3997,-1.3926,-1.3974,-1.4466,-1.4291,-1.4212,-1.4498,0.0,-1.4085,-1.4013,-1.418,-1.4244,-1.4037,-1.4005,-1.4077,-1.4283,-1.4498,-1.4649,-1.4904,-1.4737,-1.4569,-1.4403,-1.449,-1.4577,-1.4363,-1.4315,-1.4379,-1.4593,-1.4705,-1.4654,-1.4174,-1.4014,-1.3868,-2.6123,-2.4953,-2.2733,-2.2213,-2.2889,-2.1825,-2.1356,-2.1224,-1.9634,-1.8965,-1.8828,-1.7812,-1.7311,-1.7278,-1.7278,0.0,0.0,-1.7278,-1.7356,-1.7333,-1.7289,-1.7311,-1.7444,-1.7378,-1.73,-1.7344,-1.7289,-1.7278,-1.7278,-1.7278,-1.7278,-1.7278,-1.7278,-1.7278,-1.7278,-1.7278,-1.7278,-1.7278,-1.7278,-1.7278,-1.7278,-1.7278,-1.7099,-1.6637,-1.6161,-1.5568,-1.4675,-1.4213,-1.3608,-1.2773,-1.2718,-1.231,-1.1411,0.0,0.0,0.0,0.0,0.0,0.0,0.0,0.0,0.0,0.0,0.0,0.0,0.0,0.0,0.0,-1.0538,0.0,-1.101,-1.0793,0.0,0.0,0.0,-1.1678,-1.2059,-1.2695,-1.3116,-1.3163,0.0,0.0,0.0,0.0,-1.4395,-1.5054,-1.4569,-1.4403,-1.5086,-1.4585,-1.4275,-1.4482,-1.4553,-1.4561,-1.4498,-1.4506,-1.4506,-1.453,-1.4569,-1.4569,-1.4641,-1.4641,-1.4569,-1.4545,-1.4561,-1.4561,-1.4561,-1.4537,-1.4561,-1.4593,-1.4824,-1.5018,-1.4632,-1.4522,-1.4385,-2.6517,-2.6203,-2.5174,-2.4101,-2.3021,-2.2225,-2.1933,-2.1812,-2.0577,-2.0088,-1.9968,-1.8473,-1.7628,-1.7278,-1.7278,-1.7278,-1.7278,-1.7278,-1.7475,-1.7802,-1.7442,-1.766,-1.8305,-1.7606,-1.7475,-1.7791,-1.7464,-1.7278,-1.7278,-1.7278,-1.7278,-1.7278,-1.7278,-1.7278,-1.7278,-1.7278,-1.7278,-1.7278,-1.7278,-1.7278,-1.7278,-1.7278,-1.7099,-1.6627,-1.6513,-1.5995,-1.5081,-1.4974,-1.4241,-1.2914,-1.2878,-1.2493,-1.1663,-1.1226,0.0,0.0,0.0,0.0,0.0,0.0,0.0,0.0,0.0,-1.0756,-1.0538,0.0,-1.0764,0.0,-1.0709,-1.101,-1.1336,-1.1289,0.0,0.0,-1.1892,-1.2139,-1.2766,-1.2989,-1.329,-1.3807,-1.3934,-1.4117,-1.4474,-1.4522,-1.4506,-1.4672,-1.4553,-1.4681,-1.5102,-1.4808,-1.4546,-1.4545,-1.4569,-1.4569,-1.4569,-1.4569,-1.4569,-1.4569,-1.4569,-1.4569,-1.4569,-1.4569,-1.4569,-1.4569,-1.4569,-1.4569,-1.4569,-1.4569,-1.453,-1.4323,-1.4513,-1.4672,-1.4319,-1.4235,-1.4203,-2.7131,-2.6648,-2.6334,-2.548,-2.4246,-2.3374,-2.2992,-2.2857,-2.1474,-2.0798,-2.0514,-1.8815,-1.7733,-1.7289,-1.7278,-1.7278,-1.7278,-1.7278,-1.7431,-1.766,-1.7409,-1.7562,-1.8043,-1.7529,-1.742,-1.7671,-1.7409,-1.7278,-1.7289,-1.7508,-1.7595,-1.7606,-1.7802,-1.7912,-1.789,-1.7486,-1.7278,-1.7278,-1.7278,-1.7278,-1.7278,-1.7099,-1.6751,-1.6285,-1.6104,-1.5642,-1.4893,-1.4893,-1.4285,-1.2957,-1.2912,-1.244,-1.1429,-1.1074,-1.0922,0.0,0.0,0.0,0.0,0.0,0.0,0.0,0.0,0.0,0.0,0.0,-1.0979,0.0,0.0,0.0,-1.1694,-1.1582,-1.1694,-1.221,-1.2115,-1.2234,-1.2798,-1.3124,-1.3457,-1.3831,-1.4148,-1.4418,-1.4545,-1.4569,-1.4569,-1.4569,-1.4569,-1.4712,-1.4879,-1.476,-1.4569,-1.4569,-1.4569,-1.4569,-1.4569,-1.4569,-1.4569,-1.4569,-1.4569,-1.4569,-1.4569,-1.4569,-1.4569,-1.4569,-1.4569,-1.4633,-1.4848,-1.4856,-1.4846,-1.4928,-1.4985,-1.4985,-1.4681,-1.472,-1.4807,-2.768,-2.6569,-2.6713,-2.6412,-2.5759,-2.4831,-2.436,-2.4093,-2.2541,-2.138,-2.0565,-1.9155,-1.8155,-1.7467,-1.7523,-1.7478,-1.7366,-1.73,-1.7278,-1.7278,-1.7278,-1.7278,-1.7278,-1.7278,-1.7278,-1.7278,-1.7344,-1.7366,-1.7387,-1.7802,-1.8043,-1.8108,-1.8425,-1.8632,-1.8654,-1.7868,-1.7464,-1.7453,-1.7333,-1.73,-1.7298,-1.6896,-1.64,-1.5816,-1.5468,-1.5001,-1.4515,-1.4515,-1.4041,-1.3037,-1.2983,-1.2429,-1.1216,-1.1072,-1.091,0.0,-1.0617,0.0,0.0,0.0,0.0,0.0,0.0,0.0,0.0,-1.1066,-1.1201,-1.1527,-1.1551,-1.1702,-1.2059,-1.1805,-1.1876,-1.2533,-1.2282,-1.2234,-1.2599,-1.3163,-1.3553,-1.364,-1.4196,-1.4514,-1.4561,-1.4569,-1.4569,-1.4569,-1.4569,-1.4577,-1.4577,-1.4577,-1.4569,-1.4569,-1.4569,-1.4569,-1.4569,-1.4569,-1.4569,-1.4569,-1.4569,-1.4569,-1.4569,-1.4569,-1.4569,-1.4569,-1.4569,-1.4705,-1.5133,-1.5196,-1.5321,-1.5581,-1.5703,-1.5668,-1.5411,-1.5454,-1.5686,-2.7445,-2.6086,-2.6987,-2.6778,-2.585,-2.6073,-2.5667,-2.4792,-2.3882,-2.2412,-2.0576,-2.0779,-1.9985,-1.8578,-1.8623,-1.8362,-1.7846,-1.7464,-1.7278,-1.7278,-1.7278,-1.7278,-1.7278,-1.7278,-1.7278,-1.7356,-1.7682,-1.7868,-1.7879,-1.7955,-1.8196,-1.8545,-1.8283,-1.8316,0.0,0.0,0.0,0.0,-1.7671,-1.7294,-1.7291,-1.7237,-1.6581,-1.541,-1.5642,0.0,-1.4565,-1.4515,-1.4168,-1.3459,-1.3375,0.0,0.0,0.0,0.0,0.0,0.0,0.0,0.0,0.0,0.0,0.0,-1.1336,-1.1376,-1.1384,-1.14,-1.1543,-1.1876,-1.1924,-1.2067,-1.2417,-1.2469,-1.2477,-1.2597,-1.2557,-1.2591,-1.2949,-1.3108,-1.3386,-1.395,-1.4132,-1.4323,-1.4522,-1.4569,-1.4569,-1.4569,-1.4569,-1.4569,-1.4569,-1.4569,-1.4569,-1.4569,-1.4569,-1.4569,-1.4569,-1.4569,-1.4569,-1.4569,-1.4569,-1.4569,-1.4569,-1.4569,-1.4569,-1.4569,-1.4569,-1.4713,-1.5133,-1.5196,-1.5263,-1.5394,-1.5635,-1.5816,-1.5747,-1.5721,-1.5748,-2.7706,0.0,-2.7222,-2.7196,0.0,0.0,-2.6608,-2.5785,-2.5187,-2.3596,-2.1445,-2.1444,-2.0551,-1.8905,-1.8995,-1.8634,-1.8047,-1.7545,-1.7278,-1.7278,-1.7278,-1.7278,-1.7289,-1.7518,-1.7639,-1.766,-1.8119,-1.8338,-1.8348,-1.8578,-1.8818,-1.9037,-1.9058,-1.9179,-1.9397,-1.9168,-1.8938,-1.8698,-1.8217,-1.7744,-1.7322,-1.7101,-1.6396,-1.5245,0.0,0.0,0.0,0.0,0.0,0.0,0.0,0.0,0.0,0.0,0.0,-1.2206,-1.1787,-1.1478,-1.1527,-1.1487,-1.1567,-1.1741,-1.1916,-1.1948,-1.1765,-1.1916,-1.2091,-1.2266,-1.2289,-1.2361,-1.2597,-1.2621,-1.2621,-1.2621,-1.2621,-1.2701,-1.2814,-1.2989,-1.329,-1.3759,-1.4005,-1.4244,-1.4522,-1.4569,-1.4569,-1.4569,-1.4569,-1.4569,-1.4569,-1.4569,-1.4569,-1.4569,-1.4569,-1.4569,-1.4569,-1.4569,-1.4569,-1.4569,-1.4569,-1.4569,-1.4569,-1.4569,-1.4569,-1.4569,-1.4569,-1.4713,-1.5062,-1.5196,-1.535,-1.5705,-1.5922,-1.6123,-1.6263,-1.6193,-1.6009,-2.7994,-2.7392,-2.7417,-2.7404,-2.7379,-2.7417,-2.7196,-2.6778,0.0,0.0,0.0,-2.2223,-2.1081,-1.9594,-1.9274,-1.88,-1.8176,-1.7568,-1.7333,-1.7409,-1.7409,-1.7442,-1.7551,-1.7944,-1.8119,-1.8152,-1.86,-1.8818,-1.8829,-1.9222,-1.9473,-1.9572,-1.9867,-1.9987,-2.0042,-1.9683,-1.9342,-1.896,-1.8785,-1.8294,-1.7585,-1.7071,-1.6387,-1.5351,-1.4956,-1.4639,-1.4515,-1.4515,-1.4232,-1.3607,-1.3589,-1.3323,-1.2798,-1.2664,-1.2526,-1.236,-1.2254,-1.2076,-1.1784,-1.1735,-1.1863,-1.2099,-1.2393,-1.244,-1.2139,-1.2393,-1.2621,-1.2621,-1.2621,-1.2621,-1.2621,-1.2621,-1.2621,-1.2621,-1.2621,-1.2621,-1.2645,-1.2806,-1.3139,-1.3529,-1.3839,-1.418,-1.4498,-1.4569,-1.4569,-1.4569,-1.4569,-1.4569,-1.4569,-1.4569,-1.4569,-1.4569,-1.4569,-1.4569,-1.4569,-1.4569,-1.4569,-1.4569,-1.4569,-1.4569,-1.4569,-1.4569,-1.4569,-1.4569,-1.4569,-1.4776,-1.5196,-1.5338,-1.5559,-1.6272,-1.6421,-1.6482,-1.6769,-1.6621,-1.6383,-2.7771,-2.6831,-2.7194,-2.7116,-2.6831,-2.7194,-2.7351,-2.7327,-2.6282,-2.5344,-2.4627,-2.3995,-2.3026,-2.1711,-2.0341,-1.9309,-1.8668,-1.7734,-1.7497,0.0,-1.7912,-1.8119,-1.848,-1.8567,-1.8589,-1.8632,-1.9091,-1.931,-1.9321,-1.9386,-1.9637,-1.9878,-1.9639,-1.9672,-2.0042,-2.0009,-1.9944,-1.9868,-1.9113,-1.8606,-1.8491,-1.7988,-1.7083,-1.5875,-1.5674,-1.527,-1.4524,-1.4524,-1.43,-1.393,-1.393,-1.3903,-1.3782,-1.3241,-1.3156,-1.362,-1.3191,-1.2798,-1.28,-1.2772,-1.2736,-1.2541,-1.2597,-1.2605,-1.2496,-1.2589,-1.2621,-1.2621,-1.2621,-1.2621,-1.2621,-1.2621,-1.2621,-1.2621,-1.2621,-1.2621,-1.2621,-1.2677,-1.2901,-1.3505,-1.3616,-1.3926,-1.4443,-1.4569,-1.4569,-1.4569,-1.4569,-1.4569,-1.4569,-1.4569,-1.4569,-1.4569,-1.4569,-1.4569,-1.4569,-1.4569,-1.4569,-1.4569,-1.4569,-1.4569,-1.4569,-1.4641,-1.4641,-1.4641,-1.4641,-1.4919,-1.5559,-1.5692,-1.5974,-1.6542,-1.67,-1.676,-1.6908,-1.6839,-1.6811,-2.7618,-2.6945,-2.7031,-2.7072,-2.6906,-2.7165,-2.7335,-2.7351,-2.6922,-2.6242,-2.5432,-2.5158,-2.3991,-2.2143,-2.1149,-1.9977,-1.8726,-1.7767,-1.7409,-1.7606,-1.7606,-1.7868,-1.8316,-1.8567,-1.8829,-1.9102,-1.9583,-1.9812,-1.9748,-1.9748,-1.9857,-2.0064,-1.9857,-1.9868,-2.0064,-2.0085,-2.0085,-2.0074,-1.9361,-1.8797,-1.8232,-1.7728,-1.6899,-1.5855,-1.5729,-1.548,-1.4845,-1.4827,-1.4666,-1.4267,-1.4267,-1.4258,-1.4249,-1.3791,-1.3586,-1.3674,-1.3254,-1.2929,-1.2797,-1.2805,-1.2736,-1.2621,-1.2621,-1.2621,-1.2621,-1.2621,-1.2621,-1.2621,-1.2621,-1.2621,-1.2621,-1.2621,-1.2621,-1.2621,-1.2621,-1.2621,-1.2621,-1.2621,-1.2838,-1.3441,-1.3576,-1.3854,-1.4554,-1.4569,-1.4569,-1.4569,-1.4569,-1.4569,-1.4569,-1.4569,-1.4569,-1.4569,-1.4569,-1.4569,-1.4569,-1.4569,-1.4569,-1.4569,-1.4569,-1.4569,-1.4641,-1.4784,-1.4919,-1.4919,-1.5062,-1.5338,-1.5762,-1.5833,-1.6053,-1.6412,-1.6551,-1.6621,-1.6839,-1.6908,-1.6908,-2.7498,-2.7024,-2.6943,-2.6943,-2.6956,-2.7146,-2.7214,-2.7214,-2.7335,-2.6908,-2.6192,-2.5879,-2.4684,-2.2829,-2.2026,-2.0735,-1.9183,-1.8213,-1.7759,-1.7759,-1.7759,-1.8021,-1.848,-1.8862,-1.9222,-1.9583,-1.99,-2.0085,-2.0085,-2.0085,-2.0151,-2.0293,-2.0238,-2.0303,-2.0412,-2.0358,-2.0238,-2.0238,-1.9637,-1.8934,-1.8212,-1.7678,-1.6958,-1.6123,-1.5891,-1.5643,-1.5258,-1.5239,-1.4985,-1.456,-1.4514,-1.4478,-1.4396,-1.4139,-1.389,-1.37,-1.3398,-1.3042,-1.2744,-1.2621,-1.2621,-1.2621,-1.2621,-1.2621,-1.2621,-1.2621,-1.2621,-1.2621,-1.2621,-1.2621,-1.2621,-1.2621,-1.2621,-1.2621,-1.2621,-1.2621,-1.2629,-1.2693,-1.2964,-1.3465,-1.3648,-1.3958,-1.4387,-1.4569,-1.4569,-1.4569,-1.4569,-1.4569,-1.4569,-1.4569,-1.4569,-1.4569,-1.4569,-1.4569,-1.4569,-1.4569,-1.4641,-1.4713,-1.4784,-1.4848,-1.4919,-1.5204,-1.5338,-1.5346,-1.5551,-1.5762,-1.5903,-1.5903,-1.6053,-1.6421,-1.6551,-1.6551,-1.6848,-1.6908,-1.6908,-2.7498,-2.6994,-2.6794,-2.6726,-2.6726,-2.6943,-2.7024,-2.7024,-2.7024,-2.7108,-2.7037,-2.6231,-2.5423,-2.4538,-2.2886,-2.1488,-2.0355,-1.9576,-1.9189,-1.9179,-1.9222,-1.9484,-1.9813,-1.99,-1.9976,-2.002,-2.0064,-2.0085,-2.0085,-2.0107,-2.0314,-2.0751,-2.0795,-2.1013,-2.133,-2.1002,-2.0795,-2.0784,-1.9796,-1.9288,-1.918,-1.8649,-1.7915,-1.6977,-1.6523,-1.6065,-1.5652,-1.5634,-1.5314,-1.464,-1.4586,-1.4435,-1.4132,-1.4019,-1.4139,-1.4327,-1.407,-1.3649,-1.3042,-1.2744,-1.2629,-1.2621,-1.2621,-1.2621,-1.2621,-1.2621,-1.2621,-1.2621,-1.2621,-1.2621,-1.2621,-1.2621,-1.2621,-1.2621,-1.2621,-1.2621,-1.2661,-1.2853,-1.3187,-1.3537,-1.3839,-1.4212,-1.4474,-1.4569,-1.4569,-1.4569,-1.4569,-1.4569,-1.4569,-1.4569,-1.4641,-1.4641,-1.4641,-1.4641,-1.4633,-1.4641,-1.4784,-1.5062,-1.5133,-1.5275,-1.548,-1.5621,-1.5762,-1.5771,-1.5833,-1.5982,-1.6202,-1.6272,-1.6412,-1.663,-1.6769,-1.6839,-1.6908,-1.6908,-1.6908,-2.7164,-2.6683,-2.6589,-2.6602,-2.6577,-2.6726,-2.6807,-2.6863,-2.6943,-2.7024,-2.7108,-2.671,-2.6129,-2.5346,-2.4255,-2.2945,-2.1389,-2.0808,-2.0281,-1.9845,-1.9781,-2.0096,-2.0511,-2.0205,-2.0282,-2.0511,-2.0282,-2.0085,-2.014,-2.0424,-2.0817,-2.1243,-2.1297,-2.1396,-2.157,-2.1396,-2.1286,-2.1275,-2.0874,-2.0492,-2.0075,-1.9053,-1.815,-1.7543,-1.7254,-1.6796,-1.6177,-1.6065,-1.5798,-1.5287,-1.5242,-1.507,-1.4689,-1.4469,-1.431,-1.4225,-1.389,-1.358,-1.3338,-1.2981,-1.2867,-1.2797,-1.2683,-1.2621,-1.2621,-1.2621,-1.2621,-1.2621,-1.2629,-1.2621,-1.2629,-1.2629,-1.2621,-1.2621,-1.2621,-1.2629,-1.2629,-1.2885,-1.3219,-1.3545,-1.3886,-1.4252,-1.4474,-1.4569,-1.4569,-1.4569,-1.4569,-1.4569,-1.4569,-1.4569,-1.4705,-1.4919,-1.4991,-1.4919,-1.4919,-1.4991,-1.5133,-1.5409,-1.5551,-1.5692,-1.5762,-1.5974,-1.6132,-1.6132,-1.6272,-1.6412,-1.6621,-1.6621,-1.6691,-1.6908,-1.6908,-1.6908,-1.6908,-1.6908,-1.6908,-2.7092,-2.6571,-2.6521,-2.6521,-2.6521,-2.6589,-2.6658,-2.6658,-2.6807,-2.6875,-2.6943,-2.6943,-2.6578,-2.6013,-2.5517,-2.4222,-2.2496,-2.2066,-2.137,-2.0555,-2.0477,-2.0718,-2.1002,-2.0729,-2.0718,-2.0959,-2.0729,-2.0566,-2.0577,-2.0871,-2.1308,-2.1723,-2.1789,-2.1843,-2.1953,-2.1865,-2.1789,-2.1778,-2.1669,-2.1441,-2.0913,-1.9917,-1.8957,-1.8223,-1.7969,-1.7494,-1.6756,-1.6671,-1.6418,-1.589,-1.5863,-1.5625,-1.5139,-1.4844,-1.4532,-1.4081,-1.3857,-1.3735,-1.3519,-1.3277,-1.3103,-1.2989,-1.2805,-1.2683,-1.2637,-1.2709,-1.2765,-1.2781,-1.2765,-1.2781,-1.2773,-1.2773,-1.271,-1.2703,-1.271,-1.2773,-1.2726,-1.3012,-1.337,-1.3696,-1.4069,-1.4339,-1.4506,-1.4569,-1.4569,-1.4569,-1.4569,-1.4569,-1.4641,-1.4705,-1.4919,-1.5125,-1.5275,-1.5346,-1.5338,-1.5338,-1.5551,-1.5762,-1.5912,-1.5982,-1.6044,-1.6342,-1.6482,-1.6482,-1.6769,-1.6839,-1.6839,-1.6839,-1.6899,-1.6908,-1.6908,-1.6908,-1.6908,-1.6908,-1.6908,-2.7431,-2.6584,-2.6521,-2.6521,-2.6521,-2.6533,-2.6533,-2.6521,-2.6533,-2.6589,-2.6726,-2.6726,-2.6782,-2.6799,-2.6251,-2.5049,-2.351,-2.3317,-2.2648,-2.1618,-2.1527,-2.1538,-2.1559,-2.1527,-2.1527,-2.1549,-2.1439,-2.1439,-2.1483,-2.1538,-2.18,-2.2269,-2.2291,-2.2499,-2.2783,-2.2488,-2.228,-2.2248,-2.1898,-2.1658,-2.1566,-2.1501,-2.0631,-1.9373,-1.8741,-1.8192,-1.7677,-1.7609,-1.7214,-1.6303,-1.6285,-1.5936,-1.523,-1.5129,-1.4762,-1.4186,-1.4356,-1.4259,-1.3649,-1.3528,-1.3338,-1.3042,-1.2928,-1.2875,-1.2693,-1.2861,-1.302,-1.306,-1.3068,-1.3068,-1.31,-1.3044,-1.3044,-1.3068,-1.3068,-1.306,-1.3068,-1.3362,-1.3696,-1.4021,-1.4347,-1.449,-1.4561,-1.4569,-1.4569,-1.4569,-1.4569,-1.4569,-1.4641,-1.4919,-1.5062,-1.5204,-1.548,-1.5754,-1.5762,-1.5762,-1.5912,-1.6193,-1.6342,-1.6342,-1.6621,-1.683,-1.683,-1.683,-1.6908,-1.6908,-1.6908,-1.6908,-1.6908,-1.6908,-1.6908,-1.6908,-1.6908,-1.6908,-1.6908,-2.6829,-2.6533,-2.6521,-2.6521,-2.6521,-2.6521,-2.6521,-2.6521,-2.6521,-2.6521,-2.6589,-2.6589,-2.6589,-2.6671,-2.6577,-2.5721,-2.4481,-2.4578,-2.3858,-2.2644,-2.2488,-2.2499,-2.2466,-2.2204,-2.2051,-2.2018,-2.1745,-2.1756,-2.204,-2.2051,-2.2455,-2.3045,-2.2903,-2.299,-2.3296,-2.299,-2.275,-2.2739,-2.2564,-2.2641,-2.2826,-2.2379,-2.1869,-2.1573,-2.0226,-1.9069,-1.818,-1.786,-1.7366,-1.6697,-1.6688,-1.645,-1.5936,-1.5625,-1.5232,-1.4762,-1.4825,-1.471,-1.4241,-1.377,-1.3329,-1.305,-1.2805,-1.2857,-1.2924,-1.302,-1.3171,-1.3346,-1.3402,-1.3489,-1.36,-1.3362,-1.3187,-1.3362,-1.3402,-1.3402,-1.3473,-1.3711,-1.3982,-1.414,-1.4418,-1.4561,-1.4569,-1.4569,-1.4569,-1.4569,-1.4569,-1.4569,-1.4641,-1.4705,-1.4919,-1.5133,-1.5346,-1.5559,-1.6123,-1.6123,-1.6193,-1.6551,-1.67,-1.67,-1.6908,-1.6908,-1.6908,-1.6839,-1.6908,-1.6908,-1.6908,-1.6908,-1.6908,-1.6908,-1.6908,-1.6908,-1.6908,-1.6908,-1.6908,-2.6521,-2.6521,-2.6521,-2.6521,-2.6521,-2.6521,-2.6521,-2.6521,-2.6521,-2.6521,-2.6521,-2.6521,-2.6521,-2.6521,-2.6645,-2.622,-2.5358,-2.5217,-2.4515,-2.3423,-2.315,-2.3001,-2.2947,-2.2684,-2.2531,-2.2499,-2.2215,-2.2226,-2.2499,-2.2542,-2.2881,-2.3416,-2.3285,-2.3405,-2.3646,-2.3547,-2.3482,-2.3471,-2.3329,-2.3405,-2.3602,-2.2947,-2.2684,-2.2687,-2.1381,-1.9872,-1.8693,-1.8203,-1.7638,-1.7038,-1.6908,-1.6725,-1.634,-1.6056,-1.5716,-1.5368,-1.5432,-1.5296,-1.4809,-1.4215,-1.3689,-1.3372,-1.3103,-1.3066,-1.3268,-1.3354,-1.3537,-1.3696,-1.3751,-1.3894,-1.4077,-1.3767,-1.3521,-1.3719,-1.3751,-1.3751,-1.3759,-1.3958,-1.4148,-1.4291,-1.4419,-1.4553,-1.4569,-1.4569,-1.4569,-1.4569,-1.4569,-1.4569,-1.4569,-1.4705,-1.4919,-1.5275,-1.5417,-1.5771,-1.6202,-1.6342,-1.6412,-1.6691,-1.6839,-1.6908,-1.6908,-1.6908,-1.6908,-1.6908,-1.6908,-1.6908,-1.6908,-1.6908,-1.6908,-1.6908,-1.6908,-1.6908,-1.6908,-1.6908,-1.6908,-2.6521,-2.6521,-2.6521,-2.6521,-2.6521,-2.6521,-2.6521,-2.6521,-2.6521,-2.6521,-2.6521,-2.6521,-2.6521,-2.6533,-2.6658,-2.644,-2.5931,-2.537,-2.4696,-2.3975,-2.335,-2.3075,-2.299,-2.2957,-2.2925,-2.2925,-2.2957,-2.2947,-2.2936,-2.2925,-2.3001,-2.3121,-2.346,-2.3602,-2.3722,-2.4028,-2.4312,-2.4159,-2.3766,-2.3667,-2.3678,-2.323,-2.3001,-2.3001,-2.2056,-2.0807,-1.9293,-1.8761,-1.7969,-1.7047,-1.6908,-1.6725,-1.6386,-1.6312,-1.6138,-1.5826,-1.6046,-1.5858,-1.5189,-1.4736,-1.4429,-1.4095,-1.376,-1.3606,-1.3685,-1.3846,-1.4037,-1.4101,-1.4125,-1.4244,-1.4403,-1.4275,-1.4077,-1.4117,-1.4117,-1.4117,-1.4125,-1.4125,-1.4252,-1.4458,-1.4561,-1.4561,-1.4569,-1.4569,-1.4569,-1.4569,-1.4569,-1.4569,-1.4641,-1.4919,-1.5346,-1.5621,-1.5692,-1.5912,-1.6272,-1.663,-1.6691,-1.676,-1.6839,-1.6908,-1.6908,-1.6908,-1.6908,-1.6908,-1.6908,-1.6908,-1.6908,-1.6908,-1.6908,-1.6908,-1.6908,-1.6908,-1.6908,-1.6908,-1.6908,-2.6521,-2.6521,-2.6521,-2.6521,-2.6521,-2.6521,-2.6521,-2.6521,-2.6521,-2.6521,-2.6521,-2.6521,-2.6521,-2.6521,-2.6658,-2.6658,-2.6589,-2.6,-2.5193,-2.4181,-2.3841,-2.3497,-2.3065,-2.3001,-2.3001,-2.3001,-2.3001,-2.3001,-2.3012,-2.3023,-2.3143,-2.3427,-2.3329,-2.3416,-2.3722,-2.3569,-2.3471,-2.3449,-2.3307,-2.3536,-2.4082,-2.3427,-2.3307,-2.3809,-2.2772,-2.15,-2.0365,-1.9127,-1.7988,-1.6978,-1.6908,-1.6725,-1.645,-1.6578,-1.6523,-1.6193,-1.623,-1.6142,-1.5637,-1.5233,-1.4854,-1.455,-1.422,-1.4148,-1.4293,-1.4183,-1.4228,-1.4418,-1.4474,-1.4466,-1.4522,-1.4482,-1.4458,-1.4466,-1.4482,-1.4387,-1.4442,-1.445,-1.4522,-1.453,-1.4569,-1.4569,-1.4569,-1.4569,-1.4569,-1.4569,-1.4641,-1.4641,-1.4641,-1.4991,-1.5204,-1.5338,-1.5621,-1.5982,-1.6342,-1.656,-1.663,-1.6769,-1.6839,-1.6908,-1.6908,-1.6908,-1.6908,-1.6908,-1.6908,-1.6908,-1.6908,-1.6908,-1.6908,-1.6908,-1.6908,-1.6908,-1.6908,-1.6908,-1.6908,-2.664,-2.6533,-2.6521,-2.6521,-2.6521,-2.6521,-2.6521,-2.6521,-2.6521,-2.6521,-2.6521,-2.6521,-2.6521,-2.6521,-2.6589,-2.6807,-2.6875,-2.6358,-2.5487,-2.4552,-2.4181,-2.3694,-2.3065,-2.3001,-2.3001,-2.3045,-2.3176,-2.3274,-2.3274,-2.3471,-2.3711,-2.3908,-2.3864,-2.3875,-2.4028,-2.3897,-2.3755,-2.3569,-2.3394,-2.358,-2.3908,-2.3416,-2.3296,-2.3678,-2.287,-2.1819,-2.0797,-1.9627,-1.8476,-1.7411,-1.7038,-1.678,-1.6587,-1.6771,-1.6789,-1.6606,-1.6532,-1.6397,-1.6002,-1.5615,-1.534,-1.5076,-1.4815,-1.4774,-1.4982,-1.4866,-1.4849,-1.5013,-1.5046,-1.4991,-1.4848,-1.4848,-1.4776,-1.4561,-1.4553,-1.4569,-1.4569,-1.4569,-1.4561,-1.4569,-1.4569,-1.4569,-1.4569,-1.4569,-1.4569,-1.4641,-1.4713,-1.4848,-1.4919,-1.5204,-1.5346,-1.548,-1.5692,-1.6053,-1.6412,-1.656,-1.6491,-1.67,-1.6908,-1.6908,-1.6908,-1.6908,-1.6908,-1.6908,-1.6908,-1.6908,-1.6908,-1.6908,-1.6908,-1.6908,-1.6908,-1.6908,-1.6908,-1.6908,-1.6908,-2.7005,-2.6596,-2.6584,-2.6571,-2.6533,-2.6521,-2.6521,-2.6521,-2.6521,-2.6521,-2.6521,-2.6521,-2.6521,-2.6521,-2.6521,-2.6739,-2.6807,-2.644,-2.5791,-2.5146,-2.4564,-2.3852,-2.3065,-2.3001,-2.3045,-2.3165,-2.3493,-2.37,-2.3787,-2.4137,-2.4486,-2.4443,-2.4694,-2.4869,-2.4508,-2.4858,-2.4628,-2.4203,-2.3875,-2.3722,-2.3766,-2.334,-2.311,-2.3165,-2.2695,-2.1966,-2.1126,-2.0254,-1.9196,-1.7842,-1.7176,-1.689,-1.689,-1.6908,-1.689,-1.6844,-1.6899,-1.6664,-1.6392,-1.6124,-1.5916,-1.587,-1.5549,-1.5463,-1.5721,-1.5615,-1.5562,-1.5683,-1.5692,-1.5621,-1.5275,-1.5204,-1.5062,-1.4776,-1.4705,-1.4641,-1.4569,-1.4641,-1.4713,-1.4705,-1.4633,-1.4705,-1.4776,-1.4776,-1.4776,-1.4776,-1.5062,-1.5196,-1.5338,-1.5559,-1.5912,-1.6053,-1.5982,-1.6263,-1.67,-1.663,-1.663,-1.6769,-1.6908,-1.6908,-1.6908,-1.6908,-1.6908,-1.6908,-1.6908,-1.6908,-1.6908,-1.6908,-1.6908,-1.6908,-1.6908,-1.6908,-1.6908,-1.6908,-1.6839,-2.757,-2.7092,-2.7067,-2.6841,-2.6559,-2.6521,-2.6521,-2.6521,-2.6521,-2.6521,-2.6521,-2.6521,-2.6521,-2.6521,-2.6589,-2.6726,-2.6726,-2.685,-2.6208,-2.5229,-2.5087,-2.4215,-2.3213,-2.3012,-2.3198,-2.3493,-2.3722,-2.3929,-2.4279,-2.4476,-2.4541,-2.4497,-2.4694,-2.4661,-2.4508,-2.429,-2.4061,-2.394,-2.382,-2.3711,-2.3689,-2.3591,-2.3547,-2.3493,-2.3056,-2.2513,-2.1797,-2.0652,-1.9315,-1.7823,-1.7166,-1.6908,-1.6908,-1.6908,-1.6908,-1.6908,-1.6908,-1.6899,-1.6751,-1.666,-1.6591,-1.6594,-1.6227,-1.6096,-1.6105,-1.5903,-1.5833,-1.5833,-1.5833,-1.5762,-1.5692,-1.5621,-1.5551,-1.5409,-1.4991,-1.4633,-1.4705,-1.4848,-1.5062,-1.5062,-1.5267,-1.5409,-1.5409,-1.5409,-1.5409,-1.5409,-1.5551,-1.5621,-1.5692,-1.5912,-1.6272,-1.6342,-1.6412,-1.6621,-1.6839,-1.6769,-1.6769,-1.6839,-1.6908,-1.6917,-1.6848,-1.6848,-1.6908,-1.6908,-1.6908,-1.6908,-1.6908,-1.6908,-1.6908,-1.6908,-1.676,-1.676,-1.683,-1.6899,-1.676,-2.7783,-2.7268,-2.703,-2.6753,-2.6465,-2.6521,-2.6521,-2.6521,-2.6521,-2.6521,-2.6521,-2.6521,-2.6521,-2.6521,-2.6602,-2.6645,-2.6726,-2.6577,-2.6139,-2.5569,-2.5004,-2.407,-2.3257,-2.3176,-2.346,-2.3755,-2.4148,-2.4486,-2.4781,-2.4967,-2.5076,-2.512,-2.5076,-2.4891,-2.4486,-2.4224,-2.3809,-2.3514,-2.3427,-2.3416,-2.3427,-2.3416,-2.3416,-2.3372,-2.311,-2.2783,-2.2176,-2.0605,-1.91,-1.7959,-1.7373,-1.7107,-1.6908,-1.6908,-1.6908,-1.6908,-1.6908,-1.6908,-1.6908,-1.6908,-1.6908,-1.6839,-1.663,-1.6551,-1.6551,-1.6333,-1.6263,-1.6263,-1.6263,-1.6193,-1.5982,-1.5903,-1.5833,-1.5692,-1.5338,-1.5133,-1.5133,-1.5338,-1.5409,-1.548,-1.5621,-1.5833,-1.5833,-1.5833,-1.5833,-1.5833,-1.5912,-1.5982,-1.6053,-1.6342,-1.656,-1.6621,-1.6621,-1.6769,-1.6839,-1.6839,-1.6839,-1.6908,-1.6908,-1.6908,-1.6657,-1.6648,-1.663,-1.6621,-1.6769,-1.6839,-1.6691,-1.676,-1.6908,-1.6839,-1.6691,-1.6542,-1.6621,-1.6324,-1.6333,-2.7871,-2.7318,-2.6779,-2.6584,-2.6533,-2.6521,-2.6521,-2.6521,-2.6521,-2.6521,-2.6521,-2.6521,-2.6521,-2.6521,-2.6521,-2.6589,-2.6645,-2.6233,-2.5943,-2.5487,-2.4767,-2.3768,-2.3108,-2.3318,-2.3635,-2.3929,-2.4738,-2.5065,-2.5273,-2.5666,-2.5841,-2.5753,-2.5797,-2.5448,-2.4869,-2.4563,-2.3995,-2.3449,-2.3274,-2.3176,-2.3154,-2.3176,-2.322,-2.3067,-2.2925,-2.2619,-2.1854,-2.0535,-1.907,-1.791,-1.7774,-1.7442,-1.7038,-1.6978,-1.6908,-1.6908,-1.6908,-1.6908,-1.6908,-1.6908,-1.6908,-1.6908,-1.6908,-1.6908,-1.6839,-1.676,-1.676,-1.6769,-1.6908,-1.6691,-1.6412,-1.6114,-1.6044,-1.6053,-1.5912,-1.5912,-1.5903,-1.5833,-1.5833,-1.5833,-1.5903,-1.5903,-1.5903,-1.5903,-1.5903,-1.6263,-1.6263,-1.6333,-1.6412,-1.6551,-1.6769,-1.6839,-1.6839,-1.6908,-1.6908,-1.6908,-1.6908,-1.6908,-1.6908,-1.6778,-1.6263,-1.6184,-1.614,-1.6114,-1.5974,-1.6044,-1.6184,-1.6324,-1.6542,-1.6333,-1.5824,-1.6044,-1.6263,-1.5613,-1.533,-2.8436,-2.7883,-2.7331,-2.6924,-2.6571,-2.6521,-2.6533,-2.6546,-2.6533,-2.6521,-2.6521,-2.6521,-2.6521,-2.6521,-2.6521,-2.6533,-2.6602,-2.6383,-2.607,-2.5146,-2.448,-2.3706,-2.3161,-2.3187,-2.3613,-2.417,-2.4497,-2.5033,-2.56,-2.5808,-2.5895,-2.5895,-2.5895,-2.5786,-2.548,-2.4738,-2.4432,-2.4104,-2.3744,-2.3307,-2.3121,-2.3318,-2.3318,-2.3023,-2.2673,-2.2248,-2.1756,-2.1011,-2.0055,-1.9081,-1.8212,-1.7734,-1.7461,-1.7107,-1.6908,-1.6908,-1.6908,-1.6908,-1.6908,-1.6908,-1.6908,-1.6908,-1.6908,-1.6908,-1.6908,-1.6908,-1.6908,-1.6908,-1.6908,-1.683,-1.676,-1.67,-1.6621,-1.6551,-1.6621,-1.6621,-1.6621,-1.6403,-1.6193,-1.6263,-1.6412,-1.6621,-1.6612,-1.6621,-1.6621,-1.6691,-1.6691,-1.676,-1.676,-1.6839,-1.6908,-1.6908,-1.6908,-1.6908,-1.6908,-1.6908,-1.6908,-1.6908,-1.6908,-1.663,-1.6114,-1.5689,-1.563,-1.5321,-1.4958,-1.5171,-1.5675,-1.5321,-1.5392,-1.518,-1.5108,-1.5251,-1.518,-1.4681,-1.4466,-2.8373,-2.8059,-2.7507,-2.7268,-2.7193,-2.6954,-2.6841,-2.6779,-2.6553,-2.6521,-2.6521,-2.6521,-2.6521,-2.6521,-2.6521,-2.6521,-2.6521,-2.6589,-2.6,-2.5075,-2.4564,-2.3998,-2.3216,-2.3285,-2.3777,-2.4443,-2.4727,-2.524,-2.5732,-2.5895,-2.5895,-2.5895,-2.5895,-2.5579,-2.5295,-2.4749,-2.4224,-2.3766,-2.3558,-2.3252,-2.311,-2.323,-2.3318,-2.2968,-2.2575,-2.216,-2.1942,-2.1483,-2.0964,-2.0249,-1.932,-1.835,-1.7695,-1.7176,-1.6908,-1.6908,-1.6908,-1.6908,-1.6908,-1.6908,-1.6908,-1.6908,-1.6908,-1.6908,-1.6908,-1.6908,-1.6908,-1.6908,-1.6908,-1.6908,-1.6908,-1.6908,-1.6908,-1.6908,-1.6908,-1.6908,-1.6839,-1.67,-1.6551,-1.6621,-1.6769,-1.6839,-1.6908,-1.6908,-1.6908,-1.6769,-1.6769,-1.6839,-1.6839,-1.6908,-1.6908,-1.6908,-1.6908,-1.6908,-1.6908,-1.6908,-1.6908,-1.6908,-1.6908,-1.6551,-1.6008,-1.5497,-1.5108,-1.4816,-1.453,-1.4816,-1.51,-1.4744,-1.4458,-1.4609,-1.4609,-1.4466,-1.4178,-1.3818,-1.3818,-2.8222,-2.8185,-2.7632,-2.7682,-2.7984,-2.7494,-2.7256,-2.7193,-2.6703,-2.6521,-2.6521,-2.6521,-2.6521,-2.6521,-2.6521,-2.6521,-2.6521,-2.6658,-2.6151,-2.5134,-2.5016,-2.4288,-2.3597,-2.3536,-2.394,-2.4486,-2.4902,-2.5404,-2.5764,-2.5895,-2.5895,-2.5895,-2.5895,-2.5622,-2.4934,-2.4607,-2.4366,-2.3798,-2.358,-2.3438,-2.3362,-2.3383,-2.3351,-2.311,-2.2597,-2.2335,-2.2149,-2.1811,-2.1549,-2.1511,-2.0552,-1.9314,-1.8172,-1.7329,-1.6936,-1.6936,-1.6908,-1.6908,-1.6908,-1.6908,-1.6908,-1.6908,-1.6908,-1.6908,-1.6908,-1.6908,-1.6908,-1.6908,-1.6908,-1.6908,-1.6908,-1.6908,-1.6908,-1.6908,-1.6908,-1.6908,-1.6908,-1.6908,-1.6839,-1.6839,-1.6839,-1.6908,-1.6908,-1.6908,-1.6908,-1.6908,-1.6908,-1.6908,-1.6908,-1.6908,-1.6908,-1.6908,-1.6908,-1.6908,-1.6908,-1.6769,-1.6769,-1.6551,-1.6621,-1.6193,-1.5692,-1.5259,-1.4824,-1.4537,-1.4386,-1.4458,-1.4314,-1.3882,-1.3818,-1.4106,-1.3962,-1.3528,-1.3237,-1.3025,-1.3171,-2.8787,-2.875,-2.821,-2.8021,-2.8021,-2.7519,-2.7293,-2.7193,-2.6703,-2.6521,-2.6521,-2.6521,-2.6521,-2.6521,-2.6521,-2.6521,-2.6589,-2.684,-2.6553,-2.5712,-2.5501,-2.479,-2.4095,-2.3882,-2.4073,-2.4486,-2.4956,-2.5426,-2.5797,-2.5895,-2.5895,-2.5895,-2.5895,-2.5699,-2.548,-2.5273,-2.4891,-2.4454,-2.4224,-2.4082,-2.4082,-2.4071,-2.3842,-2.3493,-2.2805,-2.2444,-2.2248,-2.1887,-2.1603,-2.1522,-2.0938,-2.0081,-1.9094,-1.8052,-1.737,-1.6982,-1.6908,-1.6908,-1.6908,-1.6908,-1.6908,-1.6908,-1.6908,-1.6908,-1.6908,-1.6908,-1.6908,-1.6908,-1.6908,-1.6908,-1.6908,-1.6908,-1.6908,-1.6908,-1.6908,-1.6908,-1.6908,-1.6908,-1.6908,-1.6908,-1.6908,-1.6908,-1.6908,-1.6908,-1.6908,-1.6908,-1.6908,-1.6908,-1.6908,-1.6908,-1.6908,-1.6908,-1.6908,-1.6908,-1.6908,-1.676,-1.6551,-1.6053,-1.5833,-1.5613,-1.518,-1.4895,-1.4537,-1.4178,-1.36,-1.3237,-1.3018,-1.2945,-1.2952,-1.3171,-1.2879,-1.2586,-1.2592,-1.2666,-1.2592,-2.8499,-2.8448,-2.7908,-2.8009,-2.8323,-2.7632,-2.7293,-2.7205,-2.6703,-2.6521,-2.6521,-2.6521,-2.6521,-2.6521,-2.6521,-2.6521,-2.6759,-2.7399,-2.7233,-2.6578,-2.622,-2.5553,-2.4657,-2.4382,-2.4393,-2.4645,-2.4956,-2.5426,-2.5863,-2.5895,-2.5895,-2.5895,-2.5895,-2.5786,-2.5546,-2.5262,-2.5054,-2.4858,-2.4639,-2.4508,-2.4508,-2.4497,-2.4137,-2.346,-2.3187,-2.2826,-2.2357,-2.2422,-2.2204,-2.2012,-2.1688,-2.1063,-2.0216,-1.9056,-1.7881,-1.7125,-1.6917,-1.6908,-1.6908,-1.6908,-1.6908,-1.6908,-1.6908,-1.6908,-1.6908,-1.6908,-1.6908,-1.6908,-1.6908,-1.6908,-1.6908,-1.6908,-1.6908,-1.6908,-1.6908,-1.6908,-1.6908,-1.6908,-1.6908,-1.6908,-1.6908,-1.6908,-1.6908,-1.6908,-1.6908,-1.6908,-1.6908,-1.6908,-1.6908,-1.6908,-1.6908,-1.6691,-1.6621,-1.6403,-1.6333,-1.6114,-1.5903,-1.5471,-1.5117,-1.4895,-1.4601,-1.425,-1.3962,-1.3753,-1.3098,-1.2592,-1.2445,-1.2592,-1.2378,-1.2305,-1.2378,-1.2445,-1.2378,-1.2305,-1.2305,-2.8344,-2.8072,-2.7745,-2.8122,-2.8687,-2.7883,-2.7457,-2.7318,-2.681,-2.6609,-2.6672,-2.6596,-2.659,-2.6798,-2.6773,-2.6791,-2.6911,-2.7914,-2.7797,-2.7435,-2.6989,-2.6287,-2.5507,-2.4922,-2.4647,-2.4577,-2.4956,-2.5426,-2.5819,-2.5895,-2.5895,-2.5895,-2.5895,-2.5742,-2.5437,-2.5426,-2.5043,-2.4902,-2.477,-2.477,-2.476,-2.4628,-2.4279,-2.346,-2.3635,-2.334,-2.2826,-2.2783,-2.2728,-2.2472,-2.2253,-2.1924,-2.1188,-1.9932,-1.8557,-1.7306,-1.6972,-1.6917,-1.6908,-1.6908,-1.6908,-1.6908,-1.6908,-1.6908,-1.6908,-1.6908,-1.6908,-1.6908,-1.6908,-1.6908,-1.6908,-1.6908,-1.6908,-1.6908,-1.6908,-1.6908,-1.6908,-1.6908,-1.6908,-1.6908,-1.6908,-1.6908,-1.6908,-1.6908,-1.6908,-1.6908,-1.6908,-1.6908,-1.6908,-1.6908,-1.6839,-1.6482,-1.6263,-1.5833,-1.5542,-1.518,-1.4966,-1.4537,-1.4322,-1.4178,-1.389,-1.3528,-1.3317,-1.3171,-1.3025,-1.2592,-1.2452,-1.2305,-1.2305,-1.2305,-1.2305,-1.2305,-1.2305,-1.2305,-1.2305,-2.9186,-2.8147,-2.8549,-2.8825,-2.8812,-2.8247,-2.7996,-2.7846,-2.6942,-2.6836,-2.7155,-2.6779,-2.7055,-2.7629,-2.7607,-2.7384,-2.7468,-2.803,-2.8453,-2.8244,-2.7642,-2.687,-2.5956,-2.498,-2.4826,-2.4697,-2.4989,-2.5426,-2.5786,-2.5895,-2.5895,-2.5895,-2.5895,-2.5852,-2.5742,-2.5699,-2.5786,-2.5721,-2.5688,-2.5655,-2.5557,-2.5229,-2.4945,-2.4574,-2.4104,-2.3602,-2.3296,-2.3132,-2.2925,-2.2914,-2.285,-2.2147,-2.0903,-2.0254,-1.9,-1.7896,-1.7147,-1.6908,-1.6917,-1.6908,-1.6908,-1.6908,-1.6908,-1.6908,-1.6908,-1.6908,-1.6908,-1.6908,-1.6908,-1.6908,-1.6908,-1.6908,-1.6908,-1.6908,-1.6908,-1.6908,-1.6908,-1.6908,-1.6908,-1.6908,-1.6908,-1.6908,-1.6908,-1.6908,-1.6908,-1.6908,-1.6908,-1.6908,-1.6908,-1.6908,-1.6839,-1.6551,-1.5833,-1.5401,-1.4895,-1.453,-1.4034,-1.3673,-1.36,-1.3455,-1.3244,-1.2952,-1.2739,-1.2599,-1.2592,-1.2592,-1.2378,-1.2305,-1.2305,-1.2305,-1.2305,-1.2305,-1.2305,-1.2305,-1.2305,-2.9928,-2.8574,-2.8486,-2.8637,-2.8837,-2.8335,-2.8109,-2.8009,-2.762,-2.7519,-2.7695,-2.7519,-2.7682,-2.8107,-2.8341,-2.8134,-2.8023,-2.8898,-2.9261,-2.9158,-2.8667,-2.8015,-2.7071,-2.6177,-2.5695,-2.4949,-2.5098,-2.5426,-2.5753,-2.5895,-2.5895,-2.5895,-2.5895,-2.5895,-2.5895,-2.5895,-2.5895,-2.5874,-2.5863,-2.5742,-2.5502,-2.5262,-2.4923,-2.441,-2.3962,-2.3646,-2.3351,-2.3165,-2.3001,-2.2947,-2.2805,-2.2537,-2.166,-2.074,-1.9518,-1.9385,-1.818,-1.7403,-1.7,-1.6945,-1.6954,-1.6927,-1.6936,-1.6908,-1.6908,-1.6936,-1.6936,-1.6908,-1.6908,-1.6917,-1.6927,-1.6908,-1.6908,-1.6908,-1.6908,-1.6908,-1.6908,-1.6908,-1.6908,-1.6908,-1.6908,-1.6908,-1.6908,-1.6908,-1.6908,-1.6908,-1.6908,-1.6908,-1.6908,-1.6908,-1.6839,-1.67,-1.5833,-1.4966,-1.4386,-1.3882,-1.3244,-1.2879,-1.2879,-1.2739,-1.2592,-1.2378,-1.2305,-1.2305,-1.2378,-1.2378,-1.2305,-1.2305,-1.2305,-1.2305,-1.2305,-1.2305,-1.2305,-1.2305,-1.2305,-3.0705,-2.9352,-2.861,-2.8549,-2.8888,-2.8486,-2.8323,-2.831,-2.8134,-2.816,-2.8335,-2.8411,-2.8386,-2.8394,-2.8845,-2.8864,-2.8408,-2.9835,-3.006,-2.9913,-2.9667,-2.8938,-2.7782,-2.6954,-2.6071,-2.5175,-2.5142,-2.5448,-2.5753,-2.5895,-2.5895,-2.5895,-2.5895,-2.5895,-2.5895,-2.5895,-2.5895,-2.5895,-2.5895,-2.5732,-2.5459,-2.5262,-2.4803,-2.4301,-2.3853,-2.3558,-2.3241,-2.3034,-2.3001,-2.2936,-2.275,-2.2507,-2.2009,-2.0862,-1.9905,-1.9584,-1.8499,-1.7816,-1.7468,-1.7321,-1.722,-1.722,-1.7211,-1.733,-1.7293,-1.7211,-1.7211,-1.7312,-1.7303,-1.722,-1.7082,-1.7073,-1.7018,-1.6972,-1.6908,-1.6908,-1.6908,-1.6908,-1.6908,-1.6908,-1.6908,-1.6908,-1.6908,-1.6908,-1.6908,-1.6908,-1.6908,-1.6908,-1.6908,-1.6908,-1.6621,-1.6482,-1.5613,-1.4681,-1.3962,-1.331,-1.2666,-1.2318,-1.2318,-1.2305,-1.2305,-1.2305,-1.2305,-1.2305,-1.2305,-1.2305,-1.2305,-1.2305,-1.2305,-1.2305,-1.2305,-1.2305,-1.2305,-1.2318,-1.2325,-3.1569,-3.0641,-2.9377,-2.8913,-2.895,-2.89,-2.8875,-2.8837,-2.8373,-2.8473,-2.8925,-2.9302,-2.9063,-2.8819,-2.9196,-2.9436,-2.9369,-2.9904,-3.0212,-3.0261,-2.9923,-2.9085,-2.7968,-2.7046,-2.6143,-2.5381,-2.5295,-2.5535,-2.5786,-2.5895,-2.5895,-2.5895,-2.5895,-2.5895,-2.5895,-2.5895,-2.5895,-2.5895,-2.5895,-2.5895,-2.5655,-2.5426,-2.5065,-2.4814,-2.4203,-2.37,-2.3646,-2.322,-2.3001,-2.299,-2.2826,-2.2467,-2.1922,-2.0941,-2.0163,-1.9516,-1.8816,-1.8229,-1.8073,-1.7917,-1.7972,-1.8018,-1.7963,-1.7862,-1.7816,-1.7954,-1.8009,-1.7899,-1.7798,-1.7724,-1.7559,-1.7413,-1.7238,-1.7101,-1.7,-1.6908,-1.6908,-1.6908,-1.6908,-1.6908,-1.6908,-1.6908,-1.6908,-1.6908,-1.6908,-1.6908,-1.6908,-1.6908,-1.6908,-1.6839,-1.6473,-1.6044,-1.5251,-1.4394,-1.3673,-1.3025,-1.2452,-1.2351,-1.2385,-1.2345,-1.2305,-1.2311,-1.2405,-1.2305,-1.2305,-1.2305,-1.2331,-1.2385,-1.2405,-1.2331,-1.2331,-1.2418,-1.2438,-1.2452,-1.2432,-3.0976,-3.0177,-2.9605,-2.9465,-2.9453,-2.9465,-2.9453,-2.9428,-2.9239,-2.9252,-2.9453,-2.9666,-2.9706,-2.9568,-2.9755,-2.9892,-2.9848,-3.0394,-3.052,-3.0459,-3.0211,-2.9528,-2.8529,-2.7616,-2.7013,-2.592,-2.5622,-2.5666,-2.5874,-2.5895,-2.5895,-2.5895,-2.5895,-2.5895,-2.5895,-2.5895,-2.5895,-2.5895,-2.5895,-2.5895,-2.5797,-2.5426,-2.5043,-2.4683,-2.417,-2.358,-2.3296,-2.311,-2.3023,-2.2936,-2.2761,-2.2445,-2.2006,-2.1128,-2.0476,-2.0005,-1.9286,-1.8865,-1.8669,-1.8421,-1.8128,-1.8119,-1.8109,-1.8155,-1.821,-1.8155,-1.8128,-1.8109,-1.8164,-1.8091,-1.7944,-1.766,-1.7403,-1.7248,-1.711,-1.6991,-1.6908,-1.6908,-1.6908,-1.6908,-1.6908,-1.6908,-1.6908,-1.6908,-1.6908,-1.6908,-1.6908,-1.6908,-1.6908,-1.676,-1.6333,-1.5754,-1.4966,-1.4322,-1.3608,-1.2959,-1.2305,-1.2358,-1.2425,-1.2412,-1.2392,-1.2545,-1.2592,-1.2452,-1.2345,-1.2385,-1.2438,-1.2512,-1.2525,-1.2512,-1.2634,-1.2714,-1.2708,-1.2681,-1.2714,-3.0705,-3.0126,-2.9856,-2.9779,-2.9779,-2.9779,-2.9779,-2.9779,-2.9754,-2.9779,-2.9779,-2.9856,-2.9998,-3.0228,-3.0355,-3.0416,-3.0358,-3.0664,-3.0673,-3.0712,-3.0579,-2.9922,-2.8991,-2.8096,-2.7406,-2.6302,-2.5895,-2.5895,-2.5895,-2.5895,-2.5895,-2.5895,-2.5895,-2.5895,-2.5895,-2.5895,-2.5895,-2.5895,-2.5895,-2.5895,-2.583,-2.5426,-2.4956,-2.453,-2.4017,-2.3525,-2.3187,-2.3012,-2.3012,-2.2914,-2.2805,-2.2603,-2.2243,-2.1709,-2.1065,-2.0594,-2.0157,-1.9529,-1.9136,-1.888,-1.8476,-1.8577,-1.855,-1.8531,-1.8467,-1.8467,-1.8586,-1.855,-1.8522,-1.843,-1.8339,-1.8091,-1.7715,-1.7541,-1.7312,-1.7174,-1.6972,-1.6908,-1.6908,-1.6908,-1.6908,-1.6908,-1.6908,-1.6908,-1.6908,-1.6908,-1.6908,-1.6908,-1.6839,-1.6621,-1.6184,-1.5542,-1.4824,-1.4186,-1.3535,-1.2886,-1.2305,-1.2311,-1.2385,-1.2492,-1.2538,-1.2768,-1.2822,-1.2619,-1.2538,-1.2512,-1.2592,-1.2732,-1.2752,-1.2808,-1.2889,-1.2997,-1.3,-1.2916,-1.2973,-3.0943,-3.0794,-3.0075,-2.9779,-2.9779,-2.9779,-2.9779,-2.9779,-2.9779,-2.9792,-2.9856,-3.0011,-3.0152,-3.0368,-3.0533,-3.0683,-3.0807,-3.0934,-3.0869,-3.0803,-3.0869,-2.9922,-2.8942,-2.814,-2.7568,-2.6302,-2.5895,-2.5895,-2.5895,-2.5895,-2.5895,-2.5895,-2.5895,-2.5895,-2.5895,-2.5895,-2.5895,-2.5895,-2.5895,-2.5895,-2.5808,-2.548,-2.5065,-2.4497,-2.4104,-2.3656,-2.3132,-2.3001,-2.3001,-2.2957,-2.2936,-2.2776,-2.2339,-2.2124,-2.1507,-2.0615,-2.0323,-1.9854,-1.9353,-1.9246,-1.9164,-1.9091,-1.8999,-1.9054,-1.9173,-1.9201,-1.9118,-1.8981,-1.9081,-1.8981,-1.8834,-1.8595,-1.8146,-1.7871,-1.766,-1.7458,-1.7275,-1.7193,-1.7248,-1.7128,-1.6991,-1.6917,-1.6908,-1.6908,-1.6908,-1.6908,-1.6908,-1.6839,-1.67,-1.6403,-1.5974,-1.5108,-1.4322,-1.3818,-1.3171,-1.2739,-1.2305,-1.2305,-1.2371,-1.2492,-1.2625,-1.2759,-1.2779,-1.2808,-1.2799,-1.2839,-1.2906,-1.2993,-1.3073,-1.316,-1.3146,-1.318,-1.3178,-1.3263,-1.326,-3.0668,-3.0807,-3.0139,-2.9779,-2.9779,-2.9779,-2.9779,-2.9779,-2.9779,-2.9856,-3.0011,-3.0075,-3.0305,-3.0546,-3.0698,-3.0849,-3.0986,-3.0973,-3.0895,-3.0516,-3.0777,-2.9555,-2.857,-2.7997,-2.7441,-2.629,-2.5895,-2.5895,-2.5895,-2.5895,-2.5895,-2.5895,-2.5895,-2.5895,-2.5895,-2.5895,-2.5895,-2.5895,-2.5895,-2.5895,-2.5884,-2.5677,-2.5251,-2.453,-2.4268,-2.3777,-2.3078,-2.3012,-2.3001,-2.3001,-2.3001,-2.2852,-2.2553,-2.2402,-2.1949,-2.1175,-2.0867,-1.9923,-1.945,-1.9274,-1.9283,-1.9292,-1.9292,-1.9292,-1.9292,-1.9292,-1.9292,-1.9292,-1.9292,-1.9182,-1.9118,-1.8815,-1.8476,-1.8385,-1.8192,-1.7972,-1.7816,-1.7789,-1.7761,-1.7486,-1.7293,-1.7064,-1.6972,-1.6848,-1.6839,-1.676,-1.6691,-1.6412,-1.6272,-1.5982,-1.5551,-1.4537,-1.3673,-1.3237,-1.2806,-1.2445,-1.2305,-1.2305,-1.2405,-1.2552,-1.2685,-1.2819,-1.2859,-1.2846,-1.3019,-1.318,-1.3247,-1.334,-1.3534,-1.3627,-1.3554,-1.3574,-1.3682,-1.3655,-1.3594,-3.0308,-3.0768,-2.9834,-2.9628,-2.9767,-2.9779,-2.9779,-2.9792,-2.9856,-3.0011,-3.0075,-3.0228,-3.0457,-3.0698,-3.0773,-3.0849,-3.0986,-3.0973,-3.0921,-3.0451,-3.0542,-2.9341,-2.8338,-2.7801,-2.7035,-2.608,-2.5841,-2.5895,-2.5895,-2.5895,-2.5895,-2.5895,-2.5895,-2.5895,-2.5895,-2.5895,-2.5895,-2.5895,-2.5895,-2.5895,-2.5841,-2.5633,-2.524,-2.465,-2.4213,-2.3809,-2.3241,-2.3001,-2.3001,-2.3001,-2.3001,-2.3001,-2.2852,-2.2628,-2.2166,-2.1634,-2.0624,-1.9766,-1.9371,-1.9292,-1.9292,-1.9292,-1.9292,-1.9292,-1.9292,-1.9292,-1.9292,-1.9292,-1.9292,-1.9292,-1.9228,-1.8935,-1.8852,-1.8742,-1.8568,-1.8339,-1.8146,-1.8109,-1.8064,-1.7798,-1.7477,-1.7248,-1.7027,-1.6885,-1.676,-1.6621,-1.6473,-1.6123,-1.5692,-1.533,-1.4903,-1.4034,-1.3244,-1.2806,-1.2592,-1.2452,-1.2305,-1.2305,-1.2432,-1.2585,-1.2746,-1.2879,-1.2913,-1.3006,-1.3233,-1.3427,-1.3561,-1.3694,-1.3814,-1.3874,-1.3861,-1.3928,-1.4075,-1.3995,-1.3874,-2.9934,-3.0598,-2.9415,-2.9277,-2.9741,-2.9792,-2.9779,-2.9869,-3.0011,-3.0164,-3.0152,-3.0546,-3.0698,-3.0773,-3.0911,-3.0986,-3.0986,-3.0986,-3.0869,-3.0624,-3.0264,-2.8938,-2.798,-2.7412,-2.661,-2.5872,-2.5611,-2.5895,-2.5895,-2.5895,-2.5895,-2.5895,-2.5895,-2.5895,-2.5895,-2.5895,-2.5895,-2.5895,-2.5895,-2.5841,-2.571,-2.5426,-2.4967,-2.4465,-2.4093,-2.3667,-2.3241,-2.3078,-2.3056,-2.3023,-2.3001,-2.299,-2.2916,-2.2916,-2.2231,-2.1242,-2.0001,-1.9608,-1.9301,-1.9292,-1.9292,-1.9292,-1.9292,-1.9292,-1.9292,-1.9292,-1.9292,-1.9292,-1.9292,-1.9292,-1.9246,-1.9173,-1.91,-1.8962,-1.8806,-1.8586,-1.8357,-1.8284,-1.8265,-1.8036,-1.7669,-1.7394,-1.7049,-1.693,-1.6473,-1.6114,-1.5833,-1.533,-1.4903,-1.4394,-1.3962,-1.3535,-1.2886,-1.2452,-1.2305,-1.2305,-1.2398,-1.2432,-1.2478,-1.2612,-1.2772,-1.2946,-1.3033,-1.3186,-1.3467,-1.3667,-1.3788,-1.3901,-1.4008,-1.4048,-1.4008,-1.4028,-1.4088,-1.4088,-1.4015,-2.9982,-3.0895,-2.9487,-2.9264,-2.9754,-2.9934,-3.0011,-3.0011,-3.0228,-3.0368,-3.0546,-3.0622,-3.0773,-3.0911,-3.0986,-3.0986,-3.0986,-3.0921,-3.0673,-3.029,-2.9786,-2.8438,-2.7585,-2.6924,-2.612,-2.5724,-2.5611,-2.5895,-2.5895,-2.5895,-2.5895,-2.5895,-2.5895,-2.5895,-2.5895,-2.5895,-2.5895,-2.5895,-2.5895,-2.571,-2.5491,-2.5229,-2.4683,-2.4181,-2.4093,-2.3646,-2.322,-2.3296,-2.3263,-2.3045,-2.3012,-2.2852,-2.2327,-2.2327,-2.1787,-2.0692,-2.0079,-1.9766,-1.9371,-1.9292,-1.9292,-1.9292,-1.9292,-1.9292,-1.9292,-1.9292,-1.9292,-1.9292,-1.9292,-1.9292,-1.9292,-1.9246,-1.9219,-1.9127,-1.9017,-1.8926,-1.8742,-1.8733,-1.8687,-1.8339,-1.7972,-1.755,-1.7204,-1.6483,-1.6044,-1.5621,-1.5117,-1.4617,-1.4186,-1.36,-1.331,-1.2879,-1.2666,-1.2378,-1.2305,-1.2305,-1.2452,-1.2565,-1.2592,-1.2672,-1.2879,-1.3039,-1.316,-1.3373,-1.3661,-1.3861,-1.4015,-1.4088,-1.4088,-1.4088,-1.4062,-1.4075,-1.4088,-1.4088,-1.4088,-2.9673,-3.0465,-2.898,-2.8799,-2.9568,-3.0139,-3.0318,-3.0394,-3.0457,-3.0609,-3.0698,-3.0773,-3.0911,-3.0986,-3.0986,-3.0986,-3.0986,-3.0973,-3.0817,-3.0472,-2.9351,-2.8349,-2.7392,-2.6601,-2.5972,-2.5654,-2.56,-2.5895,-2.5895,-2.5895,-2.5895,-2.5895,-2.5895,-2.5895,-2.5895,-2.5895,-2.5895,-2.5895,-2.583,-2.559,-2.5295,-2.4978,-2.4388,-2.3951,-2.3995,-2.3547,-2.3198,-2.3427,-2.3263,-2.3045,-2.3001,-2.2703,-2.2025,-2.1645,-2.1252,-2.0235,-1.9844,-1.9608,-1.9381,-1.9292,-1.9292,-1.9292,-1.9292,-1.9292,-1.9292,-1.9292,-1.9292,-1.9292,-1.9292,-1.9292,-1.9292,-1.9292,-1.9292,-1.9283,-1.9274,-1.9274,-1.9265,-1.9256,-1.9008,-1.8669,-1.8256,-1.7798,-1.7135,-1.6324,-1.5542,-1.5108,-1.4466,-1.3745,-1.339,-1.3025,-1.2806,-1.2519,-1.2452,-1.2305,-1.2305,-1.2325,-1.2465,-1.2585,-1.2645,-1.2759,-1.2979,-1.314,-1.3253,-1.3534,-1.3861,-1.3995,-1.4088,-1.4088,-1.4088,-1.4088,-1.4088,-1.4088,-1.4088,-1.4088,-1.4088,-2.925,-3.0065,-2.8158,-2.8154,-2.9223,-3.0134,-3.0517,-3.0633,-3.0568,-3.0659,-3.0761,-3.0911,-3.0986,-3.0986,-3.0986,-3.0986,-3.0986,-3.0986,-3.0973,-3.0846,-2.9227,-2.816,-2.7471,-2.6697,-2.5777,-2.5491,-2.559,-2.5895,-2.5895,-2.5895,-2.5895,-2.5895,-2.5895,-2.5852,-2.5732,-2.5863,-2.5841,-2.5699,-2.5655,-2.548,-2.5043,-2.465,-2.4213,-2.3777,-2.3504,-2.322,-2.3198,-2.3176,-2.311,-2.3132,-2.2863,-2.2574,-2.1634,-2.0867,-2.0245,-2.001,-1.9618,-1.945,-1.9292,-1.9292,-1.9292,-1.9292,-1.9292,-1.9292,-1.9292,-1.9292,-1.9292,-1.9292,-1.9292,-1.9292,-1.9292,-1.9292,-1.9292,-1.9292,-1.9292,-1.9292,-1.9292,-1.9283,-1.9155,-1.8843,-1.854,-1.8082,-1.7542,-1.6722,-1.5874,-1.5023,-1.4034,-1.331,-1.2893,-1.2606,-1.2472,-1.2318,-1.2305,-1.2305,-1.2305,-1.2351,-1.2472,-1.2579,-1.2665,-1.2812,-1.3006,-1.318,-1.3347,-1.3614,-1.3881,-1.4001,-1.4088,-1.4088,-1.4088,-1.4088,-1.4088,-1.4088,-1.4088,-1.4088,-1.4088,-2.9394,-2.943,-2.8557,-2.8545,-2.9039,-2.9279,-2.9749,-3.0259,-3.0272,-3.052,-3.0859,-3.0986,-3.0986,-3.0986,-3.0986,-3.0986,-3.0986,-3.0986,-3.0986,-3.034,-2.9063,-2.8215,-2.7424,-2.6348,-2.5521,-2.5409,-2.56,-2.5895,-2.5895,-2.5895,-2.5895,-2.5895,-2.5852,-2.571,-2.5524,-2.5699,-2.571,-2.5557,-2.5404,-2.5229,-2.4803,-2.4268,-2.3787,-2.382,-2.3755,-2.3897,-2.3929,-2.4006,-2.4071,-2.4093,-2.2874,-2.1859,-2.0702,-1.9923,-1.9618,-1.946,-1.9381,-1.9292,-1.9292,-1.9292,-1.9292,-1.9292,-1.9292,-1.9292,-1.9292,-1.9292,-1.9292,-1.9292,-1.9292,-1.9292,-1.9292,-1.9292,-1.9292,-1.9292,-1.9292,-1.9292,-1.9292,-1.9265,-1.9237,-1.9026,-1.876,-1.8318,-1.7842,-1.7106,-1.624,-1.5248,-1.4137,-1.339,-1.306,-1.2788,-1.2526,-1.2371,-1.2311,-1.2305,-1.2305,-1.2351,-1.2465,-1.2599,-1.2782,-1.2866,-1.3053,-1.328,-1.35,-1.3654,-1.3848,-1.3995,-1.4088,-1.4088,-1.4088,-1.4088,-1.4088,-1.4088,-1.4088,-1.4088,-1.4088,-2.9364,-2.9009,-2.8469,-2.8402,-2.8653,-2.8957,-2.947,-2.9947,-2.9876,-3.0215,-3.0921,-3.0986,-3.0986,-3.0986,-3.0986,-3.0986,-3.0986,-3.0986,-3.0986,-3.0353,-2.9197,-2.8378,-2.7284,-2.6323,-2.5842,-2.5611,-2.5732,-2.5895,-2.5895,-2.5895,-2.5895,-2.5863,-2.5753,-2.5579,-2.5415,-2.56,-2.5611,-2.5524,-2.5284,-2.5022,-2.4672,-2.4192,-2.394,-2.4071,-2.3973,-2.4093,-2.4028,-2.3995,-2.3666,-2.3126,-2.1907,-2.1148,-2.0313,-1.9696,-1.9371,-1.9292,-1.9292,-1.9292,-1.9292,-1.9292,-1.9292,-1.9292,-1.9292,-1.9292,-1.9292,-1.9292,-1.9292,-1.9292,-1.9292,-1.9292,-1.9292,-1.9292,-1.9292,-1.9292,-1.9292,-1.9292,-1.9292,-1.9283,-1.9265,-1.9201,-1.8926,-1.8623,-1.804,-1.7349,-1.6473,-1.5357,-1.4278,-1.3505,-1.3209,-1.2952,-1.2675,-1.2445,-1.2405,-1.2331,-1.2305,-1.2358,-1.2438,-1.2585,-1.2746,-1.3026,-1.326,-1.3467,-1.3667,-1.3814,-1.3935,-1.4015,-1.4088,-1.4088,-1.4088,-1.4088,-1.4088,-1.4088,-1.4088,-1.4088,-1.4088,-2.9289,-2.8821,-2.8262,-2.8006,-2.8153,-2.8734,-2.9327,-2.9745,-2.9483,-2.9889,-3.0777,-3.0934,-3.0986,-3.0986,-3.0986,-3.0986,-3.0986,-3.0986,-3.0986,-3.0508,-2.9201,-2.8464,-2.7681,-2.6719,-2.613,-2.5808,-2.5884,-2.5895,-2.5895,-2.5895,-2.5874,-2.5797,-2.5633,-2.5448,-2.559,-2.5568,-2.5448,-2.548,-2.5349,-2.5196,-2.4792,-2.4334,-2.4257,-2.4028,-2.3766,-2.3482,-2.3558,-2.3373,-2.2886,-2.231,-2.1592,-2.0644,-2.002,-1.9539,-1.9371,-1.9292,-1.9292,-1.9292,-1.9292,-1.9292,-1.9292,-1.9292,-1.9292,-1.9292,-1.9292,-1.9292,-1.9292,-1.9292,-1.9292,-1.9292,-1.9292,-1.9292,-1.9292,-1.9292,-1.9292,-1.9292,-1.9292,-1.9292,-1.9292,-1.9292,-1.9081,-1.8806,-1.81,-1.748,-1.6623,-1.549,-1.4576,-1.3802,-1.3237,-1.3017,-1.2763,-1.2661,-1.2614,-1.2458,-1.2345,-1.2345,-1.2412,-1.2619,-1.2819,-1.3166,-1.3373,-1.3512,-1.3678,-1.3975,-1.4082,-1.4088,-1.4088,-1.4088,-1.4088,-1.4088,-1.4088,-1.4088,-1.4088,-1.4088,-1.4088,-2.9369,-2.8958,-2.7934,-2.7504,-2.7665,-2.7782,-2.819,-2.8739,-2.9144,-2.968,-3.0281,-3.079,-3.0986,-3.0986,-3.0986,-3.0986,-3.0986,-3.0986,-3.0986,-3.0748,-2.9147,-2.8597,-2.7879,-2.6693,-2.6063,-2.5895,-2.5895,-2.5895,-2.5895,-2.5895,-2.5895,-2.5863,-2.5841,-2.56,-2.5317,-2.5349,-2.5459,-2.536,-2.524,-2.5087,-2.5011,-2.4661,-2.4465,-2.4355,-2.4334,-2.4279,-2.4203,-2.3853,-2.3841,-2.3484,-2.2313,-2.084,-1.9948,-1.945,-1.9292,-1.9292,-1.9292,-1.9292,-1.9292,-1.9292,-1.9292,-1.9292,-1.9292,-1.9292,-1.9292,-1.9292,-1.9292,-1.9292,-1.9292,-1.9292,-1.9292,-1.9292,-1.9292,-1.9292,-1.9292,-1.9292,-1.9292,-1.9292,-1.9292,-1.9213,-1.9149,-1.8581,-1.7804,-1.7243,-1.6652,-1.5581,-1.4607,-1.3892,-1.3516,-1.3223,-1.2876,-1.2862,-1.2835,-1.2512,-1.2365,-1.2325,-1.2398,-1.2625,-1.2919,-1.324,-1.3499,-1.3572,-1.3745,-1.4028,-1.4088,-1.4088,-1.4088,-1.4088,-1.4088,-1.4088,-1.4088,-1.4088,-1.4088,-1.4088,-1.4088]},{"header":{"parameterUnit":"m.s-1","parameterCategory":1,"la1":31.0,"la2":29.5877,"lo1":-88.7671,"lo2":-86.6584,"dy":0.0162,"dx":0.0185,"nx":115,"ny":88,"refTime":"2023-07-29T12:00:00:Z","depth":0,"parameterNumber":3,"parameterNumberName":"V-component_of_WINDS"},"data":[0.0,0.0,0.0,0.0,0.0,0.0,0.0,0.0,0.0,0.0,0.0,0.0,0.0,0.0,0.0,0.0,0.0,0.0,0.0,0.0,0.0,0.0,0.0,0.0,0.0,0.0,0.0,0.0,0.0,0.0,0.0,0.0,0.0,0.0,0.0,0.0,0.0,0.0,0.0,0.0,0.0,0.0,0.0,0.0,0.0,0.0,0.0,0.0,0.0,0.0,0.0,0.0,0.0,0.0,0.0,0.0,0.0,0.0,0.0,0.0,0.0,0.0,0.0,0.0,0.0,0.0,0.0,0.0,0.0,0.0,0.0,0.0,0.0,0.0,0.0,0.0,0.0,0.0,0.0,0.0,0.0,0.0,0.0,0.0,0.0,0.0,0.0,0.0,0.0,0.0,0.0,0.0,0.0,0.0,0.0,0.0,0.0,0.0,0.0,0.0,0.0,0.0,0.0,0.0,0.0,0.0,0.0,0.0,0.0,0.0,0.0,0.0,0.0,0.0,0.0,0.0,0.0,0.0,0.0,0.0,0.0,0.0,0.0,0.0,0.0,0.0,0.0,0.0,0.0,0.0,0.0,0.0,0.0,0.0,0.0,0.0,0.0,0.0,0.0,0.0,0.0,0.0,0.0,0.0,0.0,0.0,0.0,0.0,0.0,0.0,0.0,0.0,0.0,0.0,0.0,0.0,0.0,0.0,0.0,0.0,0.0,0.0,0.0,0.0,0.0,0.0,0.0,0.0,0.0,0.0,0.0,0.0,0.0,0.0,0.0,0.0,0.0,0.0,0.0,0.0,0.0,0.0,0.0,0.0,0.0,0.0,0.0,0.0,0.0,0.0,0.0,0.0,0.0,0.0,0.0,0.0,0.0,0.0,0.0,0.0,0.0,0.0,0.0,0.0,0.0,0.0,0.0,0.0,0.0,0.0,0.0,0.0,0.0,0.0,0.0,0.0,0.0,0.0,0.0,0.0,0.0,0.0,0.0,0.0,0.0,0.0,0.0,0.0,0.0,0.0,0.0,0.0,0.0,0.0,0.0,0.0,0.0,0.0,0.0,0.0,0.0,0.0,0.0,0.0,0.0,0.0,0.0,0.0,0.0,0.0,0.0,0.0,0.0,0.0,0.0,0.0,0.0,0.0,0.0,0.0,0.0,0.0,0.0,0.0,0.0,0.0,0.0,0.0,0.0,0.0,0.0,0.0,0.0,0.0,0.0,0.0,0.0,0.0,0.0,0.0,0.0,0.0,0.0,0.0,0.0,0.0,0.0,0.0,0.0,0.0,0.0,0.0,0.0,0.0,0.0,0.0,0.0,0.0,0.0,0.0,0.0,0.0,0.0,0.0,0.0,0.0,0.0,0.0,0.0,0.0,0.0,0.0,0.0,0.0,0.0,0.0,0.0,0.0,0.0,0.0,0.0,0.0,0.0,0.0,0.0,0.0,0.0,0.0,0.0,0.0,0.0,0.0,0.0,0.0,0.0,0.0,0.0,0.0,0.0,0.0,0.0,0.0,0.0,0.0,0.0,0.0,0.0,0.0,0.0,0.0,0.0,0.0,0.0,0.0,0.0,0.0,0.0,0.0,0.0,0.0,0.0,0.0,0.0,0.0,0.0,0.0,0.0,0.0,0.0,0.0,0.0,0.0,0.0,0.0,0.0,0.0,0.0,0.0,0.0,0.0,0.0,0.0,0.0,0.0,0.0,0.0,0.0,0.0,0.0,0.0,0.0,0.0,0.0,0.0,0.0,0.0,0.0,0.0,0.0,0.0,0.0,0.0,0.0,0.0,0.0,0.0,0.0,0.0,0.0,0.0,0.0,0.0,0.0,0.0,0.0,0.0,0.0,0.0,0.0,0.0,0.0,0.0,0.0,0.0,0.0,0.0,0.0,0.0,0.0,0.0,0.0,0.0,0.0,0.0,0.0,0.0,0.0,0.0,0.0,0.0,0.0,0.0,0.0,0.0,0.0,0.0,0.0,0.0,0.0,0.0,0.0,0.0,0.0,0.0,0.0,0.0,0.0,0.0,0.0,0.0,0.0,0.0,0.0,0.0,0.0,0.0,0.0,0.0,0.0,0.0,0.0,0.0,0.0,0.0,0.0,0.0,0.0,0.0,0.0,0.0,0.0,0.0,0.0,0.0,0.0,0.0,0.0,0.0,0.0,0.0,0.0,0.0,0.0,0.0,0.0,0.0,0.0,0.0,0.0,0.0,0.0,0.0,0.0,0.0,0.0,0.0,0.0,0.0,0.0,0.0,0.0,0.0,0.0,0.0,0.0,0.0,0.0,0.0,0.0,0.0,0.0,0.0,0.0,0.0,0.0,0.0,0.0,0.0,0.0,0.0,0.0,0.0,0.0,0.0,0.0,0.0,0.0,0.0,0.0,0.0,0.0,0.0,0.0,0.0,0.0,0.0,0.0,0.0,0.0,0.0,0.0,0.0,0.0,0.0,0.0,0.0,0.0,0.0,0.0,0.0,0.0,0.0,0.0,0.0,0.0,0.0,0.0,0.0,0.0,0.0,0.0,0.0,0.0,0.0,0.0,0.0,0.0,0.0,0.0,0.0,0.0,0.0,0.0,0.0,0.0,0.0,0.0,0.0,0.0,0.0,0.0,0.0,0.0,0.0,0.0,0.0,0.0,0.0,0.0,0.0,0.0,0.0,0.0,0.0,0.0,0.0,0.0,0.0,0.0,0.0,0.0,0.0,0.0,0.0,0.0,0.0,0.0,0.0,0.0,0.0,0.0,0.0,0.0,0.0,0.0,0.0,0.0,0.0,0.0,0.0,0.0,0.0,0.0,0.0,0.0,0.0,0.0,0.0,0.0,0.0,0.0,0.0,0.0,0.0,0.0,0.0,0.0,0.0,0.0,0.0,0.0,0.0,0.0,0.0,0.0,0.0,0.0,0.0,0.0,0.0,0.0,0.0,0.0,0.0,0.0,0.0,0.0,0.0,0.0,0.0,0.0,0.0,0.0,0.0,0.0,0.0,0.0,0.0,0.0,0.0,0.0,0.0,0.0,0.0,0.0,0.0,0.0,0.0,0.0,0.0,0.0,0.0,0.0,0.0,0.0,0.0,0.0,0.0,0.0,0.0,0.0,0.0,0.0,0.0,0.0,0.0,0.0,0.0,0.0,0.0,0.0,0.0,0.0,0.0,0.0,0.0,0.0,0.0,0.0,0.0,0.0,0.0,0.0,0.0,0.0,0.0,0.0,0.0,0.0,0.0,0.0,0.0,0.0,0.0,0.0,0.0,0.0,0.0,0.0,0.0,0.0,0.0,0.0,0.0,0.0,0.0,0.0,0.0,0.0,0.0,0.0,0.0,0.0,0.0,0.0,0.0,0.0,0.0,0.0,0.0,0.0,0.0,0.0,0.0,0.0,0.0,0.0,0.0,0.0,0.0,0.0,0.0,0.0,0.0,0.0,0.0,0.0,0.0,0.0,0.0,0.0,0.0,0.0,0.0,0.0,0.0,0.0,0.0,0.0,0.0,0.0,0.0,0.0,0.0,0.0,0.0,0.0,0.0,0.0,0.0,0.0,0.0,0.0,0.0,0.0,0.0,0.0,0.0,0.0,0.0,0.0,0.0,0.0,0.0,0.0,0.0,0.0,0.0,0.0,0.0,0.0,0.0,0.0,0.0,0.0,0.0,0.0,0.0,0.0,0.0,0.0,0.0,0.0,0.0,0.0,0.0,0.0,0.0,0.0,0.0,0.0,0.0,0.0,0.0,0.0,0.0,0.0,0.0,0.0,0.0,0.0,0.0,0.0,0.0,0.0,0.0,0.0,0.0,0.0,0.0,0.0,0.0,0.0,0.0,0.0,0.0,0.0,0.0,0.0,0.0,0.0,0.0,0.0,0.0,0.0,0.0,0.0,0.0,0.0,0.0,0.0,0.0,0.0,0.0,0.0,0.0,0.0,0.0,0.0,0.0,0.0,0.0,0.0,0.0,0.0,0.0,0.0,0.0,0.0,0.0,0.0,0.0,0.0,0.0,0.0,0.0,0.0,0.0,0.0,0.0,0.0,0.0,0.0,0.0,0.0,0.0,0.0,0.0,0.0,0.0,0.0,0.0,0.0,0.0,0.0,0.0,0.0,0.0,0.0,0.0,0.0,0.0,0.0,0.0,0.0,0.0,0.0,0.0,0.0,0.0,0.0,0.0,0.0,0.0,0.0,0.0,0.0,0.0,0.0,0.0,0.0,0.0,0.0,0.0,0.0,0.0,0.0,0.0,0.0,0.0,0.0,0.0,0.0,0.0,0.0,0.0,-1.4709,0.0,0.0,0.0,0.0,0.0,0.0,0.0,0.0,0.0,0.0,0.0,0.0,0.0,0.0,0.0,0.0,0.0,0.0,0.0,0.0,0.0,0.0,0.0,0.0,0.0,0.0,0.0,0.0,0.0,0.0,0.0,0.0,0.0,0.0,0.0,0.0,0.0,0.0,0.0,0.0,0.0,0.0,0.0,0.0,0.0,0.0,0.0,0.0,0.0,0.0,0.0,0.0,0.0,0.0,0.0,0.0,0.0,0.0,0.0,0.0,0.0,0.0,0.0,0.0,0.0,0.0,0.0,0.0,0.0,0.0,0.0,0.0,0.0,0.0,0.0,0.0,0.0,0.0,0.0,0.0,0.0,0.0,0.0,0.0,0.0,0.0,0.0,0.0,0.0,0.0,0.0,0.0,0.0,0.0,0.0,0.0,0.0,0.0,0.0,0.0,0.0,0.0,0.0,0.0,0.0,0.0,0.0,0.0,0.0,0.0,-1.3695,-1.4125,-1.4492,-1.5017,-1.57,0.0,0.0,0.0,0.0,0.0,0.0,0.0,0.0,0.0,0.0,0.0,0.0,0.0,0.0,0.0,0.0,0.0,0.0,0.0,0.0,0.0,0.0,0.0,0.0,0.0,0.0,0.0,0.0,0.0,0.0,0.0,0.0,0.0,0.0,0.0,0.0,0.0,0.0,0.0,0.0,0.0,0.0,0.0,0.0,0.0,0.0,0.0,0.0,0.0,0.0,0.0,0.0,0.0,0.0,0.0,0.0,0.0,0.0,0.0,0.0,0.0,0.0,0.0,0.0,0.0,0.0,0.0,0.0,0.0,0.0,0.0,0.0,0.0,0.0,0.0,0.0,0.0,0.0,0.0,0.0,0.0,0.0,0.0,0.0,0.0,0.0,0.0,0.0,0.0,0.0,0.0,0.0,0.0,0.0,0.0,0.0,0.0,0.0,0.0,0.0,0.0,0.0,0.0,0.0,0.0,0.0,0.0,0.0,0.0,0.0,0.0,0.0,-1.5753,-1.608,-1.7381,0.0,0.0,0.0,0.0,0.0,0.0,0.0,0.0,0.0,0.0,0.0,0.0,0.0,0.0,0.0,0.0,0.0,0.0,0.0,0.0,0.0,0.0,0.0,0.0,0.0,0.0,0.0,0.0,0.0,0.0,0.0,0.0,0.0,0.0,0.0,0.0,0.0,0.0,0.0,0.0,0.0,0.0,0.0,0.0,0.0,0.0,0.0,0.0,0.0,0.0,0.0,0.0,0.0,0.0,0.0,0.0,0.0,0.0,0.0,0.0,0.0,0.0,0.0,0.0,0.0,0.0,0.0,0.0,0.0,0.0,0.0,0.0,0.0,0.0,0.0,0.0,0.0,0.0,0.0,0.0,0.0,0.0,0.0,0.0,0.0,0.0,0.0,0.0,0.0,0.0,0.0,0.0,0.0,0.0,0.0,0.0,0.0,0.0,0.0,0.0,0.0,0.0,0.0,0.0,0.0,0.0,0.0,0.0,0.0,0.0,-1.6474,-1.8154,-1.7955,0.0,-1.9459,0.0,0.0,0.0,0.0,0.0,0.0,0.0,0.0,0.0,0.0,0.0,0.0,0.0,0.0,0.0,0.0,0.0,0.0,0.0,0.0,0.0,0.0,0.0,0.0,0.0,0.0,0.0,0.0,0.0,0.0,0.0,0.0,0.0,0.0,0.0,0.0,0.0,0.0,0.0,0.0,0.0,0.0,0.0,0.0,0.0,0.0,0.0,0.0,0.0,0.0,0.0,0.0,0.0,0.0,0.0,0.0,0.0,0.0,0.0,0.0,0.0,0.0,0.0,0.0,0.0,0.0,0.0,0.0,0.0,0.0,0.0,0.0,0.0,0.0,0.0,0.0,0.0,0.0,0.0,0.0,0.0,0.0,0.0,0.0,0.0,0.0,0.0,0.0,0.0,0.0,0.0,0.0,0.0,0.0,0.0,0.0,0.0,0.0,0.0,0.0,0.0,0.0,0.0,0.0,0.0,0.0,0.0,0.0,0.0,0.0,-1.6856,-1.7836,-1.8041,-1.8299,0.0,0.0,0.0,0.0,0.0,0.0,0.0,0.0,0.0,0.0,0.0,0.0,0.0,0.0,0.0,0.0,0.0,0.0,0.0,0.0,0.0,0.0,0.0,0.0,0.0,0.0,0.0,0.0,0.0,0.0,0.0,0.0,0.0,0.0,0.0,0.0,0.0,0.0,0.0,0.0,0.0,0.0,0.0,0.0,0.0,0.0,0.0,0.0,0.0,0.0,0.0,0.0,0.0,0.0,0.0,0.0,0.0,0.0,0.0,0.0,0.0,0.0,0.0,0.0,0.0,0.0,0.0,0.0,0.0,0.0,0.0,0.0,0.0,0.0,0.0,0.0,0.0,0.0,0.0,0.0,0.0,0.0,0.0,0.0,0.0,0.0,0.0,0.0,0.0,0.0,0.0,0.0,0.0,0.0,0.0,0.0,0.0,0.0,0.0,0.0,0.0,0.0,0.0,0.0,0.0,0.0,0.0,0.0,0.0,0.0,-1.7167,-1.7368,-1.786,-1.7882,-1.7931,-1.8099,0.0,0.0,0.0,0.0,0.0,0.0,0.0,0.0,0.0,0.0,0.0,0.0,0.0,0.0,0.0,0.0,0.0,0.0,0.0,0.0,0.0,0.0,0.0,0.0,0.0,0.0,0.0,0.0,0.0,0.0,0.0,0.0,0.0,0.0,0.0,0.0,0.0,0.0,0.0,0.0,0.0,0.0,0.0,0.0,0.0,0.0,0.0,0.0,0.0,0.0,0.0,0.0,0.0,0.0,0.0,0.0,0.0,0.0,0.0,0.0,0.0,0.0,0.0,0.0,0.0,0.0,0.0,0.0,0.0,0.0,0.0,0.0,0.0,0.0,0.0,0.0,0.0,0.0,0.0,0.0,0.0,0.0,0.0,0.0,0.0,0.0,0.0,0.0,0.0,0.0,0.0,0.0,0.0,0.0,0.0,0.0,0.0,0.0,0.0,0.0,0.0,0.0,0.0,0.0,0.0,0.0,0.0,0.0,-1.9986,-1.8623,-1.8294,-1.9098,-1.7944,-1.7728,0.0,0.0,0.0,0.0,0.0,0.0,0.0,0.0,0.0,0.0,0.0,0.0,0.0,0.0,0.0,0.0,0.0,0.0,0.0,0.0,0.0,0.0,0.0,0.0,0.0,0.0,0.0,0.0,0.0,0.0,0.0,0.0,0.0,0.0,0.0,0.0,0.0,0.0,0.0,0.0,0.0,0.0,0.0,0.0,0.0,0.0,0.0,0.0,0.0,0.0,0.0,0.0,0.0,0.0,0.0,0.0,0.0,0.0,0.0,0.0,0.0,0.0,0.0,0.0,0.0,0.0,0.0,0.0,0.0,0.0,0.0,0.0,0.0,0.0,0.0,0.0,0.0,0.0,0.0,0.0,0.0,0.0,0.0,0.0,0.0,0.0,0.0,0.0,0.0,0.0,0.0,0.0,0.0,0.0,0.0,0.0,0.0,0.0,0.0,0.0,0.0,0.0,0.0,0.0,0.0,0.0,0.0,0.0,0.0,-1.7165,-1.6752,-1.7008,-1.7961,-1.7193,-1.7356,0.0,0.0,0.0,0.0,0.0,0.0,0.0,0.0,0.0,0.0,0.0,0.0,0.0,0.0,0.0,0.0,0.0,0.0,0.0,0.0,0.0,0.0,0.0,0.0,0.0,0.0,0.0,0.0,0.0,0.0,0.0,0.0,0.0,0.0,0.0,0.0,0.0,0.0,0.0,0.0,0.0,0.0,0.0,0.0,0.0,0.0,0.0,0.0,0.0,0.0,0.0,0.0,0.0,0.0,0.0,0.0,0.0,0.0,0.0,0.0,0.0,0.0,0.0,0.0,0.0,0.0,0.0,0.0,0.0,0.0,0.0,0.0,0.0,0.0,0.0,0.0,0.0,0.0,0.0,0.0,0.0,0.0,0.0,0.0,0.0,0.0,0.0,0.0,0.0,0.0,0.0,0.0,0.0,0.0,0.0,0.0,0.0,0.0,0.0,0.0,0.0,0.0,0.0,0.0,0.0,0.0,0.0,0.0,0.0,-1.6367,0.0,-1.6835,0.0,-1.6676,-1.682,0.0,0.0,0.0,0.0,0.0,0.0,0.0,0.0,0.0,0.0,0.0,0.0,0.0,0.0,0.0,0.0,0.0,0.0,0.0,0.0,0.0,0.0,0.0,0.0,0.0,0.0,0.0,0.0,0.0,0.0,0.0,0.0,0.0,0.0,0.0,0.0,0.0,0.0,0.0,0.0,0.0,0.0,0.0,0.0,0.0,0.0,0.0,0.0,0.0,0.0,0.0,0.0,0.0,0.0,0.0,0.0,0.0,0.0,0.0,0.0,0.0,0.0,0.0,0.0,0.0,0.0,0.0,0.0,0.0,0.0,0.0,0.0,0.0,0.0,0.0,0.0,0.0,0.0,0.0,0.0,0.0,0.0,0.0,0.0,0.0,0.0,0.0,0.0,0.0,0.0,0.0,0.0,0.0,0.0,0.0,0.0,0.0,0.0,0.0,0.0,0.0,0.0,0.0,0.0,0.0,0.0,0.0,0.0,-1.6883,-1.813,-1.8362,-1.7873,-1.6701,-1.6523,-1.6179,0.0,0.0,0.0,0.0,0.0,0.0,0.0,0.0,0.0,0.0,0.0,0.0,0.0,0.0,0.0,0.0,0.0,0.0,0.0,0.0,0.0,0.0,0.0,0.0,0.0,0.0,0.0,0.0,0.0,0.0,0.0,0.0,0.0,0.0,0.0,0.0,0.0,0.0,0.0,0.0,0.0,0.0,0.0,0.0,0.0,0.0,0.0,0.0,0.0,0.0,0.0,0.0,0.0,0.0,0.0,0.0,0.0,0.0,0.0,0.0,0.0,0.0,0.0,0.0,0.0,0.0,0.0,0.0,0.0,0.0,0.0,0.0,0.0,0.0,0.0,0.0,0.0,0.0,0.0,0.0,0.0,0.0,0.0,0.0,0.0,0.0,0.0,0.0,0.0,0.0,0.0,0.0,0.0,0.0,0.0,0.0,0.0,0.0,0.0,0.0,0.0,0.0,0.0,0.0,0.0,0.0,0.0,0.0,0.0,-1.5945,-1.6708,-1.787,-1.9271,-1.7101,-1.7008,0.0,0.0,0.0,0.0,0.0,0.0,0.0,0.0,0.0,0.0,0.0,0.0,0.0,0.0,0.0,0.0,0.0,0.0,0.0,0.0,0.0,0.0,0.0,0.0,0.0,0.0,0.0,0.0,0.0,0.0,0.0,0.0,0.0,0.0,0.0,0.0,0.0,0.0,0.0,0.0,0.0,0.0,0.0,0.0,0.0,0.0,0.0,0.0,0.0,0.0,0.0,0.0,0.0,0.0,0.0,0.0,0.0,0.0,0.0,0.0,0.0,0.0,0.0,0.0,0.0,0.0,0.0,0.0,0.0,0.0,0.0,0.0,0.0,0.0,0.0,0.0,0.0,0.0,0.0,0.0,0.0,0.0,0.0,0.0,0.0,0.0,0.0,0.0,0.0,0.0,0.0,0.0,0.0,0.0,0.0,0.0,0.0,0.0,0.0,0.0,0.0,0.0,0.0,0.0,0.0,0.0,0.0,0.0,0.0,-1.7038,-1.7849,-1.9003,-2.0354,-1.8242,-1.7896,-1.9558,0.0,0.0,0.0,0.0,0.0,0.0,0.0,0.0,0.0,0.0,0.0,0.0,0.0,0.0,0.0,0.0,0.0,0.0,0.0,0.0,0.0,0.0,0.0,0.0,0.0,0.0,0.0,0.0,0.0,0.0,0.0,0.0,0.0,0.0,0.0,0.0,0.0,0.0,0.0,0.0,0.0,0.0,0.0,0.0,0.0,0.0,0.0,0.0,0.0,0.0,0.0,0.0,0.0,0.0,0.0,0.0,0.0,0.0,0.0,0.0,0.0,0.0,0.0,0.0,0.0,0.0,0.0,0.0,0.0,0.0,0.0,0.0,0.0,0.0,0.0,0.0,0.0,0.0,0.0,0.0,0.0,0.0,0.0,0.0,0.0,0.0,0.0,0.0,0.0,0.0,0.0,0.0,0.0,0.0,0.0,0.0,0.0,0.0,0.0,0.0,0.0,0.0,0.0,0.0,0.0,0.0,0.0,0.0,-2.0668,-2.1426,-2.1334,-2.0306,-1.9844,-1.8913,0.0,0.0,0.0,0.0,0.0,0.0,0.0,0.0,0.0,0.0,0.0,0.0,0.0,0.0,0.0,0.0,0.0,0.0,0.0,0.0,0.0,0.0,0.0,0.0,0.0,0.0,0.0,0.0,0.0,0.0,0.0,0.0,0.0,0.0,0.0,0.0,0.0,0.0,0.0,0.0,0.0,0.0,0.0,0.0,0.0,0.0,0.0,0.0,0.0,0.0,0.0,0.0,0.0,0.0,0.0,0.0,0.0,0.0,0.0,0.0,0.0,0.0,0.0,0.0,0.0,0.0,0.0,0.0,0.0,0.0,0.0,0.0,0.0,0.0,0.0,0.0,0.0,0.0,0.0,0.0,0.0,0.0,0.0,0.0,0.0,0.0,0.0,0.0,0.0,0.0,0.0,0.0,0.0,0.0,0.0,0.0,0.0,0.0,0.0,0.0,0.0,0.0,0.0,0.0,0.0,0.0,0.0,0.0,0.0,-2.3498,-2.492,-2.5019,-2.3677,-2.1824,-2.0826,0.0,0.0,0.0,0.0,0.0,0.0,0.0,0.0,0.0,0.0,0.0,0.0,0.0,0.0,0.0,0.0,0.0,0.0,0.0,0.0,0.0,0.0,0.0,0.0,0.0,0.0,0.0,0.0,0.0,0.0,0.0,0.0,0.0,0.0,0.0,0.0,0.0,0.0,0.0,0.0,0.0,0.0,0.0,0.0,0.0,0.0,0.0,0.0,0.0,0.0,0.0,0.0,0.0,0.0,0.0,0.0,0.0,0.0,0.0,0.0,0.0,0.0,0.0,0.0,0.0,0.0,0.0,0.0,0.0,0.0,0.0,0.0,0.0,0.0,0.0,0.0,0.0,0.0,0.0,0.0,0.0,0.0,0.0,0.0,0.0,0.0,0.0,0.0,0.0,0.0,0.0,0.0,0.0,0.0,0.0,0.0,0.0,0.0,0.0,0.0,0.0,0.0,0.0,0.0,0.0,0.0,0.0,0.0,-2.4,-2.4941,-2.7086,-2.7612,-2.6284,-2.4337,-2.2762,0.0,0.0,0.0,0.0,0.0,0.0,0.0,0.0,0.0,0.0,0.0,0.0,0.0,0.0,0.0,0.0,0.0,0.0,0.0,0.0,0.0,0.0,0.0,0.0,0.0,0.0,0.0,0.0,0.0,0.0,0.0,0.0,0.0,0.0,0.0,0.0,0.0,0.0,0.0,0.0,0.0,0.0,0.0,0.0,0.0,0.0,0.0,0.0,0.0,0.0,0.0,0.0,0.0,0.0,0.0,0.0,0.0,0.0,0.0,0.0,0.0,0.0,0.0,0.0,0.0,0.0,0.0,0.0,0.0,0.0,0.0,0.0,0.0,0.0,0.0,0.0,0.0,0.0,0.0,0.0,0.0,0.0,0.0,0.0,0.0,0.0,0.0,0.0,0.0,0.0,0.0,0.0,0.0,0.0,0.0,0.0,0.0,0.0,0.0,0.0,0.0,0.0,0.0,0.0,0.0,0.0,0.0,0.0,-2.4934,-2.5563,-2.8367,-2.9302,-2.8138,-2.6663,-2.4383,0.0,0.0,0.0,0.0,0.0,0.0,0.0,0.0,0.0,0.0,0.0,0.0,0.0,0.0,0.0,0.0,0.0,0.0,0.0,0.0,0.0,0.0,0.0,0.0,0.0,0.0,0.0,0.0,0.0,0.0,0.0,0.0,0.0,0.0,0.0,0.0,0.0,0.0,0.0,0.0,0.0,0.0,0.0,0.0,0.0,0.0,0.0,0.0,0.0,0.0,0.0,0.0,0.0,0.0,0.0,0.0,0.0,0.0,0.0,0.0,0.0,0.0,0.0,0.0,0.0,0.0,0.0,0.0,0.0,0.0,0.0,0.0,0.0,0.0,0.0,0.0,0.0,0.0,0.0,0.0,0.0,0.0,0.0,0.0,0.0,0.0,0.0,0.0,0.0,0.0,0.0,0.0,0.0,0.0,0.0,0.0,0.0,0.0,0.0,0.0,0.0,0.0,0.0,0.0,0.0,0.0,0.0,0.0,-2.5315,-2.6486,-2.8886,-2.9832,-2.913,-2.6122,-2.3865,0.0,0.0,0.0,0.0,0.0,0.0,0.0,0.0,0.0,0.0,0.0,0.0,0.0,0.0,0.0,0.0,0.0,0.0,0.0,0.0,0.0,0.0,0.0,0.0,0.0,0.0,0.0,0.0,0.0,0.0,0.0,0.0,0.0,0.0,0.0,0.0,0.0,0.0,0.0,0.0,0.0,0.0,0.0,0.0,0.0,0.0,0.0,0.0,-2.388,0.0,0.0,0.0,0.0,0.0,0.0,0.0,0.0,0.0,0.0,0.0,0.0,0.0,0.0,0.0,0.0,0.0,0.0,0.0,0.0,0.0,0.0,0.0,0.0,0.0,0.0,0.0,0.0,0.0,0.0,0.0,0.0,0.0,0.0,0.0,0.0,0.0,0.0,0.0,0.0,0.0,0.0,0.0,0.0,0.0,0.0,0.0,0.0,0.0,0.0,0.0,0.0,0.0,0.0,0.0,0.0,0.0,0.0,0.0,-2.6219,-2.7704,-2.9667,-3.0557,-3.0119,-2.6886,-2.4577,0.0,0.0,0.0,0.0,0.0,0.0,0.0,0.0,0.0,0.0,0.0,0.0,0.0,0.0,0.0,0.0,0.0,0.0,0.0,0.0,0.0,0.0,0.0,0.0,0.0,0.0,0.0,0.0,0.0,0.0,0.0,0.0,0.0,0.0,0.0,0.0,0.0,0.0,0.0,0.0,0.0,0.0,0.0,0.0,0.0,0.0,0.0,0.0,0.0,0.0,0.0,0.0,0.0,0.0,0.0,0.0,0.0,0.0,0.0,0.0,0.0,0.0,0.0,0.0,0.0,0.0,0.0,0.0,0.0,0.0,0.0,0.0,0.0,0.0,0.0,0.0,0.0,0.0,0.0,0.0,0.0,0.0,0.0,0.0,0.0,0.0,0.0,0.0,0.0,0.0,0.0,0.0,0.0,0.0,0.0,0.0,0.0,0.0,0.0,0.0,0.0,0.0,0.0,0.0,0.0,0.0,0.0,-2.5421,-2.7228,-2.9101,-3.0624,-3.1392,-3.1347,-2.8248,-2.5949,-2.4685,0.0,0.0,0.0,0.0,0.0,0.0,0.0,0.0,0.0,0.0,0.0,0.0,0.0,0.0,0.0,0.0,0.0,0.0,0.0,0.0,0.0,0.0,0.0,0.0,0.0,0.0,0.0,0.0,0.0,0.0,0.0,0.0,0.0,0.0,0.0,0.0,0.0,0.0,-2.3672,-2.4908,0.0,0.0,0.0,0.0,0.0,0.0,0.0,0.0,-2.4544,0.0,0.0,0.0,0.0,0.0,0.0,0.0,0.0,0.0,0.0,0.0,0.0,0.0,0.0,0.0,0.0,0.0,0.0,0.0,0.0,0.0,0.0,0.0,0.0,0.0,0.0,0.0,0.0,0.0,0.0,0.0,0.0,0.0,0.0,0.0,0.0,0.0,0.0,0.0,0.0,0.0,0.0,0.0,0.0,0.0,0.0,0.0,0.0,0.0,0.0,0.0,0.0,0.0,0.0,0.0,0.0,-2.4971,-2.5872,-2.781,-3.0876,-3.1803,-3.2216,-3.2139,-2.9794,-2.7813,-2.6207,0.0,0.0,0.0,0.0,0.0,0.0,0.0,0.0,0.0,0.0,0.0,0.0,0.0,0.0,0.0,0.0,0.0,0.0,0.0,0.0,0.0,0.0,0.0,0.0,0.0,0.0,0.0,0.0,0.0,0.0,0.0,0.0,0.0,0.0,0.0,0.0,0.0,0.0,0.0,-2.5258,-2.5989,0.0,0.0,0.0,0.0,0.0,0.0,0.0,0.0,-2.4921,0.0,0.0,0.0,0.0,0.0,0.0,0.0,0.0,0.0,0.0,0.0,0.0,0.0,0.0,0.0,0.0,0.0,0.0,0.0,0.0,0.0,0.0,0.0,0.0,0.0,0.0,0.0,0.0,0.0,0.0,0.0,0.0,0.0,0.0,0.0,0.0,0.0,0.0,0.0,0.0,0.0,0.0,0.0,0.0,0.0,0.0,0.0,0.0,0.0,0.0,0.0,0.0,0.0,0.0,0.0,-2.5446,-2.6918,-2.881,-3.1297,-3.2338,-3.2632,-3.2242,-2.9815,-2.786,0.0,0.0,0.0,0.0,0.0,0.0,0.0,0.0,0.0,0.0,0.0,0.0,0.0,0.0,0.0,0.0,0.0,0.0,0.0,0.0,0.0,0.0,0.0,0.0,0.0,0.0,0.0,0.0,0.0,0.0,0.0,0.0,0.0,0.0,0.0,0.0,0.0,0.0,0.0,0.0,-2.5928,-2.6356,-2.6145,0.0,0.0,0.0,0.0,0.0,0.0,-2.5205,-2.5106,0.0,0.0,0.0,0.0,0.0,0.0,0.0,0.0,0.0,0.0,0.0,0.0,0.0,0.0,0.0,0.0,0.0,0.0,0.0,0.0,0.0,0.0,0.0,0.0,0.0,0.0,0.0,0.0,0.0,0.0,0.0,0.0,0.0,0.0,0.0,0.0,0.0,0.0,0.0,0.0,0.0,0.0,0.0,0.0,0.0,0.0,0.0,0.0,0.0,0.0,0.0,0.0,0.0,0.0,0.0,-2.5955,-2.7837,-2.9681,-3.1426,-3.2593,-3.2831,-3.2133,-2.9499,-2.7657,0.0,0.0,0.0,0.0,0.0,0.0,0.0,0.0,0.0,0.0,0.0,0.0,0.0,0.0,0.0,0.0,0.0,0.0,0.0,0.0,0.0,0.0,0.0,0.0,0.0,0.0,0.0,0.0,0.0,0.0,0.0,0.0,0.0,0.0,0.0,0.0,0.0,0.0,0.0,0.0,0.0,-2.689,-2.5973,-2.6894,0.0,0.0,0.0,0.0,-2.5799,-2.5812,0.0,0.0,0.0,0.0,0.0,0.0,0.0,0.0,0.0,0.0,0.0,0.0,0.0,0.0,0.0,0.0,0.0,0.0,0.0,0.0,0.0,0.0,0.0,0.0,0.0,0.0,0.0,0.0,0.0,0.0,0.0,0.0,0.0,0.0,0.0,0.0,0.0,0.0,0.0,0.0,0.0,0.0,0.0,0.0,0.0,0.0,0.0,0.0,0.0,0.0,0.0,0.0,0.0,0.0,0.0,0.0,-2.6525,-2.802,-2.983,-3.1822,-3.2676,-3.2757,-3.203,-2.9851,-2.8068,0.0,0.0,0.0,0.0,0.0,0.0,0.0,0.0,0.0,0.0,0.0,0.0,0.0,0.0,0.0,0.0,0.0,0.0,0.0,0.0,0.0,0.0,0.0,0.0,0.0,0.0,0.0,0.0,0.0,0.0,0.0,0.0,0.0,0.0,0.0,0.0,0.0,0.0,0.0,0.0,0.0,-2.7994,-2.772,-2.7701,-2.7439,0.0,0.0,0.0,-2.5217,-2.6902,0.0,0.0,0.0,0.0,0.0,0.0,0.0,0.0,0.0,0.0,0.0,0.0,0.0,0.0,0.0,0.0,0.0,0.0,0.0,0.0,0.0,0.0,0.0,0.0,0.0,0.0,0.0,0.0,0.0,0.0,0.0,0.0,0.0,0.0,0.0,0.0,0.0,0.0,0.0,0.0,0.0,0.0,0.0,0.0,0.0,0.0,0.0,0.0,0.0,0.0,0.0,0.0,0.0,0.0,0.0,-2.3872,-2.5438,-2.764,-2.9437,-3.0765,-3.1882,-3.1931,-3.0814,-2.9081,-2.7316,0.0,0.0,0.0,0.0,0.0,0.0,0.0,0.0,0.0,0.0,0.0,0.0,0.0,0.0,0.0,0.0,0.0,0.0,0.0,0.0,0.0,0.0,0.0,0.0,0.0,0.0,0.0,0.0,0.0,0.0,0.0,0.0,0.0,0.0,0.0,0.0,0.0,0.0,0.0,0.0,0.0,0.0,-2.8198,-2.8415,0.0,0.0,0.0,-2.7963,-2.7757,0.0,0.0,0.0,0.0,0.0,0.0,0.0,0.0,0.0,0.0,0.0,0.0,0.0,0.0,0.0,0.0,0.0,0.0,0.0,0.0,0.0,0.0,0.0,0.0,0.0,0.0,0.0,0.0,0.0,0.0,0.0,0.0,0.0,0.0,0.0,0.0,0.0,0.0,0.0,0.0,0.0,0.0,0.0,0.0,0.0,0.0,0.0,0.0,0.0,0.0,0.0,0.0,0.0,0.0,0.0,0.0,0.0,-2.4515,-2.7154,-2.8871,-2.9643,-3.0652,-3.0684,-2.9659,-2.8207,0.0,0.0,0.0,0.0,0.0,0.0,0.0,0.0,0.0,0.0,0.0,0.0,0.0,0.0,0.0,0.0,0.0,0.0,0.0,0.0,0.0,0.0,0.0,0.0,0.0,0.0,0.0,-2.3494,0.0,0.0,0.0,0.0,0.0,0.0,0.0,0.0,0.0,0.0,0.0,0.0,0.0,0.0,-2.9679,-2.8849,-2.9608,-3.0071,0.0,0.0,-2.911,-2.9459,-2.8807,-2.8198,0.0,0.0,0.0,0.0,0.0,0.0,0.0,0.0,0.0,0.0,0.0,0.0,0.0,0.0,0.0,0.0,0.0,0.0,0.0,0.0,0.0,0.0,0.0,0.0,0.0,0.0,0.0,0.0,0.0,0.0,0.0,0.0,0.0,0.0,0.0,0.0,0.0,0.0,0.0,0.0,0.0,0.0,0.0,0.0,0.0,0.0,0.0,0.0,0.0,0.0,0.0,0.0,0.0,0.0,0.0,-2.4547,-2.6668,-2.8126,-2.8822,-2.8951,-2.8951,-2.8854,-2.7494,-2.6037,0.0,0.0,0.0,0.0,0.0,0.0,0.0,0.0,0.0,0.0,0.0,0.0,0.0,0.0,0.0,0.0,0.0,0.0,0.0,0.0,0.0,0.0,0.0,0.0,0.0,0.0,0.0,0.0,0.0,0.0,0.0,0.0,0.0,0.0,0.0,0.0,0.0,0.0,0.0,0.0,0.0,-3.123,-3.0295,-3.1578,-3.219,0.0,0.0,-3.0229,-2.8493,-2.9658,-2.9956,-2.7503,0.0,0.0,0.0,0.0,0.0,0.0,0.0,0.0,0.0,0.0,0.0,0.0,0.0,0.0,0.0,0.0,0.0,0.0,0.0,0.0,0.0,0.0,0.0,0.0,0.0,0.0,0.0,0.0,0.0,0.0,0.0,0.0,0.0,0.0,0.0,0.0,0.0,0.0,0.0,0.0,0.0,0.0,0.0,0.0,0.0,0.0,0.0,0.0,0.0,0.0,0.0,0.0,0.0,-2.3661,-2.3918,-2.5972,-2.7219,-2.7494,-2.7899,-2.7931,-2.751,-2.6976,-2.581,0.0,0.0,0.0,0.0,0.0,0.0,0.0,0.0,0.0,0.0,0.0,0.0,0.0,0.0,0.0,0.0,0.0,0.0,0.0,0.0,0.0,0.0,0.0,0.0,0.0,0.0,0.0,0.0,-2.3494,-2.3868,-2.4819,0.0,0.0,0.0,0.0,0.0,0.0,0.0,0.0,0.0,0.0,-3.176,-3.1894,-3.2364,0.0,0.0,-3.1969,-3.1337,-3.1072,-3.0745,-3.019,-2.9194,-2.8526,0.0,0.0,0.0,0.0,0.0,0.0,0.0,0.0,0.0,0.0,0.0,0.0,0.0,0.0,0.0,0.0,0.0,0.0,0.0,0.0,0.0,0.0,0.0,0.0,0.0,0.0,0.0,0.0,0.0,0.0,0.0,0.0,0.0,0.0,0.0,0.0,0.0,0.0,0.0,0.0,0.0,0.0,0.0,0.0,0.0,0.0,0.0,0.0,0.0,0.0,0.0,0.0,-2.3547,-2.3529,-2.5389,-2.6474,-2.6701,-2.6944,-2.696,-2.6701,-2.649,-2.5454,0.0,0.0,0.0,0.0,0.0,0.0,0.0,0.0,0.0,0.0,0.0,0.0,0.0,0.0,0.0,0.0,0.0,0.0,0.0,0.0,0.0,0.0,0.0,0.0,0.0,0.0,0.0,0.0,-2.3494,-2.4034,-2.5337,0.0,0.0,0.0,0.0,0.0,0.0,0.0,0.0,0.0,0.0,-3.1903,-3.2456,-3.261,-3.29,-3.3468,-3.2283,-3.1533,-3.202,-3.1115,-3.0162,-2.973,0.0,0.0,0.0,0.0,0.0,0.0,0.0,0.0,0.0,0.0,0.0,0.0,0.0,0.0,0.0,0.0,0.0,0.0,0.0,0.0,0.0,0.0,0.0,0.0,0.0,0.0,0.0,0.0,0.0,0.0,0.0,0.0,0.0,0.0,0.0,0.0,0.0,0.0,0.0,0.0,0.0,0.0,0.0,0.0,0.0,0.0,0.0,0.0,0.0,0.0,0.0,0.0,0.0,-2.3565,-2.3545,-2.4936,-2.5988,-2.6636,-2.6021,-2.6005,-2.6636,-2.6021,-2.4968,-2.3562,0.0,0.0,0.0,0.0,0.0,0.0,0.0,0.0,0.0,0.0,0.0,0.0,0.0,0.0,0.0,0.0,0.0,0.0,0.0,0.0,0.0,0.0,0.0,0.0,0.0,0.0,-2.3494,-2.3494,-2.3832,0.0,0.0,0.0,0.0,0.0,0.0,0.0,0.0,0.0,0.0,-3.0725,-3.1706,-3.1742,-3.2384,-3.2902,-3.2902,-3.1569,-3.054,-3.0594,-3.0401,-2.9821,0.0,0.0,0.0,0.0,0.0,0.0,0.0,0.0,0.0,0.0,0.0,0.0,0.0,0.0,0.0,0.0,0.0,0.0,0.0,0.0,0.0,0.0,0.0,0.0,0.0,0.0,0.0,0.0,0.0,0.0,0.0,0.0,0.0,0.0,0.0,0.0,0.0,0.0,0.0,0.0,-2.5616,-2.5616,0.0,0.0,0.0,0.0,0.0,0.0,0.0,0.0,0.0,0.0,0.0,0.0,-2.3777,-2.4159,-2.513,-2.5729,-2.5956,-2.5729,-2.5729,-2.5972,-2.5745,-2.4936,-2.3562,0.0,0.0,0.0,0.0,0.0,0.0,0.0,0.0,0.0,0.0,0.0,0.0,0.0,0.0,0.0,0.0,0.0,0.0,0.0,0.0,0.0,0.0,0.0,0.0,0.0,-2.3494,0.0,0.0,0.0,0.0,0.0,0.0,0.0,0.0,0.0,0.0,0.0,-2.9101,-2.9369,-3.0725,-3.1706,-3.1706,-3.2254,-3.2527,0.0,0.0,0.0,0.0,0.0,0.0,0.0,0.0,0.0,0.0,0.0,0.0,0.0,0.0,-2.9426,-2.9016,-2.8984,-2.9262,-2.9993,0.0,0.0,0.0,0.0,0.0,0.0,0.0,0.0,0.0,0.0,0.0,0.0,0.0,0.0,0.0,0.0,-2.5729,0.0,0.0,0.0,0.0,0.0,0.0,0.0,0.0,-2.5616,-2.5616,-2.5616,-2.5616,-2.5357,0.0,-2.5389,-2.513,0.0,0.0,0.0,0.0,0.0,0.0,0.0,0.0,-2.41,-2.4499,-2.5227,-2.5616,-2.5616,-2.5616,-2.5616,-2.5616,-2.5431,-2.4805,-2.3666,-2.335,-2.2845,0.0,0.0,0.0,0.0,0.0,0.0,0.0,0.0,0.0,0.0,0.0,0.0,0.0,0.0,0.0,0.0,0.0,0.0,0.0,0.0,0.0,0.0,0.0,-2.3494,0.0,0.0,0.0,0.0,0.0,0.0,0.0,0.0,0.0,-2.853,-2.8834,-2.9405,-3.0475,-3.1011,-3.1492,-3.2028,0.0,0.0,0.0,0.0,0.0,0.0,0.0,-3.0095,-3.033,-3.0082,-3.016,-3.1154,-3.0802,-3.0201,-2.9674,0.0,0.0,-2.9443,-2.9543,-3.0029,-3.0779,-3.0707,-3.0368,-2.9886,-2.9565,-2.9173,0.0,0.0,0.0,0.0,0.0,0.0,0.0,0.0,-2.696,-2.6685,0.0,0.0,0.0,0.0,0.0,0.0,0.0,0.0,0.0,0.0,-2.5632,-2.5632,-2.5697,-2.5648,-2.5632,-2.5648,-2.5632,-2.56,-2.5551,-2.4871,0.0,0.0,0.0,0.0,0.0,0.0,-2.4499,-2.4563,-2.5243,-2.5616,-2.5616,-2.5616,-2.5616,-2.56,-2.5157,-2.461,-2.3885,-2.3667,-2.3209,-2.2462,-2.263,0.0,0.0,0.0,0.0,0.0,0.0,0.0,0.0,0.0,0.0,0.0,0.0,0.0,0.0,0.0,0.0,0.0,0.0,0.0,0.0,-2.3494,0.0,0.0,0.0,0.0,0.0,0.0,0.0,0.0,0.0,0.0,-2.9405,-2.8834,-2.9405,-3.2402,0.0,0.0,0.0,0.0,-3.0832,-3.1546,-3.1028,-3.0814,-3.151,-3.1617,-3.1367,-3.0672,0.0,0.0,-3.2883,-3.1607,-3.0618,-3.0547,-3.0618,-3.0273,-2.9396,-2.9977,-3.0796,-3.1546,-3.1171,-3.0636,-3.0457,-2.994,-2.9244,-2.6371,0.0,0.0,0.0,0.0,-2.7508,-2.7721,-2.7656,-2.6992,-2.6701,-2.6652,-2.5924,0.0,0.0,0.0,0.0,0.0,0.0,-2.5907,-2.6345,-2.5859,-2.6134,-2.7057,-2.6085,-2.5875,-2.6361,-2.5859,-2.5616,-2.5616,-2.5405,-2.492,-2.4223,0.0,0.0,0.0,0.0,-2.4794,-2.5276,-2.5503,-2.5616,-2.5616,-2.5616,-2.5616,-2.5616,-2.548,-2.5138,-2.4593,-2.4696,-2.4281,-2.3243,-2.3367,0.0,0.0,0.0,0.0,0.0,0.0,0.0,0.0,0.0,0.0,0.0,0.0,0.0,0.0,0.0,0.0,0.0,0.0,0.0,-2.3494,-2.3494,-2.3731,0.0,0.0,0.0,0.0,0.0,0.0,0.0,0.0,0.0,-3.0779,-3.035,-3.0386,0.0,0.0,-3.1528,-3.1974,-3.1653,-3.1225,-3.0903,0.0,0.0,0.0,-3.085,-3.0957,-3.1296,-3.2201,-3.2912,-3.2888,-3.2509,-3.2028,-3.1474,-3.1813,-3.1956,-3.1194,-3.1159,-3.1617,-3.2313,-3.2349,-3.1813,-3.0761,-3.0315,-2.9768,-2.7535,-2.6396,-2.6842,-2.7344,-2.7842,-2.7652,-2.7561,-2.754,-2.675,-2.6431,-2.6422,-2.5847,-2.5616,-2.5616,-2.5616,0.0,0.0,0.0,-2.5843,-2.6247,-2.5826,-2.6069,-2.6782,-2.6005,-2.5843,-2.6231,-2.5826,-2.5616,-2.5616,-2.5616,-2.5389,-2.4952,0.0,0.0,-2.4936,-2.4989,-2.5199,-2.56,-2.5616,-2.5616,-2.5616,-2.5616,-2.5637,-2.5749,-2.5844,-2.57,-2.523,-2.5478,-2.5009,-2.3676,-2.3749,-2.3515,0.0,0.0,0.0,0.0,0.0,0.0,0.0,0.0,0.0,0.0,0.0,-2.3494,-2.3494,0.0,0.0,0.0,-2.3494,-2.3618,-2.3922,-2.3672,0.0,0.0,0.0,0.0,0.0,0.0,0.0,-2.9351,-2.9244,-2.9779,-3.1439,-3.1278,-3.1385,-3.2491,-3.2099,-3.192,-3.2563,0.0,-3.1635,-3.1474,-3.1849,-3.1992,-3.1528,-3.1457,-3.1617,-3.2081,-3.2563,-3.2902,-3.2894,-3.2905,-3.2723,-3.2349,-3.2545,-3.2741,-3.2259,-3.2152,-3.2295,-3.2777,-3.2834,-3.2343,-3.1102,-3.0574,-2.991,-2.8885,-2.7835,-2.7455,-2.8051,-2.9035,-2.7934,-2.7458,-2.7412,-2.6533,-2.6103,-2.6034,-2.5796,-2.5664,-2.5616,-2.5616,0.0,0.0,-2.5616,-2.561,-2.5697,-2.5632,-2.5664,-2.574,-2.5643,-2.5648,-2.5713,-2.5632,-2.5616,-2.5616,-2.5616,-2.5616,-2.5616,-2.5616,-2.5616,-2.5616,-2.5616,-2.5616,-2.5616,-2.5616,-2.5616,-2.5616,-2.5616,-2.5712,-2.599,-2.6243,-2.6168,-2.5807,-2.6042,-2.5459,-2.4022,-2.3919,-2.3648,-2.314,0.0,0.0,0.0,0.0,0.0,0.0,0.0,0.0,0.0,0.0,0.0,0.0,0.0,0.0,0.0,-2.3529,0.0,-2.473,-2.41,0.0,0.0,0.0,-2.6229,-2.7085,-2.8513,-2.9458,-2.9565,0.0,0.0,0.0,0.0,-3.2331,-3.3812,-3.2723,-3.2349,-3.3883,-3.2759,-3.2063,-3.2719,-3.288,-3.2898,-3.2755,-3.2773,-3.2773,-3.2827,-3.2916,-3.2916,-3.2884,-3.2884,-3.2916,-3.2862,-3.2898,-3.2898,-3.2898,-3.2844,-3.2898,-3.2777,-3.2716,-3.2391,-3.1558,-3.079,-2.999,-2.945,-2.9102,-2.858,-2.8218,-2.7926,-2.8066,-2.8073,-2.8044,-2.7682,-2.7024,-2.6259,-2.6382,-2.6134,-2.5616,-2.5616,-2.5616,-2.5616,-2.5616,-2.5907,-2.6393,-2.5859,-2.6183,-2.7138,-2.6102,-2.5907,-2.6377,-2.5891,-2.5616,-2.5616,-2.5616,-2.5616,-2.5616,-2.5616,-2.5616,-2.5616,-2.5616,-2.5616,-2.5616,-2.5616,-2.5616,-2.5616,-2.5616,-2.5712,-2.5974,-2.6046,-2.623,-2.652,-2.6602,-2.6093,-2.4941,-2.4871,-2.4257,-2.3014,-2.3144,0.0,0.0,0.0,0.0,0.0,0.0,0.0,0.0,0.0,-2.4159,-2.3529,0.0,-2.4177,0.0,-2.4052,-2.473,-2.5461,-2.5354,0.0,0.0,-2.671,-2.7264,-2.8673,-2.9173,-2.9851,-3.1011,-3.1296,-3.1706,-3.2509,-3.2616,-3.2773,-3.3148,-3.288,-3.2973,-3.3919,-3.3259,-3.267,-3.2862,-3.2916,-3.2916,-3.2916,-3.2916,-3.2916,-3.2916,-3.2916,-3.2916,-3.2916,-3.2916,-3.2916,-3.2916,-3.2916,-3.2916,-3.2916,-3.2916,-3.2634,-3.217,-3.2406,-3.257,-3.1787,-3.1418,-3.0809,-3.0132,-2.9595,-2.9247,-2.8674,-2.8015,-2.7733,-2.7645,-2.7605,-2.7117,-2.6382,-2.5559,-2.5778,-2.5802,-2.5632,-2.5616,-2.5616,-2.5616,-2.5616,-2.5843,-2.6183,-2.581,-2.6037,-2.6749,-2.5988,-2.5826,-2.6199,-2.581,-2.5616,-2.5632,-2.5956,-2.6085,-2.6102,-2.6393,-2.6555,-2.6523,-2.5924,-2.5616,-2.5616,-2.5616,-2.5616,-2.5616,-2.5712,-2.5917,-2.6189,-2.6279,-2.6556,-2.7006,-2.7006,-2.6447,-2.5292,-2.5205,-2.4547,-2.3175,-2.3217,-2.3289,0.0,0.0,0.0,0.0,0.0,0.0,0.0,0.0,0.0,0.0,0.0,-2.4659,0.0,0.0,0.0,-2.6264,-2.6015,-2.6264,-2.7424,-2.721,-2.7478,-2.8744,-2.9476,-3.0225,-3.1064,-3.1778,-3.2384,-3.2862,-3.2916,-3.2916,-3.2916,-3.2916,-3.3045,-3.3419,-3.3152,-3.2916,-3.2916,-3.2916,-3.2916,-3.2916,-3.2916,-3.2916,-3.2916,-3.2916,-3.2916,-3.2916,-3.2916,-3.2916,-3.2916,-3.2916,-3.2866,-3.277,-3.2787,-3.2577,-3.2196,-3.232,-3.232,-3.1664,-3.1388,-3.0871,-3.0742,-2.9508,-2.9668,-2.9334,-2.8608,-2.7578,-2.7055,-2.6875,-2.616,-2.548,-2.4837,-2.4963,-2.5219,-2.5653,-2.5615,-2.5669,-2.5745,-2.5648,-2.5616,-2.5616,-2.5616,-2.5616,-2.5616,-2.5616,-2.5616,-2.5616,-2.5713,-2.5745,-2.5778,-2.6393,-2.6749,-2.6847,-2.7316,-2.7624,-2.7656,-2.649,-2.5891,-2.5875,-2.5697,-2.5648,-2.5767,-2.5893,-2.6118,-2.6453,-2.6657,-2.6923,-2.7299,-2.7299,-2.6688,-2.5449,-2.5344,-2.4793,-2.3647,-2.3477,-2.3531,0.0,-2.3708,0.0,0.0,0.0,0.0,0.0,0.0,0.0,0.0,-2.4855,-2.5158,-2.589,-2.5943,-2.6282,-2.7085,-2.6514,-2.6675,-2.7986,-2.7585,-2.7478,-2.8298,-2.9565,-3.044,-3.0636,-3.1885,-3.2791,-3.2898,-3.2916,-3.2916,-3.2916,-3.2916,-3.2934,-3.2934,-3.2934,-3.2916,-3.2916,-3.2916,-3.2916,-3.2916,-3.2916,-3.2916,-3.2916,-3.2916,-3.2916,-3.2916,-3.2916,-3.2916,-3.2916,-3.2916,-3.2834,-3.2639,-3.2588,-3.2486,-3.2124,-3.2195,-3.2125,-3.1598,-3.1338,-3.0785,-3.048,-2.8971,-2.9972,-2.974,-2.871,-2.8956,-2.8507,-2.7534,-2.7839,-2.7188,-2.5984,-2.5546,-2.558,-2.5925,-2.5869,-2.6102,-2.6458,-2.5891,-2.5616,-2.5616,-2.5616,-2.5616,-2.5616,-2.5616,-2.5616,-2.561,-2.6215,-2.649,-2.6506,-2.662,-2.6976,-2.7494,-2.7106,-2.7154,0.0,0.0,0.0,0.0,-2.6199,-2.6005,-2.6754,-2.6043,-2.6026,-2.6691,-2.6556,0.0,-2.725,-2.7299,-2.693,-2.6132,-2.6109,0.0,0.0,0.0,0.0,0.0,0.0,0.0,0.0,0.0,0.0,0.0,-2.5461,-2.5401,-2.5569,-2.5604,-2.5925,-2.6675,-2.6782,-2.7103,-2.7888,-2.7843,-2.7861,-2.8128,-2.8039,-2.8281,-2.9084,-2.944,-3.0065,-3.1332,-3.1742,-3.217,-3.2809,-3.2916,-3.2916,-3.2916,-3.2916,-3.2916,-3.2916,-3.2916,-3.2916,-3.2916,-3.2916,-3.2916,-3.2916,-3.2916,-3.2916,-3.2916,-3.2916,-3.2916,-3.2916,-3.2916,-3.2916,-3.2916,-3.2916,-3.2852,-3.2639,-3.2588,-3.2362,-3.1563,-3.188,-3.2248,-3.2108,-3.2055,-3.1759,-3.0771,0.0,-3.0366,-3.0205,0.0,0.0,-2.9552,-2.8637,-2.8594,-2.775,-2.6364,-2.5783,-2.5379,-2.5201,-2.567,-2.5885,-2.5774,-2.5647,-2.5616,-2.5616,-2.5616,-2.5616,-2.5632,-2.5972,-2.615,-2.6183,-2.6863,-2.7187,-2.7203,-2.7543,-2.7899,-2.8223,-2.8255,-2.8433,-2.8757,-2.8417,-2.8077,-2.7721,-2.7008,-2.6808,-2.7059,-2.6714,-2.6626,-2.6808,0.0,0.0,0.0,0.0,0.0,0.0,0.0,0.0,0.0,0.0,0.0,-2.5447,-2.5277,-2.5333,-2.574,-2.58,-2.5979,-2.6371,-2.6764,-2.6835,-2.6425,-2.6764,-2.7157,-2.7549,-2.7603,-2.7763,-2.8128,-2.8182,-2.8182,-2.8182,-2.8182,-2.836,-2.878,-2.9173,-2.9851,-3.0903,-3.1457,-3.1992,-3.2809,-3.2916,-3.2916,-3.2916,-3.2916,-3.2916,-3.2916,-3.2916,-3.2916,-3.2916,-3.2916,-3.2916,-3.2916,-3.2916,-3.2916,-3.2916,-3.2916,-3.2916,-3.2916,-3.2916,-3.2916,-3.2916,-3.2916,-3.2852,-3.2672,-3.2588,-3.2364,-3.1846,-3.1934,-3.2161,-3.2091,-3.2126,-3.1935,-3.109,-3.0422,-3.0584,-3.0569,-3.0408,-3.0584,-3.0337,-2.974,0.0,0.0,0.0,-2.602,-2.5348,-2.4744,-2.5461,-2.5523,-2.5132,-2.5442,-2.5697,-2.581,-2.581,-2.5859,-2.6021,-2.6604,-2.6863,-2.6911,-2.7575,-2.7899,-2.7915,-2.8498,-2.8871,-2.9016,-2.9453,-2.9772,-2.9853,-2.9318,-2.8676,-2.8109,-2.785,-2.7639,-2.7471,-2.7587,-2.7408,-2.6995,-2.7261,-2.7388,-2.7299,-2.7299,-2.7051,-2.6561,-2.6527,-2.6289,-2.581,-2.568,-2.5682,-2.5914,-2.5835,-2.5897,-2.616,-2.6203,-2.6488,-2.7174,-2.7835,-2.7942,-2.7264,-2.7835,-2.8182,-2.8182,-2.8182,-2.8182,-2.8182,-2.8182,-2.8182,-2.8182,-2.8182,-2.8182,-2.8235,-2.8762,-2.9512,-3.0386,-3.1082,-3.1849,-3.2755,-3.2916,-3.2916,-3.2916,-3.2916,-3.2916,-3.2916,-3.2916,-3.2916,-3.2916,-3.2916,-3.2916,-3.2916,-3.2916,-3.2916,-3.2916,-3.2916,-3.2916,-3.2916,-3.2916,-3.2916,-3.2916,-3.2916,-3.2802,-3.2588,-3.2521,-3.2438,-3.2108,-3.2054,-3.2001,-3.1873,-3.1929,-3.181,-3.0843,-2.9798,-3.0469,-3.0381,-2.9798,-3.0469,-3.0644,-3.035,-2.9189,-2.8272,-2.7472,-2.6884,-2.6488,-2.6221,-2.5572,-2.5508,-2.5812,-2.5683,-2.594,0.0,-2.6555,-2.6863,-2.7397,-2.7527,-2.7559,-2.7624,-2.8304,-2.8628,-2.8644,-2.8741,-2.9113,-2.961,-2.9253,-2.9302,-2.9853,-2.9805,-2.9708,-2.9594,-2.8336,-2.8111,-2.8885,-2.8372,-2.8015,-2.7776,-2.7845,-2.769,-2.7316,-2.7316,-2.7324,-2.7339,-2.7339,-2.7287,-2.7195,-2.6702,-2.6678,-2.7168,-2.6748,-2.6831,-2.7607,-2.7705,-2.7786,-2.8004,-2.8128,-2.8146,-2.8066,-2.811,-2.8182,-2.8182,-2.8182,-2.8182,-2.8182,-2.8182,-2.8182,-2.8182,-2.8182,-2.8182,-2.8182,-2.8307,-2.8976,-3.0332,-3.0582,-3.1278,-3.263,-3.2916,-3.2916,-3.2916,-3.2916,-3.2916,-3.2916,-3.2916,-3.2916,-3.2916,-3.2916,-3.2916,-3.2916,-3.2916,-3.2916,-3.2916,-3.2916,-3.2916,-3.2916,-3.2884,-3.2884,-3.2884,-3.2884,-3.2737,-3.2438,-3.2352,-3.2214,-3.1948,-3.191,-3.1856,-3.18,-3.1837,-3.1785,-3.1216,-3.0456,-3.0822,-3.0734,-3.0412,-3.0704,-3.0762,-3.0644,-3.0031,-2.9145,-2.8245,-2.794,-2.7357,-2.6624,-2.6352,-2.6153,-2.6012,-2.5731,-2.581,-2.6102,-2.6102,-2.649,-2.7154,-2.7527,-2.7915,-2.832,-2.9032,-2.9372,-2.9416,-2.9416,-2.9578,-2.9886,-2.9578,-2.9594,-2.9886,-2.9918,-2.9918,-2.9902,-2.9391,-2.9223,-2.9463,-2.9359,-2.9124,-2.875,-2.8819,-2.851,-2.792,-2.7885,-2.7728,-2.7407,-2.7407,-2.739,-2.7373,-2.7213,-2.725,-2.7577,-2.7478,-2.7568,-2.8081,-2.8099,-2.8109,-2.8182,-2.8182,-2.8182,-2.8182,-2.8182,-2.8182,-2.8182,-2.8182,-2.8182,-2.8182,-2.8182,-2.8182,-2.8182,-2.8182,-2.8182,-2.8182,-2.8182,-2.8834,-3.019,-3.0493,-3.1118,-3.2688,-3.2916,-3.2916,-3.2916,-3.2916,-3.2916,-3.2916,-3.2916,-3.2916,-3.2916,-3.2916,-3.2916,-3.2916,-3.2916,-3.2916,-3.2916,-3.2916,-3.2916,-3.2884,-3.282,-3.2737,-3.2737,-3.2672,-3.2521,-3.2318,-3.2283,-3.2197,-3.2037,-3.1965,-3.1929,-3.1837,-3.18,-3.18,-3.1633,-3.1087,-3.1132,-3.1132,-3.1146,-3.0955,-3.0895,-3.0895,-3.0762,-3.0148,-2.9217,-2.8868,-2.8023,-2.6966,-2.72,-2.6901,-2.6162,-2.6254,-2.6328,-2.6328,-2.6328,-2.6717,-2.7397,-2.7964,-2.8498,-2.9032,-2.9643,-2.9918,-2.9918,-2.9918,-3.0016,-3.0085,-3.0145,-3.0243,-3.0405,-3.0182,-3.0145,-3.0145,-3.0238,-3.0154,-2.9865,-3.0162,-3.0125,-2.9694,-2.973,-2.942,-2.8696,-2.8661,-2.8332,-2.7673,-2.7587,-2.7518,-2.7362,-2.7452,-2.7557,-2.763,-2.7777,-2.7968,-2.8126,-2.8182,-2.8182,-2.8182,-2.8182,-2.8182,-2.8182,-2.8182,-2.8182,-2.8182,-2.8182,-2.8182,-2.8182,-2.8182,-2.8182,-2.8182,-2.8182,-2.8182,-2.82,-2.8342,-2.8948,-3.0243,-3.0654,-3.135,-3.2505,-3.2916,-3.2916,-3.2916,-3.2916,-3.2916,-3.2916,-3.2916,-3.2916,-3.2916,-3.2916,-3.2916,-3.2916,-3.2916,-3.2884,-3.2852,-3.282,-3.277,-3.2737,-3.2606,-3.2521,-3.2539,-3.242,-3.2318,-3.2249,-3.2249,-3.2197,-3.2054,-3.1965,-3.1965,-3.1854,-3.18,-3.18,-3.1633,-3.1191,-3.1234,-3.1292,-3.1292,-3.1132,-3.1087,-3.1087,-3.1087,-3.0911,-3.0426,-2.926,-2.8359,-2.7735,-2.8011,-2.7503,-2.6528,-2.7828,-2.845,-2.8433,-2.8498,-2.8887,-2.9513,-2.9643,-2.9756,-2.9821,-2.9886,-2.9918,-2.9918,-2.9951,-3.0259,-3.0765,-3.083,-3.1154,-3.1623,-3.1137,-3.083,-3.0814,-3.0484,-3.0276,-3.0252,-3.0583,-3.0566,-3.016,-3.0432,-3.0213,-2.9437,-2.9403,-2.9108,-2.8578,-2.8473,-2.8178,-2.7587,-2.7513,-2.7452,-2.7376,-2.7465,-2.7677,-2.7968,-2.8126,-2.82,-2.8182,-2.8182,-2.8182,-2.8182,-2.8182,-2.8182,-2.8182,-2.8182,-2.8182,-2.8182,-2.8182,-2.8182,-2.8182,-2.8182,-2.8182,-2.8271,-2.8869,-2.9619,-3.0404,-3.1082,-3.192,-3.2702,-3.2916,-3.2916,-3.2916,-3.2916,-3.2916,-3.2916,-3.2916,-3.2884,-3.2884,-3.2884,-3.2884,-3.2866,-3.2884,-3.282,-3.2672,-3.2639,-3.2573,-3.2454,-3.2386,-3.2318,-3.2335,-3.2283,-3.2232,-3.2144,-3.2108,-3.2037,-3.1946,-3.1873,-3.1837,-3.18,-3.18,-3.18,-3.1946,-3.138,-3.1409,-3.1424,-3.1394,-3.1292,-3.1249,-3.1176,-3.1132,-3.1087,-3.0911,-3.0324,-2.9795,-2.9286,-2.9034,-2.8717,-2.8514,-2.8772,-2.9099,-2.9421,-2.9464,-2.9793,-3.0409,-3.0097,-3.0069,-3.0409,-3.0069,-2.9918,-2.9999,-3.0279,-3.0862,-3.1494,-3.1575,-3.172,-3.1979,-3.172,-3.1558,-3.1542,-3.1388,-3.1405,-3.1512,-3.1091,-3.0813,-3.0849,-3.0967,-3.0773,-3.0264,-3.0213,-2.9868,-2.921,-2.9124,-2.8795,-2.8068,-2.8094,-2.7935,-2.7473,-2.7557,-2.7689,-2.7806,-2.7996,-2.8071,-2.8081,-2.8154,-2.8182,-2.8182,-2.8182,-2.8182,-2.8182,-2.82,-2.8182,-2.82,-2.82,-2.8182,-2.8182,-2.8182,-2.82,-2.82,-2.8941,-2.969,-3.0422,-3.1189,-3.201,-3.2702,-3.2916,-3.2916,-3.2916,-3.2916,-3.2916,-3.2916,-3.2916,-3.2834,-3.2737,-3.2705,-3.2737,-3.2737,-3.2705,-3.2639,-3.2488,-3.242,-3.2352,-3.2318,-3.2214,-3.2179,-3.2179,-3.2108,-3.2037,-3.1929,-3.1929,-3.1893,-3.18,-3.18,-3.18,-3.18,-3.18,-3.18,-3.2287,-3.1526,-3.1467,-3.1467,-3.1467,-3.1409,-3.1351,-3.1351,-3.1249,-3.119,-3.1132,-3.1132,-3.0982,-3.0592,-3.0142,-3.0046,-3.0125,-2.9957,-3.0099,-3.0474,-3.0502,-3.0716,-3.1137,-3.0733,-3.0716,-3.1073,-3.0733,-3.049,-3.0506,-3.0943,-3.1591,-3.2206,-3.2303,-3.2384,-3.2546,-3.2417,-3.2303,-3.2287,-3.2125,-3.2089,-3.2204,-3.1566,-3.1241,-3.1404,-3.128,-3.1079,-3.0862,-3.0864,-3.0556,-2.9886,-2.9834,-2.9386,-2.8472,-2.8516,-2.8216,-2.7635,-2.7792,-2.7852,-2.7719,-2.7836,-2.794,-2.8014,-2.8099,-2.8154,-2.8217,-2.8378,-2.8503,-2.8538,-2.8503,-2.8538,-2.852,-2.852,-2.8548,-2.853,-2.8548,-2.852,-2.8584,-2.9226,-3.0029,-3.0761,-3.1599,-3.2206,-3.2773,-3.2916,-3.2916,-3.2916,-3.2916,-3.2916,-3.2884,-3.2834,-3.2737,-3.2621,-3.2573,-3.2539,-3.2521,-3.2521,-3.242,-3.2318,-3.2266,-3.2232,-3.2179,-3.2073,-3.2001,-3.2001,-3.1873,-3.1837,-3.1837,-3.1837,-3.1783,-3.18,-3.18,-3.18,-3.18,-3.18,-3.18,-3.2691,-3.1541,-3.1467,-3.1467,-3.1467,-3.1482,-3.1482,-3.1467,-3.1482,-3.1409,-3.1292,-3.1292,-3.1219,-3.1102,-3.1285,-3.1211,-3.0778,-3.151,-3.1899,-3.19,-3.1915,-3.1931,-3.1963,-3.1915,-3.1915,-3.1947,-3.1785,-3.1785,-3.185,-3.1931,-3.2319,-3.3016,-3.3048,-3.3356,-3.3777,-3.334,-3.3032,-3.2983,-3.2465,-3.2109,-3.2124,-3.2026,-3.1921,-3.1926,-3.1189,-3.1038,-3.1244,-3.1283,-3.1056,-3.0662,-3.0627,-2.9972,-2.8644,-2.8454,-2.8207,-2.7691,-2.8175,-2.8289,-2.7829,-2.7736,-2.7806,-2.7968,-2.8042,-2.8088,-2.8342,-2.8887,-2.9244,-2.9333,-2.9351,-2.9351,-2.9423,-2.9298,-2.9298,-2.9351,-2.9351,-2.9333,-2.9351,-3.0011,-3.0761,-3.1492,-3.2224,-3.2737,-3.2898,-3.2916,-3.2916,-3.2916,-3.2916,-3.2916,-3.2884,-3.2737,-3.2672,-3.2606,-3.2454,-3.23,-3.2318,-3.2318,-3.2266,-3.2126,-3.2073,-3.2073,-3.1929,-3.1819,-3.1819,-3.1819,-3.18,-3.18,-3.18,-3.18,-3.18,-3.18,-3.18,-3.18,-3.18,-3.18,-3.18,-3.1973,-3.1482,-3.1467,-3.1467,-3.1467,-3.1467,-3.1467,-3.1467,-3.1467,-3.1467,-3.1409,-3.1409,-3.1409,-3.1366,-3.1394,-3.1622,-3.1905,-3.2175,-3.2688,-3.3257,-3.334,-3.3356,-3.3307,-3.2919,-3.2692,-3.2643,-3.2238,-3.2255,-3.2676,-3.2692,-3.3291,-3.4165,-3.3955,-3.4084,-3.4538,-3.4084,-3.3728,-3.3712,-3.3453,-3.3566,-3.3841,-3.3178,-3.2884,-3.3219,-3.1902,-3.1425,-3.197,-3.1567,-3.1329,-3.1403,-3.1386,-3.0938,-2.9972,-2.9386,-2.8798,-2.8207,-2.8328,-2.841,-2.8254,-2.7922,-2.7789,-2.7986,-2.8099,-2.8375,-2.8859,-2.9244,-2.9583,-2.9976,-3.0101,-3.0297,-3.0547,-3.0011,-2.9619,-3.0011,-3.0101,-3.0101,-3.0261,-3.0796,-3.1403,-3.176,-3.2384,-3.2898,-3.2916,-3.2916,-3.2916,-3.2916,-3.2916,-3.2916,-3.2884,-3.2834,-3.2737,-3.2639,-3.2539,-3.2438,-3.2161,-3.2161,-3.2126,-3.1965,-3.191,-3.191,-3.18,-3.18,-3.18,-3.1837,-3.18,-3.18,-3.18,-3.18,-3.18,-3.18,-3.18,-3.18,-3.18,-3.18,-3.18,-3.1467,-3.1467,-3.1467,-3.1467,-3.1467,-3.1467,-3.1467,-3.1467,-3.1467,-3.1467,-3.1467,-3.1467,-3.1467,-3.1467,-3.1336,-3.1667,-3.2312,-3.2422,-3.298,-3.3764,-3.4,-3.4101,-3.402,-3.3631,-3.3404,-3.3356,-3.2935,-3.2951,-3.3356,-3.342,-3.3922,-3.4716,-3.4522,-3.47,-3.5056,-3.491,-3.4813,-3.4797,-3.4586,-3.47,-3.4991,-3.402,-3.3631,-3.3794,-3.2457,-3.1802,-3.2215,-3.1529,-3.1334,-3.1709,-3.18,-3.1455,-3.0731,-3.0196,-2.9558,-2.8903,-2.9023,-2.9073,-2.8908,-2.8355,-2.8223,-2.8676,-2.8585,-2.8838,-2.9626,-2.9993,-3.0404,-3.0761,-3.0886,-3.1207,-3.1617,-3.0921,-3.0368,-3.0814,-3.0886,-3.0886,-3.0903,-3.135,-3.1778,-3.2099,-3.2577,-3.288,-3.2916,-3.2916,-3.2916,-3.2916,-3.2916,-3.2916,-3.2916,-3.2834,-3.2737,-3.2573,-3.2506,-3.2335,-3.2144,-3.2073,-3.2037,-3.1893,-3.1837,-3.18,-3.18,-3.18,-3.18,-3.18,-3.18,-3.18,-3.18,-3.18,-3.18,-3.18,-3.18,-3.18,-3.18,-3.18,-3.18,-3.1467,-3.1467,-3.1467,-3.1467,-3.1467,-3.1467,-3.1467,-3.1467,-3.1467,-3.1467,-3.1467,-3.1467,-3.1467,-3.1482,-3.1351,-3.1509,-3.1879,-3.2327,-3.2772,-3.3303,-3.3815,-3.405,-3.4084,-3.4036,-3.3987,-3.3987,-3.4036,-3.402,-3.4003,-3.3987,-3.4101,-3.4279,-3.4781,-3.4991,-3.5169,-3.5623,-3.6044,-3.5817,-3.5234,-3.5088,-3.5104,-3.4441,-3.4101,-3.4101,-3.2853,-3.204,-3.1951,-3.1223,-3.1123,-3.1726,-3.18,-3.1455,-3.0817,-3.0679,-3.0351,-2.9765,-3.0179,-3.03,-2.981,-2.9077,-2.9099,-2.9717,-2.9508,-2.9515,-3.038,-3.11,-3.1528,-3.1671,-3.1724,-3.1992,-3.2541,-3.2063,-3.1617,-3.1706,-3.1706,-3.1706,-3.1724,-3.1724,-3.201,-3.2666,-3.2898,-3.2898,-3.2916,-3.2916,-3.2916,-3.2916,-3.2916,-3.2916,-3.2884,-3.2737,-3.2539,-3.2386,-3.2352,-3.2266,-3.2108,-3.1946,-3.1893,-3.1856,-3.1837,-3.18,-3.18,-3.18,-3.18,-3.18,-3.18,-3.18,-3.18,-3.18,-3.18,-3.18,-3.18,-3.18,-3.18,-3.18,-3.18,-3.1467,-3.1467,-3.1467,-3.1467,-3.1467,-3.1467,-3.1467,-3.1467,-3.1467,-3.1467,-3.1467,-3.1467,-3.1467,-3.1467,-3.1351,-3.1351,-3.1409,-3.1823,-3.2391,-3.313,-3.3423,-3.3713,-3.4034,-3.4101,-3.4101,-3.4101,-3.4101,-3.4101,-3.4117,-3.4133,-3.4311,-3.4732,-3.4586,-3.4716,-3.5169,-3.4943,-3.4797,-3.4764,-3.4554,-3.4894,-3.5704,-3.4732,-3.4554,-3.5299,-3.3761,-3.2637,-3.2276,-3.1366,-3.1157,-3.1763,-3.18,-3.1455,-3.0938,-3.1179,-3.1076,-3.0455,-3.0524,-3.0681,-3.0525,-2.9897,-2.963,-2.9997,-2.9982,-3.034,-3.1005,-3.1484,-3.1956,-3.2384,-3.2509,-3.2684,-3.2809,-3.2719,-3.2474,-3.2491,-3.2527,-3.2505,-3.2438,-3.2456,-3.2616,-3.2827,-3.2916,-3.2916,-3.2916,-3.2916,-3.2916,-3.2916,-3.2884,-3.2884,-3.2884,-3.2705,-3.2606,-3.2521,-3.2386,-3.2232,-3.2073,-3.1982,-3.1946,-3.1873,-3.1837,-3.18,-3.18,-3.18,-3.18,-3.18,-3.18,-3.18,-3.18,-3.18,-3.18,-3.18,-3.18,-3.18,-3.18,-3.18,-3.18,-3.1749,-3.1482,-3.1467,-3.1467,-3.1467,-3.1467,-3.1467,-3.1467,-3.1467,-3.1467,-3.1467,-3.1467,-3.1467,-3.1467,-3.1409,-3.1249,-3.119,-3.1552,-3.2185,-3.2879,-3.313,-3.3527,-3.4034,-3.4101,-3.4101,-3.4165,-3.436,-3.4505,-3.4505,-3.4797,-3.5153,-3.5445,-3.538,-3.5396,-3.5623,-3.5428,-3.5218,-3.4943,-3.4683,-3.4959,-3.5445,-3.4716,-3.4538,-3.5104,-3.3906,-3.2964,-3.2488,-3.1563,-3.1211,-3.1572,-3.1709,-3.1558,-3.1196,-3.1541,-3.1576,-3.1231,-3.1093,-3.1165,-3.1237,-3.0646,-3.0434,-3.074,-3.0715,-3.0973,-3.1588,-3.188,-3.2211,-3.2565,-3.2636,-3.2705,-3.277,-3.277,-3.2802,-3.2898,-3.288,-3.2916,-3.2916,-3.2916,-3.2898,-3.2916,-3.2916,-3.2916,-3.2916,-3.2916,-3.2916,-3.2884,-3.2852,-3.277,-3.2737,-3.2606,-3.2539,-3.2454,-3.2352,-3.2197,-3.2037,-3.1982,-3.2018,-3.191,-3.18,-3.18,-3.18,-3.18,-3.18,-3.18,-3.18,-3.18,-3.18,-3.18,-3.18,-3.18,-3.18,-3.18,-3.18,-3.18,-3.18,-3.2183,-3.1556,-3.1541,-3.1526,-3.1482,-3.1467,-3.1467,-3.1467,-3.1467,-3.1467,-3.1467,-3.1467,-3.1467,-3.1467,-3.1467,-3.1307,-3.1249,-3.1509,-3.1992,-3.2477,-3.2895,-3.3439,-3.4034,-3.4101,-3.4165,-3.4343,-3.4829,-3.5137,-3.5266,-3.5785,-3.6303,-3.6238,-3.661,-3.6869,-3.6335,-3.6853,-3.6513,-3.5882,-3.5396,-3.5169,-3.5234,-3.4603,-3.4262,-3.4343,-3.3647,-3.3031,-3.2531,-3.1792,-3.1324,-3.1375,-3.1634,-3.1765,-3.1765,-3.18,-3.1765,-3.1679,-3.1783,-3.1841,-3.1827,-3.1307,-3.1237,-3.183,-3.1531,-3.1529,-3.2055,-3.2194,-3.2263,-3.2335,-3.2352,-3.2386,-3.2573,-3.2606,-3.2672,-3.2802,-3.2834,-3.2884,-3.2916,-3.2884,-3.2852,-3.2834,-3.2866,-3.2834,-3.2802,-3.2802,-3.2802,-3.2802,-3.2672,-3.2588,-3.2521,-3.2438,-3.2266,-3.2197,-3.2232,-3.2091,-3.191,-3.1946,-3.1946,-3.1873,-3.18,-3.18,-3.18,-3.18,-3.18,-3.18,-3.18,-3.18,-3.18,-3.18,-3.18,-3.18,-3.18,-3.18,-3.18,-3.18,-3.1837,-3.2856,-3.2287,-3.2258,-3.1988,-3.1511,-3.1467,-3.1467,-3.1467,-3.1467,-3.1467,-3.1467,-3.1467,-3.1467,-3.1467,-3.1409,-3.1292,-3.1292,-3.1161,-3.1652,-3.2437,-3.2547,-3.3177,-3.3933,-3.4117,-3.4392,-3.4829,-3.5169,-3.5477,-3.5995,-3.6287,-3.6384,-3.6319,-3.661,-3.6562,-3.6335,-3.6011,-3.5671,-3.5493,-3.5315,-3.5153,-3.5121,-3.4975,-3.491,-3.4829,-3.4182,-3.3534,-3.2932,-3.1954,-3.1366,-3.1342,-3.1617,-3.18,-3.18,-3.18,-3.18,-3.18,-3.18,-3.1783,-3.1839,-3.1666,-3.1702,-3.1877,-3.1846,-3.1934,-3.2127,-3.2249,-3.2283,-3.2283,-3.2283,-3.2318,-3.2352,-3.2386,-3.242,-3.2488,-3.2705,-3.2866,-3.2834,-3.277,-3.2672,-3.2672,-3.2555,-3.2488,-3.2488,-3.2488,-3.2488,-3.2488,-3.242,-3.2386,-3.2352,-3.2266,-3.2108,-3.2073,-3.2037,-3.1929,-3.1837,-3.1873,-3.1873,-3.1837,-3.18,-3.1817,-3.1854,-3.1854,-3.18,-3.18,-3.18,-3.18,-3.18,-3.18,-3.18,-3.18,-3.1856,-3.1856,-3.1819,-3.1783,-3.1856,-3.311,-3.2497,-3.2213,-3.1884,-3.1539,-3.1467,-3.1467,-3.1467,-3.1467,-3.1467,-3.1467,-3.1467,-3.1467,-3.1467,-3.1424,-3.1336,-3.1292,-3.1394,-3.1709,-3.2145,-3.2586,-3.3282,-3.3998,-3.436,-3.4781,-3.5218,-3.5801,-3.6303,-3.674,-3.7015,-3.7177,-3.7242,-3.7177,-3.6902,-3.6303,-3.5914,-3.5299,-3.4862,-3.4732,-3.4716,-3.4732,-3.4716,-3.4716,-3.4651,-3.4262,-3.3777,-3.3032,-3.1729,-3.1016,-3.1263,-3.1504,-3.1671,-3.18,-3.18,-3.18,-3.18,-3.18,-3.18,-3.18,-3.18,-3.18,-3.1837,-3.1946,-3.1965,-3.1965,-3.2055,-3.2091,-3.2091,-3.2091,-3.2126,-3.2232,-3.2249,-3.2283,-3.2352,-3.2521,-3.2639,-3.2639,-3.2521,-3.2488,-3.2454,-3.2386,-3.2283,-3.2283,-3.2283,-3.2283,-3.2283,-3.2266,-3.2232,-3.2197,-3.2073,-3.1982,-3.1929,-3.1929,-3.1873,-3.1837,-3.1837,-3.1837,-3.18,-3.18,-3.18,-3.1998,-3.1981,-3.1946,-3.1929,-3.1873,-3.1837,-3.1893,-3.1856,-3.18,-3.1837,-3.1893,-3.1948,-3.1929,-3.2038,-3.2055,-3.3215,-3.2557,-3.1913,-3.1541,-3.1482,-3.1467,-3.1467,-3.1467,-3.1467,-3.1467,-3.1467,-3.1467,-3.1467,-3.1467,-3.1467,-3.1409,-3.1336,-3.1682,-3.1894,-3.2185,-3.2718,-3.3475,-3.4099,-3.457,-3.504,-3.5477,-3.6675,-3.7161,-3.7469,-3.8051,-3.8311,-3.8181,-3.8246,-3.7728,-3.6869,-3.6416,-3.5574,-3.4764,-3.4505,-3.436,-3.4327,-3.436,-3.4424,-3.4198,-3.3987,-3.3534,-3.2707,-3.1471,-3.0667,-3.1179,-3.1257,-3.1466,-3.1709,-3.1763,-3.18,-3.18,-3.18,-3.18,-3.18,-3.18,-3.18,-3.18,-3.18,-3.18,-3.1837,-3.1856,-3.1856,-3.1873,-3.18,-3.1893,-3.2037,-3.2144,-3.2179,-3.2197,-3.2266,-3.2266,-3.2249,-3.2283,-3.2283,-3.2283,-3.2249,-3.2249,-3.2249,-3.2249,-3.2249,-3.2091,-3.2091,-3.2055,-3.2037,-3.1965,-3.1873,-3.1837,-3.1837,-3.18,-3.18,-3.18,-3.18,-3.18,-3.18,-3.1891,-3.2266,-3.2284,-3.2196,-3.2144,-3.2214,-3.2179,-3.2109,-3.2038,-3.1948,-3.2055,-3.2266,-3.2179,-3.2091,-3.2369,-3.2504,-3.3888,-3.323,-3.2572,-3.1945,-3.1526,-3.1467,-3.1482,-3.1497,-3.1482,-3.1467,-3.1467,-3.1467,-3.1467,-3.1467,-3.1467,-3.1482,-3.1424,-3.1582,-3.1766,-3.2477,-3.2933,-3.3543,-3.4016,-3.4376,-3.5007,-3.5833,-3.6319,-3.7112,-3.7954,-3.8262,-3.8391,-3.8391,-3.8391,-3.823,-3.7776,-3.6675,-3.6222,-3.5736,-3.5202,-3.4554,-3.4279,-3.457,-3.457,-3.4133,-3.3615,-3.2983,-3.2255,-3.1297,-3.0735,-3.0684,-3.1072,-3.1504,-3.15,-3.1671,-3.18,-3.18,-3.18,-3.18,-3.18,-3.18,-3.18,-3.18,-3.18,-3.18,-3.18,-3.18,-3.18,-3.18,-3.18,-3.1819,-3.1856,-3.191,-3.1929,-3.1965,-3.1929,-3.1929,-3.1929,-3.202,-3.2126,-3.2091,-3.2037,-3.1929,-3.1912,-3.1929,-3.1929,-3.1893,-3.1893,-3.1856,-3.1856,-3.1837,-3.18,-3.18,-3.18,-3.18,-3.18,-3.18,-3.18,-3.18,-3.18,-3.1946,-3.2319,-3.2527,-3.2404,-3.2486,-3.2634,-3.2535,-3.2317,-3.2486,-3.2453,-3.2553,-3.2586,-3.2519,-3.2553,-3.2781,-3.2876,-3.3814,-3.344,-3.2781,-3.2497,-3.2407,-3.2123,-3.1988,-3.1913,-3.1644,-3.1467,-3.1467,-3.1467,-3.1467,-3.1467,-3.1467,-3.1467,-3.1467,-3.1409,-3.1823,-3.2532,-3.2895,-3.3335,-3.4097,-3.4522,-3.525,-3.6238,-3.6659,-3.742,-3.8149,-3.8391,-3.8391,-3.8391,-3.8391,-3.7922,-3.7501,-3.6691,-3.5914,-3.5234,-3.4926,-3.4473,-3.4262,-3.4441,-3.457,-3.4052,-3.3469,-3.2854,-3.253,-3.185,-3.1375,-3.1331,-3.1683,-3.1782,-3.1436,-3.1634,-3.18,-3.18,-3.18,-3.18,-3.18,-3.18,-3.18,-3.18,-3.18,-3.18,-3.18,-3.18,-3.18,-3.18,-3.18,-3.18,-3.18,-3.18,-3.18,-3.18,-3.18,-3.18,-3.1837,-3.191,-3.1965,-3.1929,-3.1873,-3.1837,-3.18,-3.18,-3.18,-3.1873,-3.1873,-3.1837,-3.1837,-3.18,-3.18,-3.18,-3.18,-3.18,-3.18,-3.18,-3.18,-3.18,-3.18,-3.1965,-3.2284,-3.2489,-3.2586,-3.2699,-3.2827,-3.2699,-3.2568,-3.2731,-3.2858,-3.2813,-3.2813,-3.2876,-3.3001,-3.3154,-3.3154,-3.3634,-3.3589,-3.2931,-3.2991,-3.335,-3.2766,-3.2482,-3.2407,-3.1824,-3.1467,-3.1467,-3.1467,-3.1467,-3.1467,-3.1467,-3.1467,-3.1467,-3.1351,-3.1724,-3.2461,-3.2602,-3.3124,-3.3858,-3.4729,-3.5493,-3.6303,-3.6918,-3.7663,-3.8197,-3.8391,-3.8391,-3.8391,-3.8391,-3.7987,-3.6967,-3.6481,-3.6125,-3.5283,-3.4959,-3.4748,-3.4635,-3.4667,-3.4619,-3.4262,-3.3501,-3.3113,-3.2838,-3.2336,-3.1947,-3.2043,-3.2574,-3.2303,-3.1794,-3.1751,-3.1852,-3.1852,-3.18,-3.18,-3.18,-3.18,-3.18,-3.18,-3.18,-3.18,-3.18,-3.18,-3.18,-3.18,-3.18,-3.18,-3.18,-3.18,-3.18,-3.18,-3.18,-3.18,-3.18,-3.18,-3.1837,-3.1837,-3.1837,-3.18,-3.18,-3.18,-3.18,-3.18,-3.18,-3.18,-3.18,-3.18,-3.18,-3.18,-3.18,-3.18,-3.18,-3.1873,-3.1873,-3.1965,-3.1929,-3.2126,-3.2352,-3.2537,-3.2716,-3.2844,-3.289,-3.2858,-3.2921,-3.3105,-3.3154,-3.3032,-3.3093,-3.3273,-3.339,-3.3494,-3.3437,-3.4307,-3.4262,-3.3619,-3.3395,-3.3395,-3.2796,-3.2527,-3.2407,-3.1824,-3.1467,-3.1467,-3.1467,-3.1467,-3.1467,-3.1467,-3.1467,-3.1409,-3.1426,-3.1644,-3.2181,-3.2348,-3.2897,-3.3625,-3.4587,-3.5522,-3.6303,-3.6999,-3.7695,-3.8246,-3.8391,-3.8391,-3.8391,-3.8391,-3.81,-3.7776,-3.7469,-3.6902,-3.6254,-3.5914,-3.5704,-3.5704,-3.5687,-3.5347,-3.4829,-3.3809,-3.3275,-3.2983,-3.2449,-3.2028,-3.2059,-3.2397,-3.2293,-3.2093,-3.24,-3.2328,-3.1938,-3.18,-3.18,-3.18,-3.18,-3.18,-3.18,-3.18,-3.18,-3.18,-3.18,-3.18,-3.18,-3.18,-3.18,-3.18,-3.18,-3.18,-3.18,-3.18,-3.18,-3.18,-3.18,-3.18,-3.18,-3.18,-3.18,-3.18,-3.18,-3.18,-3.18,-3.18,-3.18,-3.18,-3.18,-3.18,-3.18,-3.18,-3.18,-3.18,-3.1856,-3.1965,-3.2197,-3.2283,-3.2369,-3.2553,-3.2684,-3.2844,-3.3001,-3.3243,-3.339,-3.3476,-3.3504,-3.3522,-3.3437,-3.355,-3.3662,-3.368,-3.3652,-3.368,-3.3963,-3.3903,-3.326,-3.338,-3.3754,-3.2931,-3.2527,-3.2422,-3.1824,-3.1467,-3.1467,-3.1467,-3.1467,-3.1467,-3.1467,-3.1467,-3.147,-3.208,-3.2169,-3.2385,-3.2524,-3.3002,-3.3628,-3.45,-3.5326,-3.6196,-3.6999,-3.7695,-3.8343,-3.8391,-3.8391,-3.8391,-3.8391,-3.823,-3.7873,-3.7452,-3.7145,-3.6853,-3.6529,-3.6335,-3.6335,-3.6319,-3.5785,-3.4781,-3.4376,-3.3841,-3.3145,-3.3242,-3.2919,-3.2789,-3.3237,-3.3222,-3.299,-3.284,-3.2762,-3.2038,-3.1817,-3.18,-3.18,-3.18,-3.18,-3.18,-3.18,-3.18,-3.18,-3.18,-3.18,-3.18,-3.18,-3.18,-3.18,-3.18,-3.18,-3.18,-3.18,-3.18,-3.18,-3.18,-3.18,-3.18,-3.18,-3.18,-3.18,-3.18,-3.18,-3.18,-3.18,-3.18,-3.18,-3.18,-3.18,-3.1893,-3.1929,-3.202,-3.2055,-3.2144,-3.2249,-3.2437,-3.2603,-3.2684,-3.2795,-3.297,-3.3093,-3.3202,-3.3465,-3.368,-3.3734,-3.368,-3.378,-3.3807,-3.378,-3.3734,-3.378,-3.3807,-3.3807,-3.3481,-3.3455,-3.3066,-3.3514,-3.4188,-3.323,-3.2721,-3.2557,-3.181,-3.1571,-3.1646,-3.1556,-3.1689,-3.1795,-3.1765,-3.1647,-3.1648,-3.2539,-3.269,-3.2841,-3.3033,-3.3495,-3.3848,-3.4619,-3.5364,-3.6265,-3.6999,-3.7695,-3.8278,-3.8391,-3.8391,-3.8391,-3.8391,-3.8165,-3.7711,-3.7695,-3.7128,-3.6918,-3.6724,-3.6724,-3.6707,-3.6513,-3.5995,-3.4781,-3.504,-3.4603,-3.3841,-3.3777,-3.3696,-3.3632,-3.3941,-3.4248,-3.3743,-3.3503,-3.2968,-3.2207,-3.1921,-3.1817,-3.18,-3.18,-3.18,-3.18,-3.18,-3.18,-3.18,-3.18,-3.18,-3.18,-3.18,-3.18,-3.18,-3.18,-3.18,-3.18,-3.18,-3.18,-3.18,-3.18,-3.18,-3.18,-3.18,-3.18,-3.18,-3.18,-3.18,-3.18,-3.18,-3.18,-3.18,-3.18,-3.1837,-3.2001,-3.2091,-3.2283,-3.2403,-3.2553,-3.2651,-3.2844,-3.2939,-3.3001,-3.3124,-3.3273,-3.3379,-3.3437,-3.3494,-3.368,-3.3753,-3.3807,-3.3807,-3.3807,-3.3807,-3.3807,-3.3807,-3.3807,-3.3807,-3.3427,-3.3544,-3.4023,-3.4352,-3.4337,-3.3664,-3.3365,-3.3185,-3.2108,-3.184,-3.2362,-3.1913,-3.2243,-3.2781,-3.2467,-3.2348,-3.2303,-3.2387,-3.2588,-3.2924,-3.3532,-3.378,-3.3826,-3.5345,-3.5786,-3.6443,-3.7048,-3.7695,-3.823,-3.8391,-3.8391,-3.8391,-3.8391,-3.8327,-3.8165,-3.81,-3.823,-3.8132,-3.8084,-3.8035,-3.789,-3.7404,-3.6983,-3.6432,-3.5736,-3.4991,-3.4538,-3.4295,-3.3987,-3.3971,-3.4037,-3.4104,-3.3943,-3.3378,-3.3076,-3.262,-3.2248,-3.18,-3.1817,-3.18,-3.18,-3.18,-3.18,-3.18,-3.18,-3.18,-3.18,-3.18,-3.18,-3.18,-3.18,-3.18,-3.18,-3.18,-3.18,-3.18,-3.18,-3.18,-3.18,-3.18,-3.18,-3.18,-3.18,-3.18,-3.18,-3.18,-3.18,-3.18,-3.18,-3.18,-3.1837,-3.1965,-3.2283,-3.247,-3.2684,-3.2827,-3.3063,-3.3214,-3.3243,-3.3302,-3.3408,-3.3522,-3.3625,-3.3698,-3.368,-3.368,-3.378,-3.3807,-3.3807,-3.3807,-3.3807,-3.3807,-3.3807,-3.3807,-3.3807,-3.3238,-3.4053,-3.3948,-3.4128,-3.4367,-3.3769,-3.3499,-3.338,-3.2916,-3.2796,-3.3006,-3.2796,-3.2991,-3.3348,-3.333,-3.2941,-3.2522,-3.2952,-3.3074,-3.2957,-3.3565,-3.4136,-3.4493,-3.5055,-3.553,-3.6815,-3.7209,-3.7695,-3.8181,-3.8391,-3.8391,-3.8391,-3.8391,-3.8391,-3.8391,-3.8391,-3.8391,-3.8359,-3.8343,-3.8165,-3.7809,-3.7452,-3.695,-3.6189,-3.5525,-3.5056,-3.4619,-3.4343,-3.4101,-3.402,-3.3809,-3.373,-3.3837,-3.3516,-3.3136,-3.3575,-3.3311,-3.2731,-3.1972,-3.1869,-3.1886,-3.1834,-3.1852,-3.18,-3.18,-3.1852,-3.1852,-3.18,-3.18,-3.1817,-3.1834,-3.18,-3.18,-3.18,-3.18,-3.18,-3.18,-3.18,-3.18,-3.18,-3.18,-3.18,-3.18,-3.18,-3.18,-3.18,-3.18,-3.18,-3.18,-3.18,-3.1837,-3.191,-3.2283,-3.2651,-3.289,-3.3105,-3.3408,-3.355,-3.355,-3.3625,-3.368,-3.378,-3.3807,-3.3807,-3.378,-3.378,-3.3807,-3.3807,-3.3807,-3.3807,-3.3807,-3.3807,-3.3807,-3.3807,-3.3807,-3.3217,-3.4367,-3.3946,-3.4023,-3.4427,-3.3948,-3.3754,-3.3739,-3.3529,-3.3559,-3.3769,-3.3858,-3.3829,-3.354,-3.3773,-3.3499,-3.2679,-3.387,-3.3828,-3.3514,-3.368,-3.4487,-3.4927,-3.5127,-3.5884,-3.7323,-3.7274,-3.7728,-3.8181,-3.8391,-3.8391,-3.8391,-3.8391,-3.8391,-3.8391,-3.8391,-3.8391,-3.8391,-3.8391,-3.8149,-3.7744,-3.7452,-3.6772,-3.6027,-3.5364,-3.4926,-3.4457,-3.4149,-3.4101,-3.4003,-3.3728,-3.3844,-3.4216,-3.3877,-3.3792,-3.4092,-3.4071,-3.3507,-3.2852,-3.2576,-3.2386,-3.2386,-3.2369,-3.2593,-3.2524,-3.2369,-3.2369,-3.2559,-3.2541,-3.2386,-3.2127,-3.211,-3.2007,-3.1921,-3.18,-3.18,-3.18,-3.18,-3.18,-3.18,-3.18,-3.18,-3.18,-3.18,-3.18,-3.18,-3.18,-3.18,-3.18,-3.18,-3.1929,-3.2001,-3.2369,-3.2781,-3.3093,-3.3361,-3.3652,-3.3844,-3.3844,-3.3807,-3.3807,-3.3807,-3.3807,-3.3807,-3.3807,-3.3807,-3.3807,-3.3807,-3.3807,-3.3807,-3.3807,-3.3807,-3.3807,-3.3844,-3.3862,-3.3559,-3.433,-3.4396,-3.4457,-3.4502,-3.4442,-3.4412,-3.4367,-3.3814,-3.3933,-3.4472,-3.4921,-3.4483,-3.3743,-3.3883,-3.4011,-3.3785,-3.3652,-3.3849,-3.4354,-3.5035,-3.5127,-3.5477,-3.5892,-3.6483,-3.7277,-3.7501,-3.7857,-3.823,-3.8391,-3.8391,-3.8391,-3.8391,-3.8391,-3.8391,-3.8391,-3.8391,-3.8391,-3.8391,-3.8391,-3.8035,-3.7695,-3.7161,-3.6788,-3.5882,-3.5137,-3.5056,-3.4424,-3.4101,-3.4084,-3.3841,-3.4105,-3.4411,-3.4172,-3.4229,-3.467,-3.4655,-3.4283,-3.399,-3.3697,-3.38,-3.3886,-3.3783,-3.3593,-3.3507,-3.3766,-3.3869,-3.3662,-3.3473,-3.3335,-3.3024,-3.2748,-3.2421,-3.2162,-3.1972,-3.18,-3.18,-3.18,-3.18,-3.18,-3.18,-3.18,-3.18,-3.18,-3.18,-3.18,-3.18,-3.18,-3.18,-3.1837,-3.1984,-3.2179,-3.2519,-3.2908,-3.3214,-3.3494,-3.3753,-3.3935,-3.4027,-3.3917,-3.3807,-3.3825,-3.4082,-3.3807,-3.3807,-3.3807,-3.388,-3.4027,-3.4082,-3.388,-3.388,-3.4119,-3.4174,-3.4211,-3.4156,-3.3657,-3.5023,-3.5126,-3.5115,-3.51,-3.5115,-3.51,-3.507,-3.4846,-3.4861,-3.51,-3.5355,-3.5091,-3.4619,-3.4381,-3.4236,-3.3885,-3.4053,-3.4045,-3.4126,-3.4449,-3.519,-3.5705,-3.6318,-3.6841,-3.7713,-3.7987,-3.8051,-3.8359,-3.8391,-3.8391,-3.8391,-3.8391,-3.8391,-3.8391,-3.8391,-3.8391,-3.8391,-3.8391,-3.8391,-3.8246,-3.7695,-3.7128,-3.6594,-3.5833,-3.4959,-3.4538,-3.4262,-3.4133,-3.4003,-3.3744,-3.4072,-3.4543,-3.4309,-3.4589,-3.5179,-3.5155,-3.5294,-3.5111,-3.4645,-3.4093,-3.4076,-3.4059,-3.4145,-3.4249,-3.4145,-3.4093,-3.4059,-3.4162,-3.4024,-3.3749,-3.3214,-3.2731,-3.2438,-3.2179,-3.1955,-3.18,-3.18,-3.18,-3.18,-3.18,-3.18,-3.18,-3.18,-3.18,-3.18,-3.18,-3.18,-3.18,-3.1856,-3.2055,-3.23,-3.2651,-3.2939,-3.3262,-3.3541,-3.3807,-3.3954,-3.4137,-3.41,-3.4045,-3.4468,-3.4596,-3.4211,-3.3917,-3.4027,-3.4174,-3.4376,-3.4412,-3.4376,-3.4477,-3.4697,-3.4679,-3.4605,-3.4697,-3.3509,-3.5118,-3.5424,-3.5489,-3.5489,-3.5489,-3.5489,-3.5489,-3.5459,-3.5489,-3.5489,-3.5424,-3.5279,-3.5082,-3.492,-3.453,-3.4163,-3.4205,-3.4066,-3.4109,-3.4412,-3.519,-3.5961,-3.6615,-3.7037,-3.8091,-3.8391,-3.8391,-3.8391,-3.8391,-3.8391,-3.8391,-3.8391,-3.8391,-3.8391,-3.8391,-3.8391,-3.8391,-3.8391,-3.8391,-3.8294,-3.7695,-3.6999,-3.6367,-3.5606,-3.4878,-3.4376,-3.4117,-3.4117,-3.3971,-3.3809,-3.3827,-3.4088,-3.4407,-3.4714,-3.5313,-3.581,-3.6156,-3.599,-3.5508,-3.4749,-3.4938,-3.4887,-3.4852,-3.4731,-3.4731,-3.4956,-3.4887,-3.4835,-3.4663,-3.449,-3.4024,-3.3317,-3.299,-3.2559,-3.23,-3.1921,-3.18,-3.18,-3.18,-3.18,-3.18,-3.18,-3.18,-3.18,-3.18,-3.18,-3.18,-3.1837,-3.1929,-3.2109,-3.2403,-3.2716,-3.3019,-3.3291,-3.3569,-3.3807,-3.3825,-3.4027,-3.4321,-3.4449,-3.4844,-3.499,-3.4669,-3.4449,-3.4376,-3.4596,-3.4981,-3.5037,-3.4954,-3.5174,-3.5467,-3.5237,-3.5247,-3.5642,-3.3182,-3.4351,-3.5213,-3.5489,-3.5489,-3.5489,-3.5489,-3.5489,-3.5489,-3.5504,-3.5424,-3.5294,-3.5148,-3.4935,-3.4817,-3.4528,-3.4365,-3.4356,-3.4283,-3.4211,-3.4283,-3.519,-3.59,-3.6507,-3.7087,-3.8091,-3.8391,-3.8391,-3.8391,-3.8391,-3.8391,-3.8391,-3.8391,-3.8391,-3.8391,-3.8391,-3.8391,-3.8391,-3.8391,-3.8391,-3.8262,-3.7776,-3.7161,-3.6319,-3.5736,-3.5072,-3.4295,-3.4101,-3.4101,-3.4036,-3.4003,-3.4087,-3.4399,-3.456,-3.4925,-3.5526,-3.5739,-3.6002,-3.6207,-3.6197,-3.6042,-3.5904,-3.5732,-3.5835,-3.6059,-3.6111,-3.5956,-3.5697,-3.5887,-3.5697,-3.5421,-3.4973,-3.4128,-3.3611,-3.3214,-3.2835,-3.249,-3.2334,-3.2438,-3.2214,-3.1955,-3.1817,-3.18,-3.18,-3.18,-3.18,-3.18,-3.1837,-3.191,-3.202,-3.2214,-3.2586,-3.2939,-3.3154,-3.3437,-3.3625,-3.3807,-3.3807,-3.399,-3.4321,-3.4688,-3.5055,-3.511,-3.4954,-3.5165,-3.5275,-3.5459,-3.5697,-3.5917,-3.6156,-3.6119,-3.6211,-3.5962,-3.5952,-3.6431,-3.2744,-3.4365,-3.5133,-3.5489,-3.5489,-3.5489,-3.5489,-3.5489,-3.5489,-3.5424,-3.5294,-3.5213,-3.5016,-3.4831,-3.4698,-3.4563,-3.4414,-3.4399,-3.4312,-3.3891,-3.4182,-3.4912,-3.5597,-3.6322,-3.7084,-3.8075,-3.8391,-3.8391,-3.8391,-3.8391,-3.8391,-3.8391,-3.8391,-3.8391,-3.8391,-3.8391,-3.8391,-3.8391,-3.8391,-3.8391,-3.8375,-3.8068,-3.7436,-3.6367,-3.5979,-3.525,-3.4214,-3.4117,-3.4101,-3.4101,-3.4101,-3.4201,-3.4399,-3.4497,-3.4787,-3.5241,-3.5424,-3.5941,-3.6199,-3.6249,-3.6266,-3.6284,-3.6284,-3.6284,-3.6284,-3.6284,-3.6284,-3.6284,-3.6284,-3.6077,-3.5956,-3.5387,-3.4749,-3.4576,-3.4214,-3.38,-3.3507,-3.3455,-3.3404,-3.2886,-3.2524,-3.2093,-3.1921,-3.1854,-3.1837,-3.1856,-3.1893,-3.2037,-3.2108,-3.2232,-3.242,-3.2844,-3.3214,-3.339,-3.3578,-3.3734,-3.3807,-3.3807,-3.4082,-3.4486,-3.4853,-3.522,-3.533,-3.5293,-3.5771,-3.6211,-3.6395,-3.6652,-3.7184,-3.7441,-3.7239,-3.7294,-3.7338,-3.7264,-3.7349,-3.2359,-3.4321,-3.4931,-3.531,-3.5474,-3.5489,-3.5489,-3.5504,-3.5424,-3.5294,-3.5213,-3.5082,-3.4883,-3.4698,-3.4631,-3.4563,-3.4414,-3.4399,-3.4341,-3.3819,-3.392,-3.4658,-3.5308,-3.5905,-3.6704,-3.7769,-3.8311,-3.8391,-3.8391,-3.8391,-3.8391,-3.8391,-3.8391,-3.8391,-3.8391,-3.8391,-3.8391,-3.8391,-3.8391,-3.8391,-3.8311,-3.8003,-3.742,-3.6546,-3.5898,-3.5299,-3.4457,-3.4101,-3.4101,-3.4101,-3.4101,-3.4101,-3.4201,-3.4349,-3.4626,-3.4961,-3.5543,-3.6028,-3.6241,-3.6284,-3.6284,-3.6284,-3.6284,-3.6284,-3.6284,-3.6284,-3.6284,-3.6284,-3.6284,-3.6284,-3.6163,-3.5611,-3.5456,-3.5249,-3.4921,-3.449,-3.4128,-3.4059,-3.3973,-3.3473,-3.2869,-3.2438,-3.2024,-3.1923,-3.1856,-3.1929,-3.1984,-3.2161,-3.2352,-3.2504,-3.2702,-3.3063,-3.3408,-3.3578,-3.368,-3.3753,-3.3807,-3.3807,-3.4156,-3.4578,-3.5018,-3.5385,-3.5477,-3.5734,-3.6358,-3.689,-3.7257,-3.7624,-3.7955,-3.812,-3.8083,-3.8267,-3.867,-3.845,-3.812,-3.196,-3.4132,-3.4441,-3.4891,-3.5444,-3.5504,-3.5489,-3.5439,-3.5294,-3.5162,-3.5148,-3.4831,-3.4698,-3.4631,-3.4481,-3.4414,-3.4414,-3.4414,-3.4283,-3.4161,-3.3908,-3.4487,-3.5019,-3.5564,-3.6458,-3.7295,-3.797,-3.8391,-3.8391,-3.8391,-3.8391,-3.8391,-3.8391,-3.8391,-3.8391,-3.8391,-3.8391,-3.8391,-3.8391,-3.8311,-3.8116,-3.7695,-3.7015,-3.627,-3.572,-3.5088,-3.4457,-3.4214,-3.4182,-3.4133,-3.4101,-3.4084,-3.4134,-3.4134,-3.4561,-3.5178,-3.5898,-3.6114,-3.6301,-3.6284,-3.6284,-3.6284,-3.6284,-3.6284,-3.6284,-3.6284,-3.6284,-3.6284,-3.6284,-3.6284,-3.6197,-3.6059,-3.5921,-3.5663,-3.537,-3.4956,-3.4525,-3.4387,-3.4352,-3.3921,-3.3231,-3.2714,-3.2234,-3.2009,-3.1984,-3.2144,-3.2283,-3.2504,-3.2702,-3.2908,-3.3093,-3.3291,-3.3569,-3.3753,-3.3807,-3.3807,-3.4064,-3.4156,-3.4284,-3.4651,-3.5092,-3.5569,-3.5807,-3.6229,-3.7,-3.7551,-3.7881,-3.8193,-3.8487,-3.8597,-3.8487,-3.8542,-3.8707,-3.8707,-3.8505,-3.1457,-3.2986,-3.407,-3.4876,-3.5459,-3.5359,-3.5294,-3.5294,-3.5082,-3.4935,-3.4831,-3.4765,-3.4631,-3.4481,-3.4414,-3.4414,-3.4414,-3.4341,-3.4066,-3.3937,-3.3965,-3.4345,-3.4834,-3.5568,-3.6451,-3.7255,-3.797,-3.8391,-3.8391,-3.8391,-3.8391,-3.8391,-3.8391,-3.8391,-3.8391,-3.8391,-3.8391,-3.8391,-3.8391,-3.8116,-3.7792,-3.7404,-3.6594,-3.5849,-3.572,-3.5056,-3.4424,-3.4538,-3.4489,-3.4165,-3.4117,-3.4201,-3.4546,-3.4546,-3.4866,-3.5481,-3.5854,-3.6028,-3.6241,-3.6284,-3.6284,-3.6284,-3.6284,-3.6284,-3.6284,-3.6284,-3.6284,-3.6284,-3.6284,-3.6284,-3.6284,-3.6197,-3.6146,-3.5973,-3.5766,-3.5594,-3.5249,-3.5232,-3.5145,-3.449,-3.38,-3.3007,-3.2527,-3.2176,-3.2179,-3.2386,-3.2603,-3.283,-3.3019,-3.3243,-3.3361,-3.355,-3.3652,-3.378,-3.3807,-3.3807,-3.4211,-3.4523,-3.4596,-3.4816,-3.5385,-3.5826,-3.6156,-3.6743,-3.7533,-3.8083,-3.8505,-3.8707,-3.8707,-3.8707,-3.8634,-3.867,-3.8707,-3.8707,-3.8707,-3.0861,-3.2103,-3.3191,-3.417,-3.4927,-3.4978,-3.503,-3.4964,-3.4883,-3.475,-3.4698,-3.4631,-3.4481,-3.4414,-3.4414,-3.4414,-3.4414,-3.4399,-3.4225,-3.4141,-3.4214,-3.4544,-3.506,-3.5786,-3.6581,-3.7327,-3.7954,-3.8391,-3.8391,-3.8391,-3.8391,-3.8391,-3.8391,-3.8391,-3.8391,-3.8391,-3.8391,-3.8391,-3.8294,-3.7938,-3.7501,-3.7031,-3.6157,-3.5509,-3.5574,-3.491,-3.4392,-3.4732,-3.4489,-3.4165,-3.4101,-3.43,-3.4739,-3.4977,-3.5195,-3.5766,-3.5985,-3.6114,-3.6259,-3.6284,-3.6284,-3.6284,-3.6284,-3.6284,-3.6284,-3.6284,-3.6284,-3.6284,-3.6284,-3.6284,-3.6284,-3.6284,-3.6284,-3.6266,-3.6249,-3.6249,-3.6232,-3.6215,-3.5749,-3.5111,-3.4335,-3.3473,-3.2916,-3.2563,-3.2403,-3.2586,-3.2876,-3.3184,-3.335,-3.3494,-3.3578,-3.3707,-3.3753,-3.3807,-3.3807,-3.3862,-3.4247,-3.4578,-3.4743,-3.5055,-3.5661,-3.6101,-3.6413,-3.7184,-3.8083,-3.845,-3.8707,-3.8707,-3.8707,-3.8707,-3.8707,-3.8707,-3.8707,-3.8707,-3.8707,-3.0157,-3.1406,-3.225,-3.3257,-3.4065,-3.4361,-3.4493,-3.4624,-3.4551,-3.4654,-3.4616,-3.4481,-3.4414,-3.4414,-3.4414,-3.4414,-3.4414,-3.4414,-3.4399,-3.4409,-3.4524,-3.4774,-3.532,-3.6079,-3.6814,-3.7439,-3.7938,-3.8391,-3.8391,-3.8391,-3.8391,-3.8391,-3.8391,-3.8327,-3.8149,-3.8343,-3.8311,-3.81,-3.8035,-3.7776,-3.7128,-3.6546,-3.5898,-3.525,-3.4845,-3.4424,-3.4392,-3.436,-3.4262,-3.4295,-3.4217,-3.4431,-3.4961,-3.5424,-3.5783,-3.5915,-3.6131,-3.6199,-3.6284,-3.6284,-3.6284,-3.6284,-3.6284,-3.6284,-3.6284,-3.6284,-3.6284,-3.6284,-3.6284,-3.6284,-3.6284,-3.6284,-3.6284,-3.6284,-3.6284,-3.6284,-3.6284,-3.6266,-3.6025,-3.5439,-3.4869,-3.4007,-3.3343,-3.2997,-3.2546,-3.2776,-3.3063,-3.3361,-3.3587,-3.3716,-3.3808,-3.3844,-3.3807,-3.3807,-3.3807,-3.3935,-3.4266,-3.4559,-3.4798,-3.5202,-3.5734,-3.6211,-3.667,-3.7404,-3.8138,-3.8469,-3.8707,-3.8707,-3.8707,-3.8707,-3.8707,-3.8707,-3.8707,-3.8707,-3.8707,-2.9522,-3.0878,-3.242,-3.3129,-3.3113,-3.324,-3.3477,-3.3754,-3.3769,-3.4045,-3.4423,-3.4414,-3.4414,-3.4414,-3.4414,-3.4414,-3.4414,-3.4414,-3.4414,-3.4596,-3.479,-3.5156,-3.5579,-3.66,-3.7134,-3.7494,-3.7954,-3.8391,-3.8391,-3.8391,-3.8391,-3.8391,-3.8327,-3.8116,-3.7841,-3.81,-3.8116,-3.789,-3.7663,-3.7404,-3.6772,-3.5979,-3.5266,-3.5315,-3.5218,-3.5428,-3.5477,-3.559,-3.5687,-3.572,-3.4889,-3.4982,-3.5498,-3.5941,-3.6131,-3.6216,-3.6259,-3.6284,-3.6284,-3.6284,-3.6284,-3.6284,-3.6284,-3.6284,-3.6284,-3.6284,-3.6284,-3.6284,-3.6284,-3.6284,-3.6284,-3.6284,-3.6284,-3.6284,-3.6284,-3.6284,-3.6284,-3.6232,-3.618,-3.5783,-3.5283,-3.4634,-3.3913,-3.3393,-3.2932,-3.2887,-3.3104,-3.335,-3.3585,-3.3752,-3.3954,-3.399,-3.3825,-3.3807,-3.3807,-3.3935,-3.4247,-3.4614,-3.488,-3.5349,-3.5862,-3.6486,-3.7092,-3.7514,-3.8046,-3.845,-3.8707,-3.8707,-3.8707,-3.8707,-3.8707,-3.8707,-3.8707,-3.8707,-3.8707,-2.9109,-3.0172,-3.1897,-3.2529,-3.2386,-3.2587,-3.3019,-3.3405,-3.318,-3.3558,-3.4341,-3.4414,-3.4414,-3.4414,-3.4414,-3.4414,-3.4414,-3.4414,-3.4414,-3.4611,-3.5262,-3.5676,-3.6372,-3.7074,-3.7601,-3.797,-3.8149,-3.8391,-3.8391,-3.8391,-3.8391,-3.8343,-3.8181,-3.7922,-3.7679,-3.7954,-3.797,-3.7841,-3.7485,-3.7096,-3.6578,-3.5866,-3.5493,-3.5687,-3.5542,-3.572,-3.5623,-3.5574,-3.5419,-3.5611,-3.5229,-3.5371,-3.5722,-3.6088,-3.6241,-3.6284,-3.6284,-3.6284,-3.6284,-3.6284,-3.6284,-3.6284,-3.6284,-3.6284,-3.6284,-3.6284,-3.6284,-3.6284,-3.6284,-3.6284,-3.6284,-3.6284,-3.6284,-3.6284,-3.6284,-3.6284,-3.6284,-3.6266,-3.6232,-3.6111,-3.5594,-3.5025,-3.4471,-3.4234,-3.3775,-3.3504,-3.3638,-3.3851,-3.3967,-3.3962,-3.4128,-3.4192,-3.4082,-3.388,-3.3807,-3.3954,-3.4174,-3.4578,-3.5018,-3.5789,-3.6431,-3.7,-3.7551,-3.7955,-3.8285,-3.8505,-3.8707,-3.8707,-3.8707,-3.8707,-3.8707,-3.8707,-3.8707,-3.8707,-3.8707,-2.8657,-2.9457,-3.0978,-3.1655,-3.1681,-3.2053,-3.2571,-3.3035,-3.2745,-3.3195,-3.4182,-3.4356,-3.4414,-3.4414,-3.4414,-3.4414,-3.4414,-3.4414,-3.4414,-3.4787,-3.574,-3.6106,-3.6734,-3.7632,-3.8019,-3.8262,-3.8375,-3.8391,-3.8391,-3.8391,-3.8359,-3.8246,-3.8003,-3.7728,-3.7938,-3.7906,-3.7728,-3.7776,-3.7582,-3.7355,-3.6756,-3.6076,-3.5963,-3.5623,-3.5234,-3.4813,-3.4926,-3.4816,-3.4577,-3.502,-3.5582,-3.5757,-3.5932,-3.6174,-3.6241,-3.6284,-3.6284,-3.6284,-3.6284,-3.6284,-3.6284,-3.6284,-3.6284,-3.6284,-3.6284,-3.6284,-3.6284,-3.6284,-3.6284,-3.6284,-3.6284,-3.6284,-3.6284,-3.6284,-3.6284,-3.6284,-3.6284,-3.6284,-3.6284,-3.6284,-3.5887,-3.537,-3.5144,-3.4868,-3.4657,-3.4387,-3.4339,-3.4594,-3.471,-3.4585,-3.4596,-3.455,-3.4422,-3.4229,-3.3917,-3.3917,-3.41,-3.4669,-3.522,-3.6174,-3.6993,-3.7379,-3.7838,-3.8395,-3.8689,-3.8707,-3.8707,-3.8707,-3.8707,-3.8707,-3.8707,-3.8707,-3.8707,-3.8707,-3.8707,-2.787,-2.9212,-3.0485,-3.0951,-3.086,-3.0991,-3.1308,-3.1917,-3.2367,-3.2962,-3.363,-3.4196,-3.4414,-3.4414,-3.4414,-3.4414,-3.4414,-3.4414,-3.4414,-3.4601,-3.5834,-3.6275,-3.6829,-3.777,-3.8278,-3.8391,-3.8391,-3.8391,-3.8391,-3.8391,-3.8391,-3.8343,-3.8311,-3.7954,-3.7533,-3.7582,-3.7744,-3.7598,-3.742,-3.7193,-3.708,-3.6562,-3.627,-3.6108,-3.6076,-3.5995,-3.5882,-3.5364,-3.5513,-3.582,-3.6057,-3.6096,-3.6173,-3.6199,-3.6284,-3.6284,-3.6284,-3.6284,-3.6284,-3.6284,-3.6284,-3.6284,-3.6284,-3.6284,-3.6284,-3.6284,-3.6284,-3.6284,-3.6284,-3.6284,-3.6284,-3.6284,-3.6284,-3.6284,-3.6284,-3.6284,-3.6284,-3.6284,-3.6284,-3.6326,-3.6205,-3.5885,-3.571,-3.5551,-3.5508,-3.5202,-3.4835,-3.5042,-3.521,-3.5133,-3.5137,-3.51,-3.5027,-3.4376,-3.3972,-3.3862,-3.4064,-3.4688,-3.5495,-3.6626,-3.7342,-3.7544,-3.8021,-3.8542,-3.8707,-3.8707,-3.8707,-3.8707,-3.8707,-3.8707,-3.8707,-3.8707,-3.8707,-3.8707,-3.8707]}]]